[[{"header":{"parameterUnit":"m.s-1","parameterCategory":1,"la1":31.0,"la2":29.5877,"lo1":-88.7671,"lo2":-86.6584,"dy":0.0162,"dx":0.0185,"nx":115,"ny":88,"refTime":"2023-11-06T18:00:00:Z","depth":0,"parameterNumber":2,"parameterNumberName":"U-component_of_WINDS"},"data":[0.0,0.0,0.0,0.0,0.0,0.0,0.0,0.0,0.0,0.0,0.0,0.0,0.0,0.0,0.0,0.0,0.0,0.0,0.0,0.0,0.0,0.0,0.0,0.0,0.0,0.0,0.0,0.0,0.0,0.0,0.0,0.0,0.0,0.0,0.0,0.0,0.0,0.0,0.0,0.0,0.0,0.0,0.0,0.0,0.0,0.0,0.0,0.0,0.0,0.0,0.0,0.0,0.0,0.0,0.0,0.0,0.0,0.0,0.0,0.0,0.0,0.0,0.0,0.0,0.0,0.0,0.0,0.0,0.0,0.0,0.0,0.0,0.0,0.0,0.0,0.0,0.0,0.0,0.0,0.0,0.0,0.0,0.0,0.0,0.0,0.0,0.0,0.0,0.0,0.0,0.0,0.0,0.0,0.0,0.0,0.0,0.0,0.0,0.0,0.0,0.0,0.0,0.0,0.0,0.0,0.0,0.0,0.0,0.0,0.0,0.0,0.0,0.0,0.0,0.0,0.0,0.0,0.0,0.0,0.0,0.0,0.0,0.0,0.0,0.0,0.0,0.0,0.0,0.0,0.0,0.0,0.0,0.0,0.0,0.0,0.0,0.0,0.0,0.0,0.0,0.0,0.0,0.0,0.0,0.0,0.0,0.0,0.0,0.0,0.0,0.0,0.0,0.0,0.0,0.0,0.0,0.0,0.0,0.0,0.0,0.0,0.0,0.0,0.0,0.0,0.0,0.0,0.0,0.0,0.0,0.0,0.0,0.0,0.0,0.0,0.0,0.0,0.0,0.0,0.0,0.0,0.0,0.0,0.0,0.0,0.0,0.0,0.0,0.0,0.0,0.0,0.0,0.0,0.0,0.0,0.0,0.0,0.0,0.0,0.0,0.0,0.0,0.0,0.0,0.0,0.0,0.0,0.0,0.0,0.0,0.0,0.0,0.0,0.0,0.0,0.0,0.0,0.0,0.0,0.0,0.0,0.0,0.0,0.0,0.0,0.0,0.0,0.0,0.0,0.0,0.0,0.0,0.0,0.0,0.0,0.0,0.0,0.0,0.0,0.0,0.0,0.0,0.0,0.0,0.0,0.0,0.0,0.0,0.0,0.0,0.0,0.0,0.0,0.0,0.0,0.0,0.0,0.0,0.0,0.0,0.0,0.0,0.0,0.0,0.0,0.0,0.0,0.0,0.0,0.0,0.0,0.0,0.0,0.0,0.0,0.0,0.0,0.0,0.0,0.0,0.0,0.0,0.0,0.0,0.0,0.0,0.0,0.0,0.0,0.0,0.0,0.0,0.0,0.0,0.0,0.0,0.0,0.0,0.0,0.0,0.0,0.0,0.0,0.0,0.0,0.0,0.0,0.0,0.0,0.0,0.0,0.0,0.0,0.0,0.0,0.0,0.0,0.0,0.0,0.0,0.0,0.0,0.0,0.0,0.0,0.0,0.0,0.0,0.0,0.0,0.0,0.0,0.0,0.0,0.0,0.0,0.0,0.0,0.0,0.0,0.0,0.0,0.0,0.0,0.0,0.0,0.0,0.0,0.0,0.0,0.0,0.0,0.0,0.0,0.0,0.0,0.0,0.0,0.0,0.0,0.0,0.0,0.0,0.0,0.0,0.0,0.0,0.0,0.0,0.0,0.0,0.0,0.0,0.0,0.0,0.0,0.0,0.0,0.0,0.0,0.0,0.0,0.0,0.0,0.0,0.0,0.0,0.0,0.0,0.0,0.0,0.0,0.0,0.0,0.0,0.0,0.0,0.0,0.0,0.0,0.0,0.0,0.0,0.0,0.0,0.0,0.0,0.0,0.0,0.0,0.0,0.0,0.0,0.0,0.0,0.0,0.0,0.0,0.0,0.0,0.0,0.0,0.0,0.0,0.0,0.0,0.0,0.0,0.0,0.0,0.0,0.0,0.0,0.0,0.0,0.0,0.0,0.0,0.0,0.0,0.0,0.0,0.0,0.0,0.0,0.0,0.0,0.0,0.0,0.0,0.0,0.0,0.0,0.0,0.0,0.0,0.0,0.0,0.0,0.0,0.0,0.0,0.0,0.0,0.0,0.0,0.0,0.0,0.0,0.0,0.0,0.0,0.0,0.0,0.0,0.0,0.0,0.0,0.0,0.0,0.0,0.0,0.0,0.0,0.0,0.0,0.0,0.0,0.0,0.0,0.0,0.0,0.0,0.0,0.0,0.0,0.0,0.0,0.0,0.0,0.0,0.0,0.0,0.0,0.0,0.0,0.0,0.0,0.0,0.0,0.0,0.0,0.0,0.0,0.0,0.0,0.0,0.0,0.0,0.0,0.0,0.0,0.0,0.0,0.0,0.0,0.0,0.0,0.0,0.0,0.0,0.0,0.0,0.0,0.0,0.0,0.0,0.0,0.0,0.0,0.0,0.0,0.0,0.0,0.0,0.0,0.0,0.0,0.0,0.0,0.0,0.0,0.0,0.0,0.0,0.0,0.0,0.0,0.0,0.0,0.0,0.0,0.0,0.0,0.0,0.0,0.0,0.0,0.0,0.0,0.0,0.0,0.0,0.0,0.0,0.0,0.0,0.0,0.0,0.0,0.0,0.0,0.0,0.0,0.0,0.0,0.0,0.0,0.0,0.0,0.0,0.0,0.0,0.0,0.0,0.0,0.0,0.0,0.0,0.0,0.0,0.0,0.0,0.0,0.0,0.0,0.0,0.0,0.0,0.0,0.0,0.0,0.0,0.0,0.0,0.0,0.0,0.0,0.0,0.0,0.0,0.0,0.0,0.0,0.0,0.0,0.0,0.0,0.0,0.0,0.0,0.0,0.0,0.0,0.0,0.0,0.0,0.0,0.0,0.0,0.0,0.0,0.0,0.0,0.0,0.0,0.0,0.0,0.0,0.0,0.0,0.0,0.0,0.0,0.0,0.0,0.0,0.0,0.0,0.0,0.0,0.0,0.0,0.0,0.0,0.0,0.0,0.0,0.0,0.0,0.0,0.0,0.0,0.0,0.0,0.0,0.0,0.0,0.0,0.0,0.0,0.0,0.0,0.0,0.0,0.0,0.0,0.0,0.0,0.0,0.0,0.0,0.0,0.0,0.0,0.0,0.0,0.0,0.0,0.0,0.0,0.0,0.0,0.0,0.0,0.0,0.0,0.0,0.0,0.0,0.0,0.0,0.0,0.0,0.0,0.0,0.0,0.0,0.0,0.0,0.0,0.0,0.0,0.0,0.0,0.0,0.0,0.0,0.0,0.0,0.0,0.0,0.0,0.0,0.0,0.0,0.0,0.0,0.0,0.0,0.0,0.0,0.0,0.0,0.0,0.0,0.0,0.0,0.0,0.0,0.0,0.0,0.0,0.0,0.0,0.0,0.0,0.0,0.0,0.0,0.0,0.0,0.0,0.0,0.0,0.0,0.0,0.0,0.0,0.0,0.0,0.0,0.0,0.0,0.0,0.0,0.0,0.0,0.0,0.0,0.0,0.0,0.0,0.0,0.0,0.0,0.0,0.0,0.0,0.0,0.0,0.0,0.0,0.0,0.0,0.0,0.0,0.0,0.0,0.0,0.0,0.0,0.0,0.0,0.0,0.0,0.0,0.0,0.0,0.0,0.0,0.0,0.0,0.0,0.0,0.0,0.0,0.0,0.0,0.0,0.0,0.0,0.0,0.0,0.0,0.0,0.0,0.0,0.0,0.0,0.0,0.0,0.0,0.0,0.0,0.0,0.0,0.0,0.0,0.0,0.0,0.0,0.0,0.0,0.0,0.0,0.0,0.0,0.0,0.0,0.0,0.0,0.0,0.0,0.0,0.0,0.0,0.0,0.0,0.0,0.0,0.0,0.0,0.0,0.0,0.0,0.0,0.0,0.0,0.0,0.0,0.0,0.0,0.0,0.0,0.0,0.0,0.0,0.0,0.0,0.0,0.0,0.0,0.0,0.0,0.0,0.0,0.0,0.0,0.0,0.0,0.0,0.0,0.0,0.0,0.0,0.0,0.0,0.0,0.0,0.0,0.0,0.0,0.0,0.0,0.0,0.0,0.0,0.0,0.0,0.0,0.0,0.0,0.0,0.0,0.0,0.0,0.0,0.0,0.0,0.0,0.0,0.0,0.0,0.0,0.0,0.0,0.0,0.0,0.0,0.0,0.0,0.0,0.0,0.0,0.0,0.0,0.0,0.0,0.0,0.0,0.0,0.0,0.0,0.0,0.0,0.0,0.0,0.0,0.0,0.0,0.0,0.0,0.0,0.0,0.0,0.0,0.0,0.0,0.0,0.0,0.0,0.0,0.0,0.0,0.0,-3.3359,0.0,0.0,0.0,0.0,0.0,0.0,0.0,0.0,0.0,0.0,0.0,0.0,0.0,0.0,0.0,0.0,0.0,0.0,0.0,0.0,0.0,0.0,0.0,0.0,0.0,0.0,0.0,0.0,0.0,0.0,0.0,0.0,0.0,0.0,0.0,0.0,0.0,0.0,0.0,0.0,0.0,0.0,0.0,0.0,0.0,0.0,0.0,0.0,0.0,0.0,0.0,0.0,0.0,0.0,0.0,0.0,0.0,0.0,0.0,0.0,0.0,0.0,0.0,0.0,0.0,0.0,0.0,0.0,0.0,0.0,0.0,0.0,0.0,0.0,0.0,0.0,0.0,0.0,0.0,0.0,0.0,0.0,0.0,0.0,0.0,0.0,0.0,0.0,0.0,0.0,0.0,0.0,0.0,0.0,0.0,0.0,0.0,0.0,0.0,0.0,0.0,0.0,0.0,0.0,0.0,0.0,0.0,0.0,0.0,0.0,-3.6012,-3.5993,-3.4765,-3.4101,-3.4062,0.0,0.0,0.0,0.0,0.0,0.0,0.0,0.0,0.0,0.0,0.0,0.0,0.0,0.0,0.0,0.0,0.0,0.0,0.0,0.0,0.0,0.0,0.0,0.0,0.0,0.0,0.0,0.0,0.0,0.0,0.0,0.0,0.0,0.0,0.0,0.0,0.0,0.0,0.0,0.0,0.0,0.0,0.0,0.0,0.0,0.0,0.0,0.0,0.0,0.0,0.0,0.0,0.0,0.0,0.0,0.0,0.0,0.0,0.0,0.0,0.0,0.0,0.0,0.0,0.0,0.0,0.0,0.0,0.0,0.0,0.0,0.0,0.0,0.0,0.0,0.0,0.0,0.0,0.0,0.0,0.0,0.0,0.0,0.0,0.0,0.0,0.0,0.0,0.0,0.0,0.0,0.0,0.0,0.0,0.0,0.0,0.0,0.0,0.0,0.0,0.0,0.0,0.0,0.0,0.0,0.0,0.0,0.0,0.0,0.0,0.0,0.0,-3.5155,-3.4492,-3.41,0.0,0.0,0.0,0.0,0.0,0.0,0.0,0.0,0.0,0.0,0.0,0.0,0.0,0.0,0.0,0.0,0.0,0.0,0.0,0.0,0.0,0.0,0.0,0.0,0.0,0.0,0.0,0.0,0.0,0.0,0.0,0.0,0.0,0.0,0.0,0.0,0.0,0.0,0.0,0.0,0.0,0.0,0.0,0.0,0.0,0.0,0.0,0.0,0.0,0.0,0.0,0.0,0.0,0.0,0.0,0.0,0.0,0.0,0.0,0.0,0.0,0.0,0.0,0.0,0.0,0.0,0.0,0.0,0.0,0.0,0.0,0.0,0.0,0.0,0.0,0.0,0.0,0.0,0.0,0.0,0.0,0.0,0.0,0.0,0.0,0.0,0.0,0.0,0.0,0.0,0.0,0.0,0.0,0.0,0.0,0.0,0.0,0.0,0.0,0.0,0.0,0.0,0.0,0.0,0.0,0.0,0.0,0.0,0.0,0.0,-3.6017,-3.5986,-3.5153,0.0,-3.2457,0.0,0.0,0.0,0.0,0.0,0.0,0.0,0.0,0.0,0.0,0.0,0.0,0.0,0.0,0.0,0.0,0.0,0.0,0.0,0.0,0.0,0.0,0.0,0.0,0.0,0.0,0.0,0.0,0.0,0.0,0.0,0.0,0.0,0.0,0.0,0.0,0.0,0.0,0.0,0.0,0.0,0.0,0.0,0.0,0.0,0.0,0.0,0.0,0.0,0.0,0.0,0.0,0.0,0.0,0.0,0.0,0.0,0.0,0.0,0.0,0.0,0.0,0.0,0.0,0.0,0.0,0.0,0.0,0.0,0.0,0.0,0.0,0.0,0.0,0.0,0.0,0.0,0.0,0.0,0.0,0.0,0.0,0.0,0.0,0.0,0.0,0.0,0.0,0.0,0.0,0.0,0.0,0.0,0.0,0.0,0.0,0.0,0.0,0.0,0.0,0.0,0.0,0.0,0.0,0.0,0.0,0.0,0.0,0.0,0.0,-3.6467,-3.5965,-3.5624,-3.4669,0.0,0.0,0.0,0.0,0.0,0.0,0.0,0.0,0.0,0.0,0.0,0.0,0.0,0.0,0.0,0.0,0.0,0.0,0.0,0.0,0.0,0.0,0.0,0.0,0.0,0.0,0.0,0.0,0.0,0.0,0.0,0.0,0.0,0.0,0.0,0.0,0.0,0.0,0.0,0.0,0.0,0.0,0.0,0.0,0.0,0.0,0.0,0.0,0.0,0.0,0.0,0.0,0.0,0.0,0.0,0.0,0.0,0.0,0.0,0.0,0.0,0.0,0.0,0.0,0.0,0.0,0.0,0.0,0.0,0.0,0.0,0.0,0.0,0.0,0.0,0.0,0.0,0.0,0.0,0.0,0.0,0.0,0.0,0.0,0.0,0.0,0.0,0.0,0.0,0.0,0.0,0.0,0.0,0.0,0.0,0.0,0.0,0.0,0.0,0.0,0.0,0.0,0.0,0.0,0.0,0.0,0.0,0.0,0.0,0.0,-3.5788,-3.6275,-3.5936,-3.5949,-3.5149,-3.344,0.0,0.0,0.0,0.0,0.0,0.0,0.0,0.0,0.0,0.0,0.0,0.0,0.0,0.0,0.0,0.0,0.0,0.0,0.0,0.0,0.0,0.0,0.0,0.0,0.0,0.0,0.0,0.0,0.0,0.0,0.0,0.0,0.0,0.0,0.0,0.0,0.0,0.0,0.0,0.0,0.0,0.0,0.0,0.0,0.0,0.0,0.0,0.0,0.0,0.0,0.0,0.0,0.0,0.0,0.0,0.0,0.0,0.0,0.0,0.0,0.0,0.0,0.0,0.0,0.0,0.0,0.0,0.0,0.0,0.0,0.0,0.0,0.0,0.0,0.0,0.0,0.0,0.0,0.0,0.0,0.0,0.0,0.0,0.0,0.0,0.0,0.0,0.0,0.0,0.0,0.0,0.0,0.0,0.0,0.0,0.0,0.0,0.0,0.0,0.0,0.0,0.0,0.0,0.0,0.0,0.0,0.0,0.0,-3.4399,-3.4571,-3.5035,-3.5869,-3.5885,-3.51,0.0,0.0,0.0,0.0,0.0,0.0,0.0,0.0,0.0,0.0,0.0,0.0,0.0,0.0,0.0,0.0,0.0,0.0,0.0,0.0,0.0,0.0,0.0,0.0,0.0,0.0,0.0,0.0,0.0,0.0,0.0,0.0,0.0,0.0,0.0,0.0,0.0,0.0,0.0,0.0,0.0,0.0,0.0,0.0,0.0,0.0,0.0,0.0,0.0,0.0,0.0,0.0,0.0,0.0,0.0,0.0,0.0,0.0,0.0,0.0,0.0,0.0,0.0,0.0,0.0,0.0,0.0,0.0,0.0,0.0,0.0,0.0,0.0,0.0,0.0,0.0,0.0,0.0,0.0,0.0,0.0,0.0,0.0,0.0,0.0,0.0,0.0,0.0,0.0,0.0,0.0,0.0,0.0,0.0,0.0,0.0,0.0,0.0,0.0,0.0,0.0,0.0,0.0,0.0,0.0,0.0,0.0,0.0,0.0,-3.3644,-3.4686,-3.5683,-3.6522,-3.5543,-3.4389,0.0,0.0,0.0,0.0,0.0,0.0,0.0,0.0,0.0,0.0,0.0,0.0,0.0,0.0,0.0,0.0,0.0,0.0,0.0,0.0,0.0,0.0,0.0,0.0,0.0,0.0,0.0,0.0,0.0,0.0,0.0,0.0,0.0,0.0,0.0,0.0,0.0,0.0,0.0,0.0,0.0,0.0,0.0,0.0,0.0,0.0,0.0,0.0,0.0,0.0,0.0,0.0,0.0,0.0,0.0,0.0,0.0,0.0,0.0,0.0,0.0,0.0,0.0,0.0,0.0,0.0,0.0,0.0,0.0,0.0,0.0,0.0,0.0,0.0,0.0,0.0,0.0,0.0,0.0,0.0,0.0,0.0,0.0,0.0,0.0,0.0,0.0,0.0,0.0,0.0,0.0,0.0,0.0,0.0,0.0,0.0,0.0,0.0,0.0,0.0,0.0,0.0,0.0,0.0,0.0,0.0,0.0,0.0,0.0,-3.3512,0.0,-3.5963,-3.6487,-3.5413,-3.426,0.0,0.0,0.0,0.0,0.0,0.0,0.0,0.0,0.0,0.0,0.0,0.0,0.0,0.0,0.0,0.0,0.0,0.0,0.0,0.0,0.0,0.0,0.0,0.0,0.0,0.0,0.0,0.0,0.0,0.0,0.0,0.0,0.0,0.0,0.0,0.0,0.0,0.0,0.0,0.0,0.0,0.0,0.0,0.0,0.0,0.0,0.0,0.0,0.0,0.0,0.0,0.0,0.0,0.0,0.0,0.0,0.0,0.0,0.0,0.0,0.0,0.0,0.0,0.0,0.0,0.0,0.0,0.0,0.0,0.0,0.0,0.0,0.0,0.0,0.0,0.0,0.0,0.0,0.0,0.0,0.0,0.0,0.0,0.0,0.0,0.0,0.0,0.0,0.0,0.0,0.0,0.0,0.0,0.0,0.0,0.0,0.0,0.0,0.0,0.0,0.0,0.0,0.0,0.0,0.0,0.0,0.0,0.0,-3.3372,-3.4218,-3.5185,-3.5717,-3.5626,-3.559,-3.4798,0.0,0.0,0.0,0.0,0.0,0.0,0.0,0.0,0.0,0.0,0.0,0.0,0.0,0.0,0.0,0.0,0.0,0.0,0.0,0.0,0.0,0.0,0.0,0.0,0.0,0.0,0.0,0.0,0.0,0.0,0.0,0.0,0.0,0.0,0.0,0.0,0.0,0.0,0.0,0.0,0.0,0.0,0.0,0.0,0.0,0.0,0.0,0.0,0.0,0.0,0.0,0.0,0.0,0.0,0.0,0.0,0.0,0.0,0.0,0.0,0.0,0.0,0.0,0.0,0.0,0.0,0.0,0.0,0.0,0.0,0.0,0.0,0.0,0.0,0.0,0.0,0.0,0.0,0.0,0.0,0.0,0.0,0.0,0.0,0.0,0.0,0.0,0.0,0.0,0.0,0.0,0.0,0.0,0.0,0.0,0.0,0.0,0.0,0.0,0.0,0.0,0.0,0.0,0.0,0.0,0.0,0.0,0.0,0.0,-3.5905,-3.6799,-3.6979,-3.6382,-3.5811,-3.4738,0.0,0.0,0.0,0.0,0.0,0.0,0.0,0.0,0.0,0.0,0.0,0.0,0.0,0.0,0.0,0.0,0.0,0.0,0.0,0.0,0.0,0.0,0.0,0.0,0.0,0.0,0.0,0.0,0.0,0.0,0.0,0.0,0.0,0.0,0.0,0.0,0.0,0.0,0.0,0.0,0.0,0.0,0.0,0.0,0.0,0.0,0.0,0.0,0.0,0.0,0.0,0.0,0.0,0.0,0.0,0.0,0.0,0.0,0.0,0.0,0.0,0.0,0.0,0.0,0.0,0.0,0.0,0.0,0.0,0.0,0.0,0.0,0.0,0.0,0.0,0.0,0.0,0.0,0.0,0.0,0.0,0.0,0.0,0.0,0.0,0.0,0.0,0.0,0.0,0.0,0.0,0.0,0.0,0.0,0.0,0.0,0.0,0.0,0.0,0.0,0.0,0.0,0.0,0.0,0.0,0.0,0.0,0.0,0.0,-3.792,-3.8282,-3.8197,-3.7632,-3.6858,-3.5468,-3.3468,0.0,0.0,0.0,0.0,0.0,0.0,0.0,0.0,0.0,0.0,0.0,0.0,0.0,0.0,0.0,0.0,0.0,0.0,0.0,0.0,0.0,0.0,0.0,0.0,0.0,0.0,0.0,0.0,0.0,0.0,0.0,0.0,0.0,0.0,0.0,0.0,0.0,0.0,0.0,0.0,0.0,0.0,0.0,0.0,0.0,0.0,0.0,0.0,0.0,0.0,0.0,0.0,0.0,0.0,0.0,0.0,0.0,0.0,0.0,0.0,0.0,0.0,0.0,0.0,0.0,0.0,0.0,0.0,0.0,0.0,0.0,0.0,0.0,0.0,0.0,0.0,0.0,0.0,0.0,0.0,0.0,0.0,0.0,0.0,0.0,0.0,0.0,0.0,0.0,0.0,0.0,0.0,0.0,0.0,0.0,0.0,0.0,0.0,0.0,0.0,0.0,0.0,0.0,0.0,0.0,0.0,0.0,0.0,-4.0196,-3.9759,-3.9471,-3.9306,-3.8489,-3.6846,0.0,0.0,0.0,0.0,0.0,0.0,0.0,0.0,0.0,0.0,0.0,0.0,0.0,0.0,0.0,0.0,0.0,0.0,0.0,0.0,0.0,0.0,0.0,0.0,0.0,0.0,0.0,0.0,0.0,0.0,0.0,0.0,0.0,0.0,0.0,0.0,0.0,0.0,0.0,0.0,0.0,0.0,0.0,0.0,0.0,0.0,0.0,0.0,0.0,0.0,0.0,0.0,0.0,0.0,0.0,0.0,0.0,0.0,0.0,0.0,0.0,0.0,0.0,0.0,0.0,0.0,0.0,0.0,0.0,0.0,0.0,0.0,0.0,0.0,0.0,0.0,0.0,0.0,0.0,0.0,0.0,0.0,0.0,0.0,0.0,0.0,0.0,0.0,0.0,0.0,0.0,0.0,0.0,0.0,0.0,0.0,0.0,0.0,0.0,0.0,0.0,0.0,0.0,0.0,0.0,0.0,0.0,0.0,0.0,-4.0624,-4.2424,-4.2555,-4.0941,-3.9493,-3.7247,0.0,0.0,0.0,0.0,0.0,0.0,0.0,0.0,0.0,0.0,0.0,0.0,0.0,0.0,0.0,0.0,0.0,0.0,0.0,0.0,0.0,0.0,0.0,0.0,0.0,0.0,0.0,0.0,0.0,0.0,0.0,0.0,0.0,0.0,0.0,0.0,0.0,0.0,0.0,0.0,0.0,0.0,0.0,0.0,0.0,0.0,0.0,0.0,0.0,0.0,0.0,0.0,0.0,0.0,0.0,0.0,0.0,0.0,0.0,0.0,0.0,0.0,0.0,0.0,0.0,0.0,0.0,0.0,0.0,0.0,0.0,0.0,0.0,0.0,0.0,0.0,0.0,0.0,0.0,0.0,0.0,0.0,0.0,0.0,0.0,0.0,0.0,0.0,0.0,0.0,0.0,0.0,0.0,0.0,0.0,0.0,0.0,0.0,0.0,0.0,0.0,0.0,0.0,0.0,0.0,0.0,0.0,0.0,-3.8498,-4.1769,-4.3901,-4.4395,-4.3182,-4.1096,-3.8392,0.0,0.0,0.0,0.0,0.0,0.0,0.0,0.0,0.0,0.0,0.0,0.0,0.0,0.0,0.0,0.0,0.0,0.0,0.0,0.0,0.0,0.0,0.0,0.0,0.0,0.0,0.0,0.0,0.0,0.0,0.0,0.0,0.0,0.0,0.0,0.0,0.0,0.0,0.0,0.0,0.0,0.0,0.0,0.0,0.0,0.0,0.0,0.0,0.0,0.0,0.0,0.0,0.0,0.0,0.0,0.0,0.0,0.0,0.0,0.0,0.0,0.0,0.0,0.0,0.0,0.0,0.0,0.0,0.0,0.0,0.0,0.0,0.0,0.0,0.0,0.0,0.0,0.0,0.0,0.0,0.0,0.0,0.0,0.0,0.0,0.0,0.0,0.0,0.0,0.0,0.0,0.0,0.0,0.0,0.0,0.0,0.0,0.0,0.0,0.0,0.0,0.0,0.0,0.0,0.0,0.0,0.0,0.0,-3.965,-4.2842,-4.4475,-4.5264,-4.5192,-4.2642,-3.9666,0.0,0.0,0.0,0.0,0.0,0.0,0.0,0.0,0.0,0.0,0.0,0.0,0.0,0.0,0.0,0.0,0.0,0.0,0.0,0.0,0.0,0.0,0.0,0.0,0.0,0.0,0.0,0.0,0.0,0.0,0.0,0.0,0.0,0.0,0.0,0.0,0.0,0.0,0.0,0.0,0.0,0.0,0.0,0.0,0.0,0.0,0.0,0.0,0.0,0.0,0.0,0.0,0.0,0.0,0.0,0.0,0.0,0.0,0.0,0.0,0.0,0.0,0.0,0.0,0.0,0.0,0.0,0.0,0.0,0.0,0.0,0.0,0.0,0.0,0.0,0.0,0.0,0.0,0.0,0.0,0.0,0.0,0.0,0.0,0.0,0.0,0.0,0.0,0.0,0.0,0.0,0.0,0.0,0.0,0.0,0.0,0.0,0.0,0.0,0.0,0.0,0.0,0.0,0.0,0.0,0.0,0.0,0.0,-3.9091,-4.1652,-4.3945,-4.4848,-4.4233,-4.201,-3.9248,0.0,0.0,0.0,0.0,0.0,0.0,0.0,0.0,0.0,0.0,0.0,0.0,0.0,0.0,0.0,0.0,0.0,0.0,0.0,0.0,0.0,0.0,0.0,0.0,0.0,0.0,0.0,0.0,0.0,0.0,0.0,0.0,0.0,0.0,0.0,0.0,0.0,0.0,0.0,0.0,0.0,0.0,0.0,0.0,0.0,0.0,0.0,0.0,-2.902,0.0,0.0,0.0,0.0,0.0,0.0,0.0,0.0,0.0,0.0,0.0,0.0,0.0,0.0,0.0,0.0,0.0,0.0,0.0,0.0,0.0,0.0,0.0,0.0,0.0,0.0,0.0,0.0,0.0,0.0,0.0,0.0,0.0,0.0,0.0,0.0,0.0,0.0,0.0,0.0,0.0,0.0,0.0,0.0,0.0,0.0,0.0,0.0,0.0,0.0,0.0,0.0,0.0,0.0,0.0,0.0,0.0,0.0,0.0,-3.9434,-4.1783,-4.3847,-4.4529,-4.366,-4.1534,-3.8894,0.0,0.0,0.0,0.0,0.0,0.0,0.0,0.0,0.0,0.0,0.0,0.0,0.0,0.0,0.0,0.0,0.0,0.0,0.0,0.0,0.0,0.0,0.0,0.0,0.0,0.0,0.0,0.0,0.0,0.0,0.0,0.0,0.0,0.0,0.0,0.0,0.0,0.0,0.0,0.0,0.0,0.0,0.0,0.0,0.0,0.0,0.0,0.0,0.0,0.0,0.0,0.0,0.0,0.0,0.0,0.0,0.0,0.0,0.0,0.0,0.0,0.0,0.0,0.0,0.0,0.0,0.0,0.0,0.0,0.0,0.0,0.0,0.0,0.0,0.0,0.0,0.0,0.0,0.0,0.0,0.0,0.0,0.0,0.0,0.0,0.0,0.0,0.0,0.0,0.0,0.0,0.0,0.0,0.0,0.0,0.0,0.0,0.0,0.0,0.0,0.0,0.0,0.0,0.0,0.0,0.0,0.0,-3.7135,-3.9868,-4.2149,-4.3717,-4.4066,-4.313,-4.0956,-3.8364,-3.5343,0.0,0.0,0.0,0.0,0.0,0.0,0.0,0.0,0.0,0.0,0.0,0.0,0.0,0.0,0.0,0.0,0.0,0.0,0.0,0.0,0.0,0.0,0.0,0.0,0.0,0.0,0.0,0.0,0.0,0.0,0.0,0.0,0.0,0.0,0.0,0.0,0.0,0.0,-3.2502,-3.3102,0.0,0.0,0.0,0.0,0.0,0.0,0.0,0.0,-3.0177,0.0,0.0,0.0,0.0,0.0,0.0,0.0,0.0,0.0,0.0,0.0,0.0,0.0,0.0,0.0,0.0,0.0,0.0,0.0,0.0,0.0,0.0,0.0,0.0,0.0,0.0,0.0,0.0,0.0,0.0,0.0,0.0,0.0,0.0,0.0,0.0,0.0,0.0,0.0,0.0,0.0,0.0,0.0,0.0,0.0,0.0,0.0,0.0,0.0,0.0,0.0,0.0,0.0,0.0,0.0,0.0,-3.3815,-3.7066,-3.9549,-4.1293,-4.2873,-4.3002,-4.1534,-3.9808,-3.7393,-3.4249,0.0,0.0,0.0,0.0,0.0,0.0,0.0,0.0,0.0,0.0,0.0,0.0,0.0,0.0,0.0,0.0,0.0,0.0,0.0,0.0,0.0,0.0,0.0,0.0,0.0,0.0,0.0,0.0,0.0,0.0,0.0,0.0,0.0,0.0,0.0,0.0,0.0,0.0,0.0,-3.3151,-3.315,0.0,0.0,0.0,0.0,0.0,0.0,0.0,0.0,-3.0754,0.0,0.0,0.0,0.0,0.0,0.0,0.0,0.0,0.0,0.0,0.0,0.0,0.0,0.0,0.0,0.0,0.0,0.0,0.0,0.0,0.0,0.0,0.0,0.0,0.0,0.0,0.0,0.0,0.0,0.0,0.0,0.0,0.0,0.0,0.0,0.0,0.0,0.0,0.0,0.0,0.0,0.0,0.0,0.0,0.0,0.0,0.0,0.0,0.0,0.0,0.0,0.0,0.0,0.0,0.0,-3.388,-3.7037,-3.9496,-4.1058,-4.2249,-4.2086,-4.0476,-3.8865,-3.6465,0.0,0.0,0.0,0.0,0.0,0.0,0.0,0.0,0.0,0.0,0.0,0.0,0.0,0.0,0.0,0.0,0.0,0.0,0.0,0.0,0.0,0.0,0.0,0.0,0.0,0.0,0.0,0.0,0.0,0.0,0.0,0.0,0.0,0.0,0.0,0.0,0.0,0.0,0.0,0.0,-3.2959,-3.2864,-3.282,0.0,0.0,0.0,0.0,0.0,0.0,-3.1402,-3.1258,0.0,0.0,0.0,0.0,0.0,0.0,0.0,0.0,0.0,0.0,0.0,0.0,0.0,0.0,0.0,0.0,0.0,0.0,0.0,0.0,0.0,0.0,0.0,0.0,0.0,0.0,0.0,0.0,0.0,0.0,0.0,0.0,0.0,0.0,0.0,0.0,0.0,0.0,0.0,0.0,0.0,0.0,0.0,0.0,0.0,0.0,0.0,0.0,0.0,0.0,0.0,0.0,0.0,0.0,0.0,-3.3776,-3.6798,-3.9145,-4.0667,-4.1379,-4.0996,-3.9504,-3.775,-3.5433,0.0,0.0,0.0,0.0,0.0,0.0,0.0,0.0,0.0,0.0,0.0,0.0,0.0,0.0,0.0,0.0,0.0,0.0,0.0,0.0,0.0,0.0,0.0,0.0,0.0,0.0,0.0,0.0,0.0,0.0,0.0,0.0,0.0,0.0,0.0,0.0,0.0,0.0,0.0,0.0,0.0,-3.2588,-3.2505,-3.269,0.0,0.0,0.0,0.0,-3.2133,-3.2,0.0,0.0,0.0,0.0,0.0,0.0,0.0,0.0,0.0,0.0,0.0,0.0,0.0,0.0,0.0,0.0,0.0,0.0,0.0,0.0,0.0,0.0,0.0,0.0,0.0,0.0,0.0,0.0,0.0,0.0,0.0,0.0,0.0,0.0,0.0,0.0,0.0,0.0,0.0,0.0,0.0,0.0,0.0,0.0,0.0,0.0,0.0,0.0,0.0,0.0,0.0,0.0,0.0,0.0,0.0,0.0,-3.3553,-3.6009,-3.7996,-3.9419,-3.9654,-3.9291,-3.8401,-3.6131,-3.4094,0.0,0.0,0.0,0.0,0.0,0.0,0.0,0.0,0.0,0.0,0.0,0.0,0.0,0.0,0.0,0.0,0.0,0.0,0.0,0.0,0.0,0.0,0.0,0.0,0.0,0.0,0.0,0.0,0.0,0.0,0.0,0.0,0.0,0.0,0.0,0.0,0.0,0.0,0.0,0.0,0.0,-3.2249,-3.2249,-3.2318,-3.2455,0.0,0.0,-3.262,-3.2514,-3.2514,0.0,0.0,0.0,0.0,0.0,0.0,0.0,0.0,0.0,0.0,0.0,0.0,0.0,0.0,0.0,0.0,0.0,0.0,0.0,0.0,0.0,0.0,0.0,0.0,0.0,0.0,0.0,0.0,0.0,0.0,0.0,0.0,0.0,0.0,0.0,0.0,0.0,0.0,0.0,0.0,0.0,0.0,0.0,0.0,0.0,0.0,0.0,0.0,0.0,0.0,0.0,0.0,0.0,0.0,0.0,-3.1592,-3.2741,-3.501,-3.6732,-3.7783,-3.7855,-3.7442,-3.6583,-3.4688,-3.291,0.0,0.0,0.0,0.0,0.0,0.0,0.0,0.0,0.0,0.0,0.0,0.0,0.0,0.0,0.0,0.0,0.0,0.0,0.0,0.0,0.0,0.0,0.0,0.0,0.0,0.0,0.0,0.0,0.0,0.0,0.0,0.0,0.0,0.0,0.0,0.0,0.0,0.0,0.0,0.0,0.0,0.0,-3.2037,-3.2073,0.0,0.0,0.0,-3.2318,-3.2301,0.0,0.0,0.0,0.0,0.0,0.0,0.0,0.0,0.0,0.0,0.0,0.0,0.0,0.0,0.0,0.0,0.0,0.0,0.0,0.0,0.0,0.0,0.0,0.0,0.0,0.0,0.0,0.0,0.0,0.0,0.0,0.0,0.0,0.0,0.0,0.0,0.0,0.0,0.0,0.0,0.0,0.0,0.0,0.0,0.0,0.0,0.0,0.0,0.0,0.0,0.0,0.0,0.0,0.0,0.0,0.0,0.0,-3.187,-3.3743,-3.5162,-3.6058,-3.5933,-3.5417,-3.4514,-3.3032,0.0,0.0,0.0,0.0,0.0,0.0,0.0,0.0,0.0,0.0,0.0,0.0,0.0,0.0,0.0,0.0,0.0,0.0,0.0,0.0,0.0,0.0,0.0,0.0,0.0,0.0,0.0,-2.8012,0.0,0.0,0.0,0.0,0.0,0.0,0.0,0.0,0.0,0.0,0.0,0.0,0.0,0.0,-3.1802,-3.1802,-3.1802,-3.1874,0.0,0.0,-3.1983,-3.1966,-3.1983,-3.2002,0.0,0.0,0.0,0.0,0.0,0.0,0.0,0.0,0.0,0.0,0.0,0.0,0.0,0.0,0.0,0.0,0.0,0.0,0.0,0.0,0.0,0.0,0.0,0.0,0.0,0.0,0.0,0.0,0.0,0.0,0.0,0.0,0.0,0.0,0.0,0.0,0.0,0.0,0.0,0.0,0.0,0.0,0.0,0.0,0.0,0.0,0.0,0.0,0.0,0.0,0.0,0.0,0.0,0.0,0.0,-3.1242,-3.2156,-3.3248,-3.4486,-3.3804,-3.307,-3.2301,-3.0884,-2.9774,0.0,0.0,0.0,0.0,0.0,0.0,0.0,0.0,0.0,0.0,0.0,0.0,0.0,0.0,0.0,0.0,0.0,0.0,0.0,0.0,0.0,0.0,0.0,0.0,0.0,0.0,0.0,0.0,0.0,0.0,0.0,0.0,0.0,0.0,0.0,0.0,0.0,0.0,0.0,0.0,0.0,-3.1519,-3.1519,-3.1536,-3.1557,0.0,0.0,-3.1635,-3.1635,-3.1635,-3.169,-3.1818,0.0,0.0,0.0,0.0,0.0,0.0,0.0,0.0,0.0,0.0,0.0,0.0,0.0,0.0,0.0,0.0,0.0,0.0,0.0,0.0,0.0,0.0,0.0,0.0,0.0,0.0,0.0,0.0,0.0,0.0,0.0,0.0,0.0,0.0,0.0,0.0,0.0,0.0,0.0,0.0,0.0,0.0,0.0,0.0,0.0,0.0,0.0,0.0,0.0,0.0,0.0,0.0,0.0,-2.8984,-2.9546,-3.0733,-3.1602,-3.2102,-3.2275,-3.1963,-3.113,-3.0162,-2.9295,0.0,0.0,0.0,0.0,0.0,0.0,0.0,0.0,0.0,0.0,0.0,0.0,0.0,0.0,0.0,0.0,0.0,0.0,0.0,0.0,0.0,0.0,0.0,0.0,0.0,0.0,0.0,0.0,-2.911,-2.9417,-2.9789,0.0,0.0,0.0,0.0,0.0,0.0,0.0,0.0,0.0,0.0,-3.1406,-3.1498,-3.1443,0.0,0.0,-3.1466,-3.1428,-3.1411,-3.1411,-3.1447,-3.1485,-3.0659,0.0,0.0,0.0,0.0,0.0,0.0,0.0,0.0,0.0,0.0,0.0,0.0,0.0,0.0,0.0,0.0,0.0,0.0,0.0,0.0,0.0,0.0,0.0,0.0,0.0,0.0,0.0,0.0,0.0,0.0,0.0,0.0,0.0,0.0,0.0,0.0,0.0,0.0,0.0,0.0,0.0,0.0,0.0,0.0,0.0,0.0,0.0,0.0,0.0,0.0,0.0,0.0,-2.8094,-2.8252,-2.954,-3.0276,-3.0464,-3.1013,-3.0892,-3.0085,-2.9402,-2.8682,0.0,0.0,0.0,0.0,0.0,0.0,0.0,0.0,0.0,0.0,0.0,0.0,0.0,0.0,0.0,0.0,0.0,0.0,0.0,0.0,0.0,0.0,0.0,0.0,0.0,0.0,0.0,0.0,-2.9632,-2.9989,-3.0442,0.0,0.0,0.0,0.0,0.0,0.0,0.0,0.0,0.0,0.0,-3.131,-3.1385,-3.1346,-3.131,-3.1385,-3.1329,-3.1274,-3.1274,-3.1274,-3.1274,-3.1257,0.0,0.0,0.0,0.0,0.0,0.0,0.0,0.0,0.0,0.0,0.0,0.0,0.0,0.0,0.0,0.0,0.0,0.0,0.0,0.0,0.0,0.0,0.0,0.0,0.0,0.0,0.0,0.0,0.0,0.0,-2.601,0.0,0.0,0.0,0.0,0.0,0.0,0.0,0.0,0.0,0.0,0.0,0.0,0.0,0.0,0.0,0.0,0.0,0.0,0.0,0.0,0.0,0.0,-2.7182,-2.7719,-2.8568,-2.9311,-2.9875,-3.007,-2.9788,-2.9027,-2.837,-2.7675,-2.6977,0.0,0.0,0.0,0.0,0.0,0.0,0.0,0.0,0.0,0.0,0.0,0.0,0.0,0.0,0.0,0.0,0.0,0.0,0.0,0.0,0.0,0.0,0.0,0.0,0.0,0.0,-2.9854,-3.0608,-3.1092,0.0,0.0,0.0,0.0,0.0,0.0,0.0,0.0,0.0,0.0,-3.1193,-3.121,-3.121,-3.1227,-3.121,-3.121,-3.121,-3.119,-3.121,-3.121,-3.119,0.0,0.0,0.0,0.0,0.0,0.0,0.0,0.0,0.0,0.0,0.0,0.0,0.0,0.0,0.0,0.0,0.0,0.0,0.0,0.0,0.0,0.0,0.0,0.0,0.0,0.0,0.0,-2.5521,-2.5246,0.0,0.0,0.0,0.0,0.0,0.0,0.0,0.0,0.0,0.0,0.0,-2.6502,-2.655,0.0,0.0,0.0,0.0,0.0,0.0,0.0,0.0,0.0,0.0,0.0,0.0,-2.6586,-2.6731,-2.752,-2.8042,-2.8256,-2.8762,-2.8697,-2.796,-2.7672,-2.7204,-2.6468,0.0,0.0,0.0,0.0,0.0,0.0,0.0,0.0,0.0,0.0,0.0,0.0,0.0,0.0,0.0,0.0,0.0,0.0,0.0,0.0,0.0,0.0,0.0,0.0,0.0,-3.0109,0.0,0.0,0.0,0.0,0.0,0.0,0.0,0.0,0.0,0.0,0.0,-3.1052,-3.1012,-3.1012,-3.0995,-3.1055,-3.1072,-3.1112,0.0,0.0,0.0,0.0,0.0,0.0,0.0,0.0,0.0,0.0,0.0,0.0,0.0,0.0,-2.899,-2.8292,-2.8197,-2.8103,-2.7749,0.0,0.0,0.0,0.0,0.0,0.0,0.0,0.0,0.0,0.0,0.0,0.0,0.0,0.0,-2.5549,0.0,-2.5064,0.0,0.0,0.0,0.0,0.0,0.0,0.0,0.0,-2.5883,-2.6237,-2.6718,-2.6763,-2.6531,0.0,-2.5841,-2.5708,0.0,0.0,0.0,0.0,0.0,0.0,0.0,0.0,-2.601,-2.5952,-2.6735,-2.7154,-2.7191,-2.7694,-2.7746,-2.7282,-2.696,-2.6541,-2.6008,-2.5992,-2.5974,0.0,0.0,0.0,0.0,0.0,0.0,0.0,0.0,0.0,0.0,0.0,0.0,0.0,0.0,0.0,0.0,0.0,0.0,0.0,0.0,0.0,0.0,0.0,-3.0125,0.0,0.0,0.0,0.0,0.0,0.0,0.0,0.0,0.0,-3.0794,-3.0834,-3.0814,-3.0753,-3.081,-3.0834,-3.0895,0.0,0.0,0.0,0.0,0.0,0.0,0.0,-3.1664,-3.1918,-3.1952,-3.1952,-3.1968,-3.1968,-3.1816,-3.1343,0.0,0.0,-2.8922,-2.8664,-2.8577,-2.8143,-2.8485,-2.8863,-2.888,-2.9279,-2.9625,0.0,0.0,0.0,0.0,0.0,0.0,0.0,0.0,-2.635,-2.5966,0.0,-2.5382,0.0,0.0,0.0,0.0,0.0,-2.457,0.0,0.0,-2.59,-2.6443,-2.6994,-2.7089,-2.7122,-2.7015,-2.5884,-2.5355,-2.5391,-2.5488,0.0,0.0,0.0,0.0,0.0,0.0,-2.5511,-2.5413,-2.6209,-2.6665,-2.6743,-2.6858,-2.6915,-2.6899,-2.6223,-2.5768,-2.5586,-2.5567,-2.5511,-2.5397,-2.5511,0.0,0.0,0.0,0.0,0.0,0.0,0.0,0.0,0.0,0.0,0.0,0.0,0.0,0.0,0.0,0.0,0.0,0.0,0.0,0.0,-2.91,0.0,0.0,0.0,0.0,0.0,0.0,0.0,0.0,0.0,0.0,-3.0384,-3.0464,-3.0468,-3.0468,0.0,0.0,0.0,0.0,-3.0992,-3.0995,-3.1128,-3.1478,-3.2154,-3.231,-3.2544,-3.3271,0.0,0.0,-3.3453,-3.347,-3.3457,-3.3402,-3.278,-3.167,-2.961,-2.9204,-2.9138,-2.9212,-2.9264,-2.9368,-2.9489,-2.9592,-2.9661,-2.9472,0.0,0.0,0.0,0.0,-2.7755,-2.7384,-2.6548,-2.7031,-2.6641,-2.5652,-2.5675,0.0,0.0,0.0,0.0,0.0,0.0,-2.5436,-2.6349,-2.6522,-2.6904,-2.7415,-2.744,-2.7184,-2.6727,-2.5991,-2.5409,-2.4969,-2.4673,-2.4719,-2.5095,0.0,0.0,0.0,0.0,-2.5056,-2.5005,-2.5262,-2.5476,-2.5589,-2.5534,-2.5421,-2.5294,-2.5084,-2.4934,-2.4875,-2.489,-2.4914,-2.4954,-2.5036,0.0,0.0,0.0,0.0,0.0,0.0,0.0,0.0,0.0,0.0,0.0,0.0,0.0,0.0,0.0,0.0,0.0,0.0,0.0,-2.7928,-2.8347,-2.8622,0.0,0.0,0.0,0.0,0.0,0.0,0.0,0.0,0.0,-2.9241,-2.9667,-2.9941,0.0,0.0,-2.9984,-3.0177,-3.0321,-3.0489,-3.0753,-3.1266,0.0,-3.2117,-3.2588,-3.3026,-3.3229,-3.3648,-3.418,-3.4796,-3.4919,-3.4756,-3.4247,-3.3592,-3.2716,-3.1619,-3.0501,-2.969,-2.9253,-2.9491,-2.9864,-2.9934,-3.0326,-3.07,-3.1145,-2.9781,-2.8775,-2.8207,-2.803,-2.8495,-2.824,-2.7513,-2.8044,-2.7609,-2.6432,-2.6504,-2.6072,-2.5281,-2.5303,0.0,0.0,0.0,-2.5802,-2.6738,-2.6723,-2.703,-2.757,-2.7585,-2.739,-2.6986,-2.639,-2.5768,-2.5122,-2.4623,-2.4401,-2.4492,0.0,0.0,-2.4599,-2.4599,-2.4558,-2.4517,-2.4578,-2.4623,-2.4775,-2.4715,-2.4614,-2.4487,-2.4487,-2.4451,-2.439,-2.439,-2.4431,-2.4517,-2.4558,-2.4639,0.0,0.0,0.0,0.0,0.0,0.0,0.0,0.0,0.0,0.0,0.0,-2.5378,-2.5378,0.0,0.0,0.0,-2.5937,-2.6798,-2.7715,-2.8014,0.0,0.0,0.0,0.0,0.0,0.0,0.0,-2.9051,-2.892,-2.8732,-2.8527,-2.8904,-2.9205,-2.9266,-2.9403,-2.9544,-2.97,0.0,-3.0108,-3.0321,-3.0849,-3.1357,-3.1804,-3.2269,-3.2637,-3.2954,-3.3372,-3.3863,-3.4432,-3.4555,-3.4409,-3.4047,-3.3385,-3.2727,-3.2296,-3.1249,-3.0372,-2.9973,-3.0226,-3.0514,-3.0531,-3.0903,-3.119,-3.2288,-3.1593,-3.017,-2.9289,-2.8871,-2.897,-2.8997,-2.8923,-2.9217,-2.8687,-2.7513,-2.7578,-2.6882,-2.5642,-2.5606,0.0,-2.5651,-2.5666,-2.6033,-2.6662,-2.6677,-2.7001,-2.7585,-2.7585,-2.7585,-2.7585,-2.6941,-2.6243,-2.5585,-2.5047,-2.4431,-2.3812,-2.4139,-2.4254,-2.4155,-2.4155,-2.4155,-2.4155,-2.417,-2.4202,-2.4261,-2.4261,-2.4261,-2.424,-2.424,-2.4183,-2.4042,-2.4042,-2.4057,-2.4078,-2.4078,-2.412,-2.4261,0.0,0.0,0.0,0.0,0.0,0.0,0.0,0.0,0.0,0.0,0.0,0.0,0.0,0.0,0.0,-2.5676,0.0,-2.7218,-2.7909,0.0,0.0,0.0,-2.8814,-2.8288,-2.8596,-2.8803,-2.8661,0.0,0.0,-2.8162,-2.8162,-2.8317,-2.874,-2.9036,-2.9198,-2.9236,-2.9477,-2.9705,-2.975,-3.006,-3.057,-3.1325,-3.161,-3.1957,-3.2558,-3.2746,-3.2879,-3.3066,-3.3088,-3.312,-3.3256,-3.2559,-3.1997,-3.2068,-3.1446,-3.1035,-3.1083,-3.114,-3.1173,-3.114,-3.1173,-3.119,-3.1446,-3.0856,-3.0492,-3.0616,-3.1054,-3.1057,-3.0621,-2.988,-2.9955,-2.9363,-2.8312,-2.7871,-2.7015,-2.5894,-2.5586,-2.5717,-2.6208,-2.6314,-2.6707,-2.7345,-2.736,-2.745,-2.7585,-2.7585,-2.7585,-2.7555,-2.6941,-2.6258,-2.56,-2.4956,-2.432,-2.3713,-2.4243,-2.4565,-2.4647,-2.4647,-2.4647,-2.4625,-2.4647,-2.4411,-2.394,-2.3925,-2.3867,-2.3767,-2.3782,-2.3745,-2.3739,-2.3724,-2.3782,-2.3882,-2.3867,-2.3909,-2.4067,-2.3967,0.0,0.0,0.0,0.0,0.0,0.0,0.0,0.0,0.0,-2.438,-2.4364,0.0,-2.4559,0.0,-2.6024,-2.6797,-2.7035,-2.7595,0.0,0.0,-2.8297,-2.8415,-2.8356,-2.8369,-2.8332,-2.8201,-2.8029,-2.789,-2.775,-2.7825,-2.794,-2.8048,-2.8293,-2.8486,-2.8597,-2.8732,-2.8935,-2.9259,-2.9779,-3.0401,-3.0904,-3.156,-3.1926,-3.2279,-3.2164,-3.2187,-3.25,-3.2562,-3.2629,-3.2752,-3.223,-3.1803,-3.1816,-3.1353,-3.0986,-3.1032,-3.1131,-3.119,-3.119,-3.119,-3.119,-3.1085,-3.0771,-3.0771,-3.103,-3.1432,-3.1189,-3.0731,-3.0233,-3.027,-2.9803,-2.8909,-2.8211,-2.7429,-2.6634,-2.6411,-2.6436,-2.6665,-2.6751,-2.7045,-2.7499,-2.7514,-2.7549,-2.7585,-2.7585,-2.7585,-2.7585,-2.7225,-2.6716,-2.6048,-2.5674,-2.5128,-2.4522,-2.4859,-2.5234,-2.5588,-2.5318,-2.5167,-2.5167,-2.4845,-2.4387,-2.3747,-2.3696,-2.3674,-2.3595,-2.3595,-2.3595,-2.3595,-2.3595,-2.3638,-2.3717,-2.3717,-2.3739,-2.3818,-2.376,-2.3696,0.0,0.0,0.0,0.0,0.0,0.0,0.0,0.0,0.0,0.0,0.0,-2.5136,-2.572,-2.6359,-2.6868,-2.7242,-2.754,-2.779,-2.8014,-2.8014,-2.8063,-2.8201,-2.8088,-2.7989,-2.793,-2.779,-2.7675,-2.764,-2.769,-2.77,-2.7715,-2.7825,-2.8014,-2.8217,-2.8293,-2.8446,-2.8677,-2.9116,-2.9564,-2.9883,-3.0249,-3.0583,-3.0676,-3.0653,-3.0723,-3.1083,-3.1144,-3.1189,-3.1319,-3.1046,-3.0767,-3.094,-3.0845,-3.0675,-3.0855,-3.1012,-3.1131,-3.119,-3.119,-3.119,-3.0849,-3.0849,-3.0836,-3.0849,-3.0796,-3.0365,-3.0188,-3.0219,-3.0276,-2.9831,-2.9066,-2.834,-2.7783,-2.7326,-2.7396,-2.7245,-2.6963,-2.7001,-2.714,-2.7299,-2.731,-2.7386,-2.7524,-2.7539,-2.7549,-2.7575,-2.7575,-2.723,-2.6602,-2.6602,-2.6258,-2.5621,-2.5666,-2.6019,-2.6542,-2.6093,-2.5824,-2.5719,-2.5068,-2.4462,-2.3879,-2.3774,-2.3729,-2.3729,-2.364,-2.3595,-2.3595,-2.3595,-2.3595,-2.3595,-2.3595,-2.3595,-2.3595,-2.3595,-2.3595,0.0,-2.3595,0.0,0.0,0.0,0.0,0.0,0.0,0.0,0.0,-2.5666,-2.5974,-2.6542,-2.6686,-2.6971,-2.754,-2.7585,-2.765,-2.7765,-2.7765,-2.7831,-2.793,-2.784,-2.7765,-2.7765,-2.7675,-2.7585,-2.7585,-2.7585,-2.7585,-2.7585,-2.7625,-2.77,-2.789,-2.8039,-2.8137,-2.8137,-2.8341,-2.8643,-2.8716,-2.87,-2.8779,-2.8881,-2.9014,-2.9097,-2.9489,-2.9473,-2.948,-2.9643,-2.9637,-2.9627,-2.9853,-3.0075,-3.0305,-3.0531,-3.0736,-3.0935,-3.1131,-3.119,-3.119,-3.0011,-3.0011,-3.0023,-3.0011,-3.0037,-3.01,-3.0175,-3.0258,-2.9864,-2.8859,-2.7556,-2.7659,-2.7362,-2.6889,-2.7333,-2.7243,-2.6763,-2.7164,-2.7081,-2.6683,-2.6788,-2.6933,-2.7107,-2.7133,-2.7222,-2.7412,-2.7437,-2.716,-2.6602,-2.6602,-2.6258,-2.5606,-2.6138,-2.6467,-2.6602,0.0,0.0,0.0,-2.5749,-2.5345,-2.5226,-2.4694,-2.441,-2.441,-2.3894,0.0,-2.3595,-2.3595,-2.3595,-2.3595,-2.3595,0.0,0.0,0.0,0.0,0.0,0.0,0.0,0.0,0.0,0.0,0.0,-2.6228,-2.6063,-2.5659,-2.6093,-2.6452,-2.6611,-2.7091,-2.7465,-2.7585,-2.7585,-2.76,-2.7625,-2.765,-2.7665,-2.7675,-2.765,-2.765,-2.7625,-2.7625,-2.7585,-2.7585,-2.7585,-2.7585,-2.7585,-2.7585,-2.7625,-2.7675,-2.77,-2.7765,-2.7865,-2.8097,-2.8284,-2.8293,-2.8293,-2.8341,-2.8453,-2.8405,-2.847,-2.8677,-2.8724,-2.8748,-2.8896,-2.8982,-2.9074,-2.9234,-2.9528,-2.9815,-3.0075,-3.0288,-3.0539,-3.0955,-3.1112,-3.119,-2.9779,0.0,-2.9779,-2.9779,0.0,-2.9895,-2.9834,-2.9606,-2.934,-2.8494,-2.7321,-2.747,-2.7267,-2.6814,-2.7124,-2.7059,-2.6707,-2.6634,-2.661,-2.6589,-2.6386,-2.6418,-2.6671,-2.6724,-2.687,-2.7078,-2.717,-2.7096,-2.6896,-2.6821,-2.6633,-2.6322,-2.6543,-2.6651,-2.6655,-2.699,-2.6954,-2.6602,-2.6258,-2.5944,-2.5591,-2.5262,-2.4933,-2.4619,-2.4276,0.0,0.0,0.0,0.0,0.0,0.0,0.0,0.0,-2.3595,0.0,-2.361,-2.3924,-2.4246,-2.459,-2.5202,-2.5884,-2.6527,-2.6911,-2.6956,-2.6602,-2.6886,-2.7106,-2.7121,-2.7405,-2.7585,-2.7585,-2.7585,-2.7585,-2.7585,-2.7585,-2.7585,-2.7585,-2.7585,-2.7585,-2.7585,-2.7585,-2.7585,-2.7585,-2.7585,-2.7585,-2.7585,-2.7585,-2.7585,-2.7585,-2.7585,-2.7625,-2.77,-2.78,-2.7885,-2.79,-2.79,-2.7949,-2.8039,-2.8054,-2.8113,-2.8301,-2.8317,-2.8293,-2.8446,-2.8518,-2.8605,-2.8732,-2.902,-2.9319,-2.9528,-2.9837,-3.0097,-3.0389,-3.0695,-3.0955,-2.9779,-2.9779,-2.9779,-2.9779,-2.9779,-2.9779,-2.9402,-2.875,0.0,0.0,0.0,-2.7369,-2.7163,-2.6895,-2.696,-2.6855,-2.6612,-2.619,-2.6151,-2.6396,-2.5994,-2.5895,-2.6055,-2.6176,-2.6365,-2.6551,-2.6738,-2.6884,-2.7037,-2.6922,-2.6884,-2.6858,-2.6724,-2.6657,-2.663,-2.6616,-2.6604,-2.656,-2.6579,-2.6351,-2.5806,-2.5697,-2.5399,-2.4848,-2.4633,-2.4268,-2.3761,-2.3648,-2.3588,-2.3595,-2.3595,-2.3633,-2.3731,-2.3731,-2.3769,-2.3903,-2.4403,-2.476,-2.4894,-2.5902,-2.6574,-2.6653,-2.7185,-2.7549,-2.76,-2.7585,-2.7585,-2.7585,-2.7585,-2.7585,-2.7585,-2.7585,-2.7585,-2.7585,-2.7585,-2.7585,-2.7585,-2.7585,-2.7585,-2.7585,-2.7585,-2.7585,-2.7585,-2.7585,-2.7585,-2.7585,-2.7585,-2.7585,-2.7585,-2.7585,-2.7585,-2.7625,-2.7635,-2.761,-2.7585,-2.7625,-2.765,-2.775,-2.779,-2.785,-2.8014,-2.8029,-2.8005,-2.8073,-2.8097,-2.8186,-2.8299,-2.8558,-2.8811,-2.8951,-2.928,-2.9572,-2.9661,-3.0032,-3.041,-2.9779,-2.9779,-2.9779,-2.9779,-2.9779,-2.9779,-2.9189,-2.8185,-2.7717,-2.7183,-2.6636,-2.676,-2.6778,-2.6722,-2.7072,-2.694,-2.6472,-2.6656,-2.625,-2.5342,-2.5424,-2.5349,-2.5188,-2.5188,-2.5508,-2.5961,-2.6029,-2.6177,-2.6404,-2.6404,-2.6404,-2.6377,-2.6377,-2.6365,-2.6377,-2.6351,-2.6347,-2.6354,-2.6579,-2.664,-2.6538,-2.6028,-2.5783,-2.5776,-2.4681,-2.4143,-2.4282,-2.38,-2.3538,-2.3595,-2.3538,-2.3747,-2.4238,-2.4169,-2.4374,-2.4911,-2.5059,-2.5353,-2.5909,-2.6169,-2.6459,-2.6902,-2.7137,-2.7346,-2.7575,-2.7585,-2.7585,-2.7585,-2.7585,-2.7585,-2.7585,-2.7585,-2.7585,-2.7585,-2.7585,-2.7585,-2.7585,-2.7585,-2.7585,-2.7585,-2.7585,-2.7585,-2.7585,-2.7585,-2.7585,-2.7585,-2.7585,-2.7585,-2.7585,-2.7585,-2.7585,-2.7585,-2.7585,-2.7585,-2.7585,-2.7585,-2.7625,-2.7625,-2.7625,-2.765,-2.7725,-2.7725,-2.77,-2.77,-2.78,-2.7865,-2.7915,-2.8113,-2.8317,-2.8501,-2.8661,-2.8756,-2.8873,-2.9189,-2.9572,-2.9779,-2.9779,-2.9779,-2.9779,-2.9767,-2.9453,-2.9026,-2.8449,-2.7657,-2.7014,-2.6524,-2.6555,-2.6589,-2.6589,-2.676,-2.6756,-2.6568,-2.6425,-2.6149,-2.5814,-2.5581,-2.5287,-2.4967,-2.5045,-2.5118,-2.53,-2.537,-2.555,-2.5797,-2.566,-2.5758,-2.6022,-2.6183,-2.6262,-2.6248,-2.596,-2.5809,-2.5824,-2.6252,-2.6484,-2.6469,-2.621,-2.5934,-2.5625,-2.5044,-2.4708,-2.4524,-2.4312,-2.4221,-2.4238,-2.4221,-2.4315,-2.4584,-2.4551,-2.4674,-2.4956,-2.5203,-2.5498,-2.5789,-2.6163,-2.6457,-2.6695,-2.6948,-2.7144,-2.7258,-2.7412,-2.7488,-2.7488,-2.7564,-2.7585,-2.7585,-2.7585,-2.7585,-2.7585,-2.7585,-2.7585,-2.7585,-2.7585,-2.7585,-2.7585,-2.7585,-2.7585,-2.7585,-2.7585,-2.7585,-2.7585,-2.7585,-2.7585,-2.7585,-2.7585,-2.7585,-2.7585,-2.7585,-2.7585,-2.7585,-2.7585,-2.7585,-2.7585,-2.7585,-2.7585,-2.7585,-2.7585,-2.7585,-2.7585,-2.7665,-2.7675,-2.7675,-2.7825,-2.7989,-2.8063,-2.8235,-2.835,-2.8446,-2.8622,-2.9074,-2.9779,-2.9779,-2.9779,-2.9779,-2.9754,-2.9315,-2.9013,-2.88,-2.8021,-2.7316,-2.6725,-2.6562,-2.6487,-2.6487,-2.6487,-2.6555,-2.6595,-2.6249,-2.6082,-2.6147,-2.5743,-2.5305,-2.4961,-2.494,-2.4879,-2.4762,-2.4773,-2.4946,-2.5239,-2.5067,-2.5262,-2.574,-2.6007,-2.6078,-2.6065,-2.5673,-2.5465,-2.5498,-2.5947,-2.6063,-2.5906,-2.5906,-2.568,-2.527,-2.5152,-2.5012,-2.4672,-2.4626,-2.4638,-2.4687,-2.4624,-2.4671,-2.4815,-2.4755,-2.4773,-2.4945,-2.5272,-2.5491,-2.5505,-2.5959,-2.6229,-2.6217,-2.6527,-2.67,-2.6727,-2.7015,-2.7258,-2.7386,-2.7539,-2.7585,-2.7585,-2.7585,-2.7585,-2.7585,-2.7585,-2.7585,-2.7585,-2.7585,-2.7585,-2.7585,-2.7585,-2.7585,-2.7585,-2.7585,-2.7585,-2.7585,-2.7585,-2.7585,-2.7585,-2.7585,-2.7585,-2.7585,-2.7585,-2.7585,-2.7585,-2.7585,-2.7585,-2.7585,-2.7585,-2.7585,-2.7585,-2.7585,-2.7585,-2.7585,-2.7585,-2.7585,-2.7625,-2.7675,-2.7765,-2.779,-2.7925,-2.8048,-2.8122,-2.8229,-2.8574,-2.9779,-2.9779,-2.9779,-2.9779,-2.9779,-2.9716,-2.9402,-2.8925,-2.88,-2.8172,-2.7253,-2.6713,-2.6499,-2.6487,-2.6487,-2.6499,-2.6533,-2.6471,-2.6168,-2.5761,-2.5615,-2.5365,-2.4995,-2.4556,-2.4448,-2.4624,-2.4281,-2.4439,-2.4968,-2.496,-2.5205,-2.5659,-2.5728,-2.5793,-2.5767,-2.5715,-2.5675,-2.5675,-2.5734,-2.5395,-2.4733,-2.4681,-2.4781,-2.5036,-2.445,-2.4365,-2.4787,-2.4306,-2.4086,-2.4301,-2.4129,-2.4266,-2.4785,-2.4671,-2.476,-2.5273,-2.537,-2.5398,-2.5398,-2.5467,-2.5467,-2.5356,-2.566,-2.5866,-2.5893,-2.6297,-2.6829,-2.7258,-2.7514,-2.7575,-2.7585,-2.7585,-2.7585,-2.7585,-2.7585,-2.7585,-2.7585,-2.7585,-2.7585,-2.7585,-2.7585,-2.7585,-2.7585,-2.7585,-2.7585,-2.7585,-2.7585,-2.7585,-2.7585,-2.7585,-2.7585,-2.7585,-2.7585,-2.7585,-2.7585,-2.7585,-2.7585,-2.7585,-2.7585,-2.7585,-2.7585,-2.7585,-2.7585,-2.7585,-2.7585,-2.7585,-2.7585,-2.7625,-2.7625,-2.765,-2.77,-2.774,-2.7815,-2.789,-2.8131,-2.9779,-2.9779,-2.9779,-2.9779,-2.9779,-2.9779,-2.9666,-2.9428,-2.9026,-2.8449,-2.7745,-2.718,-2.6801,-2.6499,-2.6487,-2.6487,-2.6487,-2.6487,-2.6373,-2.6135,-2.6135,-2.5845,-2.535,-2.5156,-2.4975,-2.4867,-2.465,-2.4756,-2.5099,-2.5376,-2.5576,-2.5664,-2.5983,-2.6161,-2.6136,-2.5817,-2.5639,-2.5639,-2.5333,-2.5,-2.4772,-2.5018,-2.512,-2.4951,-2.4744,-2.4568,-2.4541,-2.434,-2.4314,-2.4395,-2.4314,-2.4368,-2.4653,-2.4556,-2.4608,-2.4852,-2.4781,-2.4738,-2.4624,-2.4794,-2.4851,-2.478,-2.5245,-2.5536,-2.5536,-2.6041,-2.651,-2.6762,-2.7192,-2.7488,-2.7488,-2.7549,-2.7585,-2.7585,-2.7585,-2.7585,-2.7585,-2.7585,-2.7585,-2.7585,-2.7585,-2.7585,-2.7585,-2.7585,-2.7585,-2.7585,-2.7585,-2.7585,-2.7585,-2.7585,-2.7585,-2.7585,-2.7585,-2.7585,-2.7585,-2.7585,-2.7585,-2.7585,-2.7585,-2.7585,-2.7585,-2.7585,-2.7585,-2.7585,-2.7585,-2.7585,-2.7585,-2.7585,-2.7585,-2.7585,-2.7585,-2.7625,-2.7675,-2.769,-2.78,-2.9779,-2.9779,-2.9779,-2.9779,-2.9779,-2.9779,-2.9779,-2.9741,-2.934,-2.8863,-2.831,-2.7908,-2.7431,-2.6952,-2.665,-2.6487,-2.6487,-2.6487,-2.6487,-2.6487,-2.6487,-2.626,-2.5837,-2.5661,-2.5464,-2.5189,-2.4987,-2.5096,-2.5402,-2.5838,-2.5984,-2.5933,-2.6285,-2.6487,-2.6449,-2.6047,-2.5837,-2.5833,-2.5448,-2.5272,-2.5325,-2.5703,-2.5587,-2.5003,-2.5005,-2.4931,-2.4646,-2.458,-2.4575,-2.4604,-2.4443,-2.4334,-2.4334,-2.4292,-2.4263,-2.4247,-2.416,-2.406,-2.3972,-2.4147,-2.4263,-2.4292,-2.4709,-2.4992,-2.5119,-2.5563,-2.5906,-2.6055,-2.6604,-2.7,-2.7207,-2.7372,-2.7473,-2.7448,-2.7473,-2.7549,-2.7549,-2.7575,-2.7585,-2.7585,-2.7585,-2.7585,-2.7585,-2.7585,-2.7585,-2.7585,-2.7585,-2.7585,-2.7585,-2.7585,-2.7585,-2.7585,-2.7585,-2.7585,-2.7585,-2.7585,-2.7585,-2.7585,-2.7585,-2.7585,-2.7585,-2.7585,-2.7585,-2.7585,-2.7585,-2.7585,-2.7585,-2.7585,-2.7585,-2.7585,-2.7585,-2.7585,-2.7625,-2.76,-2.76,-2.9779,-2.9779,-2.9779,-2.9779,-2.9779,-2.9779,-2.9779,-2.9779,-2.9741,-2.9415,-2.8863,-2.8812,-2.8524,-2.7921,-2.7014,-2.6537,-2.6524,-2.6575,-2.66,-2.6587,-2.6549,-2.6487,-2.6411,-2.5896,-2.5598,-2.5569,-2.5172,-2.5192,-2.5607,-2.6206,-2.6483,-2.6461,-2.6562,-2.6537,-2.6575,-2.6549,-2.6474,-2.6499,-2.6461,-2.6424,-2.6411,-2.6445,-2.6017,-2.5242,-2.5027,-2.5135,-2.5303,-2.4913,-2.4732,-2.484,-2.4307,-2.3946,-2.3891,-2.3747,-2.3688,-2.3645,-2.3658,-2.3628,-2.3616,-2.3688,-2.3675,-2.3675,-2.3923,-2.4041,-2.4276,-2.4708,-2.5048,-2.5244,-2.5743,-2.6218,-2.6604,-2.6959,-2.7141,-2.7067,-2.7273,-2.7401,-2.7427,-2.7524,-2.76,-2.7585,-2.76,-2.7575,-2.7575,-2.7585,-2.7575,-2.7575,-2.76,-2.7585,-2.7585,-2.7585,-2.7585,-2.7585,-2.7585,-2.7585,-2.7585,-2.7585,-2.7585,-2.7585,-2.7585,-2.7585,-2.7585,-2.7585,-2.7585,-2.7585,-2.7585,-2.7585,-2.7585,-2.7585,-2.7585,-2.7585,-2.7585,-2.7585,-2.7585,-2.7585,-2.7585,-2.9779,-2.9779,-2.9779,-2.9779,-2.9779,-2.9779,-2.9779,-2.9779,-2.9779,-2.9465,-2.895,-2.8888,-2.8587,-2.8072,-2.7695,-2.7519,-2.7507,-2.7519,-2.7507,-2.7482,-2.7155,-2.7027,-2.6964,-2.6449,-2.6185,-2.6147,-2.6009,-2.5996,-2.621,-2.6751,-2.7014,-2.7102,-2.7356,-2.7507,-2.7507,-2.7507,-2.7519,-2.7519,-2.7507,-2.7507,-2.7444,-2.7203,-2.6813,-2.6458,-2.574,-2.529,-2.5077,-2.4862,-2.4639,-2.4333,-2.4068,-2.3801,-2.3428,-2.3318,-2.3288,-2.3288,-2.3288,-2.3288,-2.33,-2.342,-2.3463,-2.3492,-2.373,-2.3891,-2.4011,-2.4347,-2.465,-2.4808,-2.5188,-2.5495,-2.5591,-2.6244,-2.6762,-2.6829,-2.7078,-2.7284,-2.7386,-2.7514,-2.7585,-2.756,-2.7524,-2.7488,-2.7463,-2.7412,-2.7386,-2.7463,-2.7463,-2.7499,-2.7575,-2.7585,-2.7585,-2.7585,-2.7585,-2.7585,-2.7585,-2.7585,-2.7585,-2.7585,-2.7585,-2.7585,-2.7585,-2.7585,-2.7585,-2.7585,-2.7585,-2.7585,-2.7585,-2.7585,-2.7585,-2.7585,-2.7585,-2.7585,-2.7585,-2.7585,-2.7585,-2.9779,-2.9779,-2.9779,-2.9779,-2.9779,-2.9779,-2.9779,-2.9779,-2.9779,-2.9566,-2.9214,-2.9214,-2.8988,-2.8687,-2.8662,-2.8649,-2.8586,-2.8298,-2.8109,-2.8084,-2.772,-2.7492,-2.7278,-2.6939,-2.6763,-2.6801,-2.6952,-2.7027,-2.7065,-2.7356,-2.7544,-2.757,-2.7934,-2.8109,-2.8109,-2.8109,-2.8109,-2.8109,-2.8109,-2.8109,-2.8059,-2.7745,-2.7457,-2.7241,-2.654,-2.5887,-2.5372,-2.5151,-2.4888,-2.4531,-2.4192,-2.3728,-2.3183,-2.3095,-2.3095,-2.3095,-2.3095,-2.3095,-2.3108,-2.3241,-2.3313,-2.3313,-2.3522,-2.3641,-2.3671,-2.3969,-2.4131,-2.4276,-2.4549,-2.4706,-2.4765,-2.5356,-2.5933,-2.6217,-2.6578,-2.6881,-2.7037,-2.7203,-2.7321,-2.7346,-2.7258,-2.7233,-2.7299,-2.7222,-2.7248,-2.7376,-2.7401,-2.7437,-2.7549,-2.7585,-2.7585,-2.7585,-2.7585,-2.7585,-2.76,-2.76,-2.7575,-2.7575,-2.7585,-2.7585,-2.7585,-2.7585,-2.7585,-2.7585,-2.7585,-2.7585,-2.7585,-2.7585,-2.7585,-2.7585,-2.7585,-2.7585,-2.7585,-2.7585,-2.7585,-2.9779,-2.9779,-2.9779,-2.9779,-2.9779,-2.9779,-2.9779,-2.9779,-2.9779,-2.9741,-2.9679,-2.9741,-2.9654,-2.9691,-2.9591,-2.9691,-2.9465,-2.8699,-2.8298,-2.826,-2.816,-2.7858,-2.7444,-2.7344,-2.7316,-2.7354,-2.7808,-2.8034,-2.7971,-2.8047,-2.8109,-2.8109,-2.821,-2.8335,-2.8185,-2.8285,-2.8222,-2.826,-2.8298,-2.8235,-2.8134,-2.8147,-2.7908,-2.7457,-2.7243,-2.6939,-2.6474,-2.59,-2.5561,-2.541,-2.4607,-2.3747,-2.3283,-2.3133,-2.3095,-2.3095,-2.3095,-2.3095,-2.3095,-2.3095,-2.3138,-2.3138,-2.3125,-2.3198,-2.3228,-2.339,-2.3539,-2.3688,-2.3865,-2.3995,-2.4131,-2.4394,-2.4808,-2.5188,-2.5839,-2.6231,-2.6365,-2.6551,-2.6777,-2.6922,-2.6829,-2.6855,-2.7037,-2.6989,-2.6963,-2.7181,-2.7258,-2.7295,-2.7408,-2.7433,-2.7534,-2.7549,-2.7433,-2.7357,-2.7458,-2.7575,-2.7575,-2.7549,-2.7575,-2.7585,-2.7585,-2.7585,-2.7585,-2.7585,-2.7585,-2.7585,-2.7585,-2.7585,-2.7585,-2.7585,-2.7585,-2.7585,-2.7585,-2.7585,-2.7585,-2.9779,-2.9779,-2.9779,-2.9779,-2.9779,-2.9779,-2.9779,-2.9779,-2.9779,-2.9779,-2.9779,-2.9779,-2.9779,-2.9779,-2.9779,-2.9779,-2.9754,-2.9415,-2.9264,-2.9176,-2.8813,-2.8549,-2.8311,-2.8021,-2.7846,-2.7871,-2.8009,-2.8109,-2.821,-2.8461,-2.8662,-2.8737,-2.9063,-2.9252,-2.9214,-2.9252,-2.9264,-2.9264,-2.9277,-2.9264,-2.9227,-2.8875,-2.8537,-2.836,-2.7695,-2.7193,-2.704,-2.6524,-2.6047,-2.5636,-2.5285,-2.4695,-2.3879,-2.3321,-2.3108,-2.3095,-2.3095,-2.3095,-2.3095,-2.3095,-2.3095,-2.3095,-2.3095,-2.3095,-2.3125,-2.3271,-2.3403,-2.348,-2.3611,-2.3688,-2.3645,-2.3763,-2.416,-2.485,-2.5453,-2.5839,-2.5961,-2.6217,-2.6416,-2.6498,-2.6406,-2.6353,-2.6379,-2.634,-2.6379,-2.663,-2.6683,-2.6762,-2.693,-2.7008,-2.6971,-2.6982,-2.6982,-2.7008,-2.706,-2.7086,-2.706,-2.7203,-2.7331,-2.7448,-2.7499,-2.7575,-2.7575,-2.7575,-2.7575,-2.756,-2.756,-2.7575,-2.7575,-2.76,-2.76,-2.76,-2.76,-2.7585,-2.7585,-2.9312,-2.9312,-2.9312,-2.9351,-2.9429,-2.9417,-2.9468,-2.9546,-2.9546,-2.9585,-2.965,-2.965,-2.9714,-2.9779,-2.9779,-2.9779,-2.9779,-2.9779,-2.9779,-2.9741,-2.9453,-2.9113,-2.89,-2.8562,-2.8411,-2.8461,-2.8624,-2.8725,-2.875,-2.9076,-2.9214,-2.9302,-2.9616,-2.9767,-2.9779,-2.9779,-2.9779,-2.9779,-2.9767,-2.9779,-2.9716,-2.944,-2.9113,-2.8825,-2.8247,-2.7708,-2.7331,-2.6977,-2.6537,-2.6021,-2.5724,-2.5172,-2.4368,-2.3935,-2.3647,-2.3459,-2.3409,-2.3346,-2.3145,-2.3095,-2.3095,-2.3095,-2.3095,-2.3095,-2.3125,-2.3228,-2.33,-2.33,-2.3348,-2.339,-2.3318,-2.342,-2.3776,-2.4216,-2.4736,-2.516,-2.5356,-2.5522,-2.5687,-2.5701,-2.5688,-2.5688,-2.577,-2.5729,-2.5797,-2.6055,-2.6177,-2.6244,-2.6457,-2.6549,-2.6537,-2.6537,-2.6575,-2.6602,-2.6549,-2.6549,-2.6549,-2.6774,-2.6997,-2.7167,-2.7258,-2.7397,-2.7473,-2.7488,-2.7488,-2.7423,-2.7423,-2.7488,-2.7488,-2.7539,-2.7524,-2.76,-2.7585,-2.7585,-2.766,-2.8471,-2.8459,-2.8459,-2.8605,-2.8752,-2.8752,-2.8831,-2.9013,-2.9052,-2.9131,-2.9302,-2.9341,-2.9482,-2.9663,-2.9663,-2.9663,-2.9702,-2.9702,-2.9663,-2.9663,-2.9614,-2.9439,-2.9063,-2.9013,-2.895,-2.9051,-2.9453,-2.9679,-2.9603,-2.9666,-2.9779,-2.9729,-2.9741,-2.9779,-2.9779,-2.9779,-2.9779,-2.9779,-2.9779,-2.9779,-2.9779,-2.9767,-2.9541,-2.9038,-2.8838,-2.8398,-2.7682,-2.7366,-2.7014,-2.6499,-2.5921,-2.5372,-2.4958,-2.48,-2.4449,-2.4054,-2.4029,-2.3703,-2.3296,-2.3133,-2.3095,-2.3095,-2.3095,-2.3095,-2.3095,-2.3125,-2.3138,-2.3138,-2.3125,-2.3125,-2.3168,-2.3271,-2.339,-2.345,-2.3969,-2.4305,-2.4452,-2.4538,-2.4738,-2.4907,-2.485,-2.4907,-2.5258,-2.5175,-2.5328,-2.5578,-2.5688,-2.5783,-2.5933,-2.5946,-2.6122,-2.6095,-2.5919,-2.5892,-2.5755,-2.5755,-2.5755,-2.5864,-2.6229,-2.6578,-2.6922,-2.7141,-2.7269,-2.7284,-2.7284,-2.7233,-2.7218,-2.7233,-2.7258,-2.7244,-2.7306,-2.7484,-2.7594,-2.7563,-2.7882,-2.7983,-2.7983,-2.7983,-2.8023,-2.8063,-2.8051,-2.8195,-2.8419,-2.8407,-2.8526,-2.8724,-2.887,-2.8961,-2.9079,-2.9209,-2.9209,-2.9091,-2.9221,-2.917,-2.9131,-2.9392,-2.9549,-2.9552,-2.9553,-2.9541,-2.9566,-2.9691,-2.9779,-2.9779,-2.9779,-2.9779,-2.9779,-2.9779,-2.9779,-2.9779,-2.9779,-2.9779,-2.9779,-2.9779,-2.9779,-2.9779,-2.9779,-2.9729,-2.9566,-2.9164,-2.8775,-2.8411,-2.7708,-2.7065,-2.6524,-2.5912,-2.5548,-2.5385,-2.5084,-2.4788,-2.4619,-2.4243,-2.3966,-2.3753,-2.3346,-2.3133,-2.3095,-2.312,-2.3095,-2.3095,-2.3095,-2.3095,-2.3095,-2.3095,-2.3095,-2.3095,-2.3138,-2.3168,-2.3228,-2.3628,-2.3982,-2.4131,-2.4205,-2.4263,-2.4334,-2.4305,-2.4379,-2.4436,-2.4465,-2.4536,-2.4723,-2.4794,-2.4851,-2.5091,-2.5147,-2.5217,-2.5035,-2.4894,-2.4936,-2.4936,-2.4936,-2.4936,-2.4964,-2.53,-2.5838,-2.627,-2.6747,-2.6841,-2.6881,-2.6855,-2.6788,-2.6814,-2.6841,-2.6867,-2.694,-2.7129,-2.7291,-2.7484,-2.7572,-2.8088,-2.6712,-2.67,-2.67,-2.6823,-2.6999,-2.6999,-2.7203,-2.747,-2.747,-2.7684,-2.7926,-2.8087,-2.8235,-2.8395,-2.8514,-2.8502,-2.8395,-2.8514,-2.8566,-2.8633,-2.8949,-2.9353,-2.9689,-2.9779,-2.9779,-2.9779,-2.9779,-2.9779,-2.9779,-2.9779,-2.9779,-2.9779,-2.9779,-2.9779,-2.9779,-2.9779,-2.9779,-2.9779,-2.9779,-2.9779,-2.9779,-2.9779,-2.9779,-2.9741,-2.9428,-2.9214,-2.8837,-2.7871,-2.7065,-2.6562,-2.6172,-2.5984,-2.5971,-2.5699,-2.541,-2.5184,-2.4833,-2.4607,-2.4293,-2.3816,-2.3484,-2.3409,-2.3283,-2.312,-2.3095,-2.3095,-2.3095,-2.3095,-2.3095,-2.3095,-2.3095,-2.3095,-2.3095,-2.3138,-2.339,-2.3611,-2.3704,-2.3649,-2.3721,-2.3793,-2.3822,-2.3852,-2.3868,-2.391,-2.3969,-2.4073,-2.4203,-2.4276,-2.4379,-2.4321,-2.4321,-2.4279,-2.4332,-2.4445,-2.4543,-2.4556,-2.4649,-2.4606,-2.4791,-2.5238,-2.58,-2.6332,-2.6328,-2.6369,-2.6367,-2.6381,-2.64,-2.6443,-2.6538,-2.6664,-2.6883,-2.7236,-2.7505,-2.7761,-2.8259,-2.5115,-2.5115,-2.5115,-2.5348,-2.5726,-2.5757,-2.6019,-2.6279,-2.6362,-2.6569,-2.6887,-2.7021,-2.7255,-2.7585,-2.7609,-2.7649,-2.7568,-2.7649,-2.7874,-2.8075,-2.8435,-2.8843,-2.9429,-2.9624,-2.9702,-2.974,-2.974,-2.9779,-2.9779,-2.9779,-2.9779,-2.9779,-2.9779,-2.9779,-2.9779,-2.9779,-2.9779,-2.9779,-2.9779,-2.9779,-2.9779,-2.9779,-2.9779,-2.9767,-2.9754,-2.9415,-2.8863,-2.8047,-2.7329,-2.6713,-2.6562,-2.6449,-2.6449,-2.6461,-2.6235,-2.5749,-2.5523,-2.5272,-2.4908,-2.4393,-2.4079,-2.4004,-2.3534,-2.3195,-2.3233,-2.3195,-2.3095,-2.3095,-2.3095,-2.3095,-2.3095,-2.3095,-2.3095,-2.3108,-2.3138,-2.312,-2.317,-2.3145,-2.3168,-2.333,-2.336,-2.342,-2.3509,-2.3569,-2.3599,-2.3675,-2.3734,-2.3763,-2.3839,-2.3826,-2.3855,-2.3884,-2.3979,-2.4112,-2.4181,-2.4233,-2.4363,-2.4467,-2.4605,-2.4961,-2.5534,-2.5909,-2.5855,-2.5897,-2.6091,-2.6076,-2.5922,-2.6021,-2.6245,-2.6483,-2.6749,-2.7286,-2.7798,-2.8068,-2.8469,-2.468,-2.4669,-2.468,-2.4712,-2.4797,-2.4797,-2.4967,-2.5232,-2.5232,-2.5443,-2.5695,-2.603,-2.6227,-2.634,-2.6599,-2.664,-2.6381,-2.664,-2.701,-2.7389,-2.747,-2.7926,-2.8578,-2.904,-2.9443,-2.9521,-2.9689,-2.9779,-2.9792,-2.974,-2.9792,-2.9792,-2.9779,-2.9779,-2.9779,-2.9779,-2.9779,-2.9779,-2.9779,-2.9779,-2.9779,-2.9779,-2.9779,-2.9779,-2.9779,-2.949,-2.9001,-2.8699,-2.831,-2.7708,-2.7027,-2.6625,-2.6612,-2.6562,-2.6461,-2.6273,-2.5837,-2.5561,-2.536,-2.4971,-2.4625,-2.4582,-2.4142,-2.3816,-2.3778,-2.3358,-2.317,-2.3108,-2.3095,-2.3095,-2.3095,-2.3095,-2.3145,-2.3158,-2.3183,-2.3333,-2.3597,-2.3396,-2.3213,-2.3243,-2.3231,-2.318,-2.3241,-2.3271,-2.33,-2.33,-2.3356,-2.3343,-2.3398,-2.3496,-2.3696,-2.3914,-2.4024,-2.4251,-2.429,-2.4354,-2.4474,-2.4525,-2.4625,-2.4713,-2.5269,-2.5638,-2.5652,-2.5762,-2.5918,-2.5818,-2.57,-2.5901,-2.6145,-2.6397,-2.6622,-2.7067,-2.7527,-2.8003,-2.845,-2.3864,-2.3854,-2.381,-2.3907,-2.4036,-2.4036,-2.4176,-2.4348,-2.4391,-2.4519,-2.4743,-2.5031,-2.5147,-2.5253,-2.5474,-2.5421,-2.5348,-2.5611,-2.5863,-2.6144,-2.6393,-2.6775,-2.7185,-2.7983,-2.8542,-2.8882,-2.9209,-2.9326,-2.9365,-2.9495,-2.9599,-2.9663,-2.974,-2.9779,-2.9779,-2.9779,-2.9779,-2.9779,-2.9779,-2.9779,-2.9779,-2.9779,-2.9779,-2.9779,-2.9779,-2.9616,-2.9377,-2.9001,-2.8787,-2.836,-2.7708,-2.7266,-2.719,-2.7027,-2.6889,-2.6788,-2.6361,-2.6072,-2.5887,-2.5523,-2.5197,-2.5172,-2.4695,-2.4437,-2.4268,-2.3835,-2.3559,-2.3446,-2.3296,-2.3095,-2.3095,-2.3095,-2.3183,-2.3471,-2.354,-2.376,-2.4123,-2.3891,-2.3647,-2.3735,-2.3753,-2.3627,-2.3527,-2.3396,-2.3195,-2.3311,-2.3719,-2.3745,-2.384,-2.3977,-2.4104,-2.4274,-2.4356,-2.4444,-2.4482,-2.4576,-2.4697,-2.4741,-2.4735,-2.4811,-2.5025,-2.5335,-2.5537,-2.5657,-2.5787,-2.5672,-2.5594,-2.5829,-2.6083,-2.6359,-2.659,-2.6822,-2.7198,-2.7805,-2.8125,-2.3101,-2.3101,-2.3101,-2.3242,-2.3406,-2.346,-2.358,-2.3711,-2.3711,-2.3841,-2.4024,-2.4067,-2.4272,-2.438,-2.4413,-2.4413,-2.4466,-2.4551,-2.4807,-2.5031,-2.5401,-2.5695,-2.6019,-2.6558,-2.7174,-2.8007,-2.8526,-2.8724,-2.8882,-2.9157,-2.9392,-2.9431,-2.9663,-2.9779,-2.9779,-2.9779,-2.9779,-2.9779,-2.9779,-2.9779,-2.9779,-2.9779,-2.9779,-2.9779,-2.9779,-2.9779,-2.9628,-2.9365,-2.9038,-2.8988,-2.8612,-2.8411,-2.821,-2.7758,-2.7331,-2.7281,-2.6839,-2.6562,-2.6348,-2.6034,-2.5737,-2.5711,-2.5234,-2.4971,-2.482,-2.4437,-2.418,-2.3991,-2.3772,-2.3521,-2.3371,-2.3509,-2.371,-2.3991,-2.413,-2.4381,-2.4695,-2.4506,-2.4519,-2.4512,-2.4311,-2.4142,-2.4004,-2.3891,-2.3572,-2.3421,-2.3853,-2.4155,-2.4293,-2.4406,-2.4512,-2.4662,-2.4738,-2.5146,-2.5247,-2.5247,-2.5322,-2.5247,-2.5204,-2.5192,-2.5224,-2.5565,-2.587,-2.5627,-2.5646,-2.5666,-2.5736,-2.5948,-2.6187,-2.6361,-2.6537,-2.6752,-2.7177,-2.7637,-2.7769,-2.3101,-2.3101,-2.3101,-2.3144,-2.3144,-2.3188,-2.3222,-2.3232,-2.3266,-2.3232,-2.3319,-2.3493,-2.3677,-2.3711,-2.3874,-2.3927,-2.3917,-2.3927,-2.397,-2.4239,-2.4529,-2.469,-2.5073,-2.5316,-2.5611,-2.6144,-2.7214,-2.8167,-2.8486,-2.8934,-2.9067,-2.9353,-2.9611,-2.974,-2.974,-2.9779,-2.9779,-2.9779,-2.9779,-2.9779,-2.9779,-2.9779,-2.9779,-2.9779,-2.9779,-2.9779,-2.9779,-2.9704,-2.9654,-2.9641,-2.9566,-2.949,-2.9227,-2.8499,-2.7896,-2.7482,-2.7193,-2.6939,-2.6612,-2.6424,-2.6336,-2.6235,-2.5799,-2.5498,-2.5347,-2.5008,-2.4682,-2.4582,-2.4512,-2.4449,-2.4512,-2.4336,-2.4487,-2.4637,-2.4687,-2.4908,-2.5297,-2.5347,-2.5146,-2.5071,-2.4858,-2.4669,-2.4556,-2.4431,-2.4199,-2.4136,-2.4443,-2.4657,-2.4745,-2.482,-2.4863,-2.5013,-2.5164,-2.5686,-2.616,-2.6147,-2.6147,-2.6059,-2.5996,-2.5984,-2.6047,-2.6223,-2.6274,-2.5978,-2.5978,-2.616,-2.6215,-2.619,-2.6261,-2.6438,-2.6587,-2.671,-2.6955,-2.7222,-2.7302,-2.3101,-2.3101,-2.3101,-2.3101,-2.3101,-2.3101,-2.3101,-2.3101,-2.3101,-2.3101,-2.3144,-2.3232,-2.3276,-2.3319,-2.3353,-2.345,-2.3406,-2.3363,-2.346,-2.3634,-2.3764,-2.3937,-2.4229,-2.4401,-2.4572,-2.5031,-2.6019,-2.6928,-2.7336,-2.7955,-2.8435,-2.8803,-2.9131,-2.9378,-2.9573,-2.956,-2.965,-2.974,-2.9779,-2.9792,-2.9779,-2.9779,-2.9779,-2.9779,-2.9779,-2.9779,-2.9779,-2.9779,-2.9779,-2.9767,-2.9779,-2.9779,-2.9616,-2.9302,-2.8712,-2.816,-2.7632,-2.7205,-2.6889,-2.67,-2.6474,-2.6461,-2.6197,-2.6097,-2.59,-2.5573,-2.5114,-2.4888,-2.48,-2.48,-2.475,-2.487,-2.4913,-2.5139,-2.5202,-2.5485,-2.585,-2.6034,-2.5824,-2.5561,-2.5385,-2.5247,-2.5146,-2.5008,-2.4825,-2.4921,-2.5096,-2.5172,-2.5234,-2.5347,-2.5435,-2.5573,-2.5737,-2.595,-2.6411,-2.6449,-2.6487,-2.6487,-2.6487,-2.6487,-2.6487,-2.6474,-2.6424,-2.6253,-2.6373,-2.6487,-2.6471,-2.6362,-2.6433,-2.6487,-2.6552,-2.6629,-2.6633,-2.6726,-2.6897,-2.3101,-2.3101,-2.3101,-2.3101,-2.3101,-2.3101,-2.3101,-2.3101,-2.3101,-2.3101,-2.3101,-2.3101,-2.3144,-2.3091,-2.3135,-2.3144,-2.3101,-2.3101,-2.3144,-2.3188,-2.3363,-2.346,-2.3547,-2.3764,-2.398,-2.4057,-2.4605,-2.5274,-2.6227,-2.7051,-2.7592,-2.8047,-2.8447,-2.8831,-2.9106,-2.9223,-2.9431,-2.9611,-2.9702,-2.9753,-2.9792,-2.9779,-2.9779,-2.9779,-2.9779,-2.9779,-2.9779,-2.9779,-2.9779,-2.9779,-2.9779,-2.9779,-2.9779,-2.9779,-2.9566,-2.9038,-2.8147,-2.7645,-2.7216,-2.6977,-2.6688,-2.6512,-2.6487,-2.6474,-2.6386,-2.6021,-2.5624,-2.5247,-2.5209,-2.5259,-2.5335,-2.5209,-2.5385,-2.5636,-2.5799,-2.5912,-2.6248,-2.6399,-2.6373,-2.616,-2.5984,-2.5812,-2.5699,-2.5699,-2.5561,-2.5548,-2.5711,-2.5783,-2.5858,-2.6047,-2.616,-2.626,-2.6336,-2.6336,-2.6474,-2.6461,-2.6487,-2.6487,-2.6487,-2.6487,-2.6487,-2.6487,-2.6424,-2.6386,-2.6424,-2.6487,-2.6487,-2.6487,-2.6487,-2.6487,-2.6487,-2.6521,-2.6555,-2.6555,-2.6658,-2.3101,-2.3101,-2.3101,-2.3101,-2.3101,-2.3101,-2.3101,-2.3101,-2.3101,-2.3101,-2.3101,-2.3101,-2.3101,-2.3101,-2.3101,-2.3101,-2.3101,-2.3101,-2.3101,-2.3135,-2.3188,-2.3188,-2.3144,-2.3188,-2.3363,-2.345,-2.3667,-2.4433,-2.5401,-2.6351,-2.7021,-2.7307,-2.7805,-2.8379,-2.8526,-2.8673,-2.9067,-2.9341,-2.9431,-2.9573,-2.9753,-2.9779,-2.9779,-2.9779,-2.9779,-2.9779,-2.9779,-2.9779,-2.9779,-2.9779,-2.9779,-2.9779,-2.9779,-2.9779,-2.9779,-2.9553,-2.9051,-2.831,-2.7582,-2.7228,-2.6964,-2.6675,-2.6524,-2.6499,-2.6436,-2.6424,-2.6248,-2.6336,-2.6235,-2.6147,-2.6097,-2.621,-2.6323,-2.6285,-2.6273,-2.6311,-2.6487,-2.6487,-2.6487,-2.6474,-2.6223,-2.6273,-2.626,-2.6298,-2.6323,-2.6336,-2.6336,-2.6323,-2.6348,-2.6436,-2.6487,-2.6487,-2.6487,-2.6487,-2.6487,-2.6487,-2.6487,-2.6487,-2.6487,-2.6487,-2.6487,-2.6487,-2.6487,-2.6461,-2.6487,-2.6487,-2.6487,-2.6487,-2.6487,-2.6487,-2.6487,-2.6487,-2.6487,-2.6487,-2.6487,-2.3101,-2.3101,-2.3101,-2.3101,-2.3101,-2.3101,-2.3101,-2.3101,-2.3101,-2.3101,-2.3101,-2.3101,-2.3101,-2.3101,-2.3101,-2.3101,-2.3101,-2.3101,-2.3101,-2.3101,-2.3101,-2.3101,-2.3101,-2.3101,-2.3101,-2.3188,-2.3363,-2.3721,-2.4562,-2.5137,-2.5715,-2.6279,-2.6693,-2.7226,-2.7725,-2.7955,-2.8355,-2.8803,-2.9197,-2.9509,-2.9728,-2.9779,-2.9779,-2.9779,-2.9779,-2.9779,-2.9779,-2.9779,-2.9779,-2.9779,-2.9779,-2.9779,-2.9779,-2.9779,-2.9779,-2.9767,-2.9566,-2.9026,-2.8335,-2.7682,-2.7266,-2.6939,-2.67,-2.6487,-2.6487,-2.6487,-2.6487,-2.6474,-2.6487,-2.6487,-2.6487,-2.6487,-2.6487,-2.6487,-2.6487,-2.6487,-2.6487,-2.6487,-2.6487,-2.6487,-2.6487,-2.6487,-2.6487,-2.6461,-2.6424,-2.6424,-2.6411,-2.6411,-2.6411,-2.6461,-2.6487,-2.6487,-2.6487,-2.6487,-2.6487,-2.6487,-2.6487,-2.6487,-2.6487,-2.6487,-2.6487,-2.6487,-2.6487,-2.6487,-2.6487,-2.6487,-2.6487,-2.6487,-2.6487,-2.6487,-2.6487,-2.6487,-2.6487,-2.6487,-2.6487,-2.3101,-2.3101,-2.3101,-2.3101,-2.3101,-2.3101,-2.3101,-2.3101,-2.3101,-2.3101,-2.3101,-2.3101,-2.3101,-2.3101,-2.3101,-2.3101,-2.3101,-2.3101,-2.3101,-2.3101,-2.3101,-2.3101,-2.3101,-2.3101,-2.3101,-2.311,-2.3462,-2.3579,-2.364,-2.4105,-2.4717,-2.5168,-2.5611,-2.6102,-2.6682,-2.7174,-2.7672,-2.8657,-2.9145,-2.9509,-2.974,-2.9779,-2.9779,-2.9779,-2.9779,-2.9779,-2.9779,-2.9779,-2.9779,-2.9779,-2.9779,-2.9779,-2.9779,-2.9779,-2.9779,-2.9779,-2.9704,-2.9566,-2.8963,-2.836,-2.767,-2.7205,-2.6851,-2.6487,-2.6487,-2.6487,-2.6487,-2.6487,-2.6487,-2.6487,-2.6487,-2.6487,-2.6487,-2.6487,-2.6487,-2.6487,-2.6499,-2.6549,-2.6524,-2.6487,-2.6487,-2.6487,-2.6487,-2.6487,-2.6487,-2.6487,-2.6487,-2.6487,-2.6487,-2.6487,-2.6487,-2.6487,-2.6487,-2.6487,-2.6487,-2.6487,-2.6487,-2.6512,-2.6512,-2.6512,-2.6537,-2.6512,-2.6487,-2.6487,-2.6537,-2.6487,-2.6487,-2.6487,-2.6487,-2.6487,-2.6487,-2.6487,-2.6487,-2.6499,-2.6487,-2.3101,-2.3101,-2.3101,-2.3101,-2.3101,-2.3101,-2.3101,-2.3101,-2.3101,-2.3101,-2.3101,-2.3101,-2.3101,-2.3101,-2.3101,-2.3101,-2.3101,-2.3101,-2.3101,-2.3101,-2.3101,-2.3101,-2.3101,-2.3101,-2.311,-2.3179,-2.3491,-2.3482,-2.3394,-2.3801,-2.4085,-2.4301,-2.4753,-2.5179,-2.5779,-2.6487,-2.747,-2.8486,-2.9145,-2.9521,-2.9689,-2.9779,-2.9779,-2.9779,-2.9779,-2.9779,-2.9779,-2.9779,-2.9779,-2.9779,-2.9779,-2.9779,-2.9779,-2.9779,-2.9779,-2.9779,-2.9779,-2.9704,-2.9415,-2.8938,-2.826,-2.7482,-2.6901,-2.6562,-2.6499,-2.6487,-2.6487,-2.6487,-2.6487,-2.6487,-2.6487,-2.6487,-2.6487,-2.6537,-2.6587,-2.67,-2.67,-2.6663,-2.6637,-2.6524,-2.6487,-2.6487,-2.6487,-2.6487,-2.6487,-2.6487,-2.6487,-2.6487,-2.6487,-2.6487,-2.6487,-2.6487,-2.6487,-2.6487,-2.6499,-2.6537,-2.665,-2.665,-2.6625,-2.6612,-2.6612,-2.6587,-2.6675,-2.665,-2.6713,-2.66,-2.6537,-2.6663,-2.67,-2.6549,-2.6549,-2.6801,-2.67,-2.6575,-2.6537,-2.3101,-2.3101,-2.3101,-2.3101,-2.3101,-2.3101,-2.3101,-2.3101,-2.3101,-2.3101,-2.3101,-2.3101,-2.3101,-2.3101,-2.3101,-2.3101,-2.3101,-2.3101,-2.3101,-2.3101,-2.3101,-2.3101,-2.3101,-2.3101,-2.3101,-2.3198,-2.3555,-2.375,-2.3623,-2.3887,-2.4144,-2.4307,-2.42,-2.4399,-2.4988,-2.6254,-2.7499,-2.8391,-2.9013,-2.9417,-2.974,-2.9779,-2.9779,-2.9779,-2.9779,-2.9779,-2.9779,-2.9779,-2.9779,-2.9779,-2.9779,-2.9779,-2.9779,-2.9779,-2.9779,-2.9779,-2.9779,-2.9779,-2.9691,-2.9227,-2.8436,-2.7557,-2.7102,-2.6889,-2.6663,-2.6537,-2.6499,-2.6487,-2.6562,-2.6637,-2.6524,-2.6512,-2.6499,-2.6575,-2.6738,-2.6939,-2.7002,-2.7002,-2.7014,-2.7027,-2.6713,-2.6487,-2.6487,-2.6487,-2.6487,-2.6487,-2.6487,-2.6487,-2.6487,-2.6487,-2.6487,-2.6487,-2.6487,-2.6575,-2.66,-2.6713,-2.6851,-2.6851,-2.6839,-2.6914,-2.7002,-2.7014,-2.7077,-2.7002,-2.7002,-2.7027,-2.704,-2.7014,-2.7002,-2.7014,-2.7178,-2.7394,-2.7165,-2.6788,-2.6751,-2.3101,-2.3101,-2.3101,-2.3101,-2.3101,-2.3101,-2.3101,-2.3101,-2.3101,-2.3101,-2.3101,-2.3101,-2.3101,-2.3101,-2.3101,-2.3101,-2.3101,-2.3101,-2.3101,-2.3101,-2.3101,-2.3101,-2.3101,-2.3101,-2.3101,-2.3242,-2.3525,-2.374,-2.3525,-2.4014,-2.4137,-2.4026,-2.388,-2.4139,-2.5149,-2.6543,-2.7876,-2.8602,-2.9218,-2.9489,-2.9816,-2.9779,-2.9779,-2.9779,-2.9779,-2.9779,-2.9779,-2.9779,-2.9779,-2.9779,-2.9779,-2.9779,-2.9779,-2.9779,-2.9779,-2.9779,-2.9779,-2.9779,-2.9641,-2.9214,-2.8599,-2.8021,-2.7632,-2.7356,-2.7102,-2.6977,-2.714,-2.709,-2.7052,-2.6929,-2.6952,-2.7115,-2.7153,-2.7316,-2.7369,-2.7532,-2.7519,-2.7532,-2.7568,-2.7555,-2.7266,-2.7102,-2.7128,-2.7153,-2.6826,-2.6725,-2.6499,-2.6487,-2.6487,-2.6487,-2.6487,-2.6487,-2.6487,-2.6612,-2.6738,-2.6964,-2.7168,-2.7444,-2.7431,-2.7469,-2.7532,-2.7519,-2.7519,-2.7519,-2.7519,-2.7532,-2.7607,-2.7708,-2.7645,-2.7557,-2.7708,-2.7846,-2.772,-2.7381,-2.7278,-2.3101,-2.3101,-2.3101,-2.3101,-2.3101,-2.3101,-2.3101,-2.3101,-2.3101,-2.3101,-2.3101,-2.3101,-2.3101,-2.3101,-2.3101,-2.3101,-2.3101,-2.3101,-2.3101,-2.3101,-2.3101,-2.3101,-2.3101,-2.3101,-2.3101,-2.3208,-2.3535,-2.3623,-2.3305,-2.3926,-2.4014,-2.4193,-2.4394,-2.4646,-2.5647,-2.7579,-2.8773,-2.9234,-2.9877,-2.9967,-2.9953,-2.9854,-2.9779,-2.9779,-2.9779,-2.9779,-2.9779,-2.9779,-2.9779,-2.9779,-2.9779,-2.9779,-2.9779,-2.9779,-2.9779,-2.9779,-2.9779,-2.9779,-2.9741,-2.9239,-2.8888,-2.8637,-2.8247,-2.7984,-2.7996,-2.7971,-2.7846,-2.7657,-2.7808,-2.7896,-2.7984,-2.7971,-2.7883,-2.7883,-2.7946,-2.8084,-2.8084,-2.8084,-2.8084,-2.8021,-2.8047,-2.8034,-2.8021,-2.7883,-2.7356,-2.704,-2.6637,-2.6549,-2.6688,-2.665,-2.6713,-2.6713,-2.6738,-2.6826,-2.7027,-2.7256,-2.7532,-2.7846,-2.8059,-2.8072,-2.8084,-2.8097,-2.8084,-2.8084,-2.8084,-2.8097,-2.8298,-2.8474,-2.8461,-2.8398,-2.8147,-2.816,-2.8084,-2.7959,-2.7745,-2.3101,-2.3101,-2.3101,-2.3101,-2.3101,-2.3101,-2.3101,-2.3101,-2.3101,-2.3101,-2.3101,-2.3101,-2.3101,-2.3101,-2.3101,-2.3101,-2.3101,-2.3101,-2.3101,-2.3101,-2.3101,-2.3101,-2.3101,-2.3101,-2.311,-2.3218,-2.3545,-2.3916,-2.3997,-2.4287,-2.4766,-2.5085,-2.5421,-2.6064,-2.66,-2.7897,-2.899,-2.9719,-3.0122,-3.0284,-3.0267,-3.0005,-2.9804,-2.9804,-2.9779,-2.9779,-2.9779,-2.9779,-2.9779,-2.9779,-2.9779,-2.9779,-2.9779,-2.9779,-2.9779,-2.9779,-2.9779,-2.9779,-2.9767,-2.9541,-2.9315,-2.9038,-2.88,-2.8499,-2.821,-2.8122,-2.8109,-2.8172,-2.826,-2.8247,-2.8084,-2.8084,-2.8059,-2.8134,-2.826,-2.8524,-2.8612,-2.8612,-2.8599,-2.8499,-2.8461,-2.8323,-2.826,-2.8448,-2.8084,-2.7908,-2.7656,-2.7467,-2.7494,-2.7205,-2.7092,-2.708,-2.7092,-2.713,-2.7293,-2.7733,-2.7984,-2.8247,-2.8499,-2.8649,-2.8649,-2.8662,-2.8624,-2.8662,-2.8662,-2.8674,-2.8825,-2.9013,-2.9277,-2.9264,-2.89,-2.8674,-2.8649,-2.8398,-2.8021,-2.3101,-2.3101,-2.3101,-2.3101,-2.3101,-2.3101,-2.3101,-2.3101,-2.3101,-2.3101,-2.3101,-2.3101,-2.3101,-2.3101,-2.3101,-2.3101,-2.3101,-2.3101,-2.3101,-2.3101,-2.3101,-2.3101,-2.3101,-2.312,-2.3227,-2.3335,-2.3633,-2.3975,-2.4316,-2.4668,-2.4971,-2.5512,-2.6529,-2.6884,-2.7506,-2.8622,-2.9769,-3.0417,-3.0728,-3.0901,-3.0631,-3.0294,-3.0005,-2.9854,-2.9779,-2.9779,-2.9779,-2.9779,-2.9779,-2.9779,-2.9779,-2.9779,-2.9779,-2.9779,-2.9779,-2.9779,-2.9779,-2.9779,-2.9779,-2.9767,-2.9541,-2.9327,-2.9239,-2.9051,-2.8775,-2.8825,-2.8787,-2.8762,-2.8637,-2.8649,-2.8649,-2.8612,-2.8624,-2.8725,-2.8837,-2.9101,-2.9139,-2.9139,-2.9164,-2.9026,-2.895,-2.8737,-2.8612,-2.875,-2.8812,-2.875,-2.8687,-2.8486,-2.8235,-2.7871,-2.757,-2.757,-2.762,-2.7733,-2.7971,-2.8336,-2.8549,-2.8674,-2.8888,-2.9114,-2.9227,-2.9239,-2.9239,-2.9189,-2.9202,-2.9214,-2.9302,-2.9465,-2.9578,-2.9603,-2.944,-2.9277,-2.9201,-2.8938,-2.8549,-2.3101,-2.3101,-2.3101,-2.3101,-2.3101,-2.3101,-2.3101,-2.3101,-2.3101,-2.3101,-2.3101,-2.3101,-2.3101,-2.3101,-2.3101,-2.3101,-2.3101,-2.3101,-2.3101,-2.3101,-2.3101,-2.3101,-2.312,-2.3169,-2.3418,-2.3652,-2.3906,-2.416,-2.4434,-2.4766,-2.499,-2.5376,-2.6441,-2.7065,-2.81,-2.9297,-3.0355,-3.0903,-3.139,-3.1322,-3.0894,-3.0595,-3.0218,-2.9967,-2.9779,-2.9779,-2.9779,-2.9779,-2.9779,-2.9779,-2.9779,-2.9779,-2.9779,-2.9779,-2.9779,-2.9779,-2.9779,-2.9779,-2.9779,-2.9779,-2.9779,-2.9628,-2.9679,-2.9729,-2.9654,-2.9465,-2.9402,-2.9428,-2.9402,-2.9541,-2.9628,-2.9578,-2.9541,-2.9566,-2.9578,-2.9666,-2.9679,-2.9679,-2.9666,-2.9616,-2.9603,-2.949,-2.9415,-2.949,-2.9289,-2.9327,-2.9227,-2.9038,-2.8762,-2.8373,-2.8147,-2.8134,-2.821,-2.836,-2.8599,-2.8863,-2.9076,-2.9189,-2.9352,-2.9566,-2.9679,-2.9679,-2.9578,-2.9553,-2.9691,-2.9716,-2.9616,-2.9628,-2.9716,-2.9704,-2.9641,-2.9628,-2.949,-2.9566,-2.9365,-2.3101,-2.3101,-2.3101,-2.3101,-2.3101,-2.3101,-2.3101,-2.3101,-2.3101,-2.3101,-2.3101,-2.3101,-2.3101,-2.3101,-2.3101,-2.3101,-2.3101,-2.3101,-2.3101,-2.3101,-2.3101,-2.3101,-2.3198,-2.3428,-2.3652,-2.3877,-2.4121,-2.4453,-2.4883,-2.5117,-2.5265,-2.5682,-2.6358,-2.7125,-2.806,-2.9303,-3.0325,-3.1205,-3.1718,-3.1535,-3.1142,-3.0794,-3.0342,-2.9967,-2.9792,-2.9779,-2.9779,-2.9779,-2.9779,-2.9779,-2.9779,-2.9779,-2.9779,-2.9779,-2.9779,-2.9779,-2.9779,-2.9779,-2.9779,-2.9779,-2.9779,-2.9779,-2.9779,-2.9779,-2.9779,-2.9779,-2.9779,-2.9779,-2.9779,-2.9779,-2.9779,-2.9779,-2.9779,-2.9779,-2.9779,-2.9779,-2.9779,-2.9779,-2.9779,-2.9779,-2.9779,-2.9779,-2.9779,-2.9741,-2.9578,-2.9716,-2.9691,-2.949,-2.9277,-2.89,-2.8725,-2.8699,-2.8725,-2.8863,-2.9001,-2.9201,-2.949,-2.9716,-2.9779,-2.9779,-2.9754,-2.9741,-2.9779,-2.9779,-2.974,-2.974,-2.9767,-2.974,-2.9573,-2.974,-2.9703,-2.9767,-2.9779,-2.974,-2.965,-2.3101,-2.3101,-2.3101,-2.3101,-2.3101,-2.3101,-2.3101,-2.3101,-2.3101,-2.3101,-2.3101,-2.3101,-2.3101,-2.3101,-2.3101,-2.3101,-2.3101,-2.3101,-2.3101,-2.3101,-2.3101,-2.3291,-2.3457,-2.3672,-2.3994,-2.4238,-2.4551,-2.4893,-2.5283,-2.5527,-2.5664,-2.5703,-2.6342,-2.6849,-2.76,-2.8527,-2.9635,-3.065,-3.1395,-3.1514,-3.1261,-3.0873,-3.0465,-2.993,-2.9792,-2.9779,-2.9779,-2.9779,-2.9779,-2.9779,-2.9779,-2.9779,-2.9779,-2.9779,-2.9779,-2.9779,-2.9779,-2.9779,-2.9779,-2.9779,-2.9779,-2.9779,-2.9779,-2.9779,-2.9779,-2.9779,-2.9779,-2.9779,-2.9779,-2.9779,-2.9779,-2.9779,-2.9779,-2.9779,-2.9779,-2.9779,-2.9779,-2.9779,-2.9779,-2.9779,-2.9779,-2.9779,-2.9779,-2.9779,-2.9779,-2.9779,-2.9779,-2.9716,-2.9591,-2.9428,-2.9302,-2.9277,-2.9277,-2.9315,-2.9402,-2.9452,-2.9551,-2.9728,-2.9779,-2.9779,-2.9779,-2.9753,-2.9753,-2.9702,-2.9689,-2.965,-2.9573,-2.9404,-2.9287,-2.9456,-2.9468,-2.9378,-2.9417,-2.9573,-2.9443,-2.3101,-2.3101,-2.3101,-2.3101,-2.3101,-2.3101,-2.3101,-2.3101,-2.3101,-2.3101,-2.3101,-2.3101,-2.3101,-2.3101,-2.3101,-2.3101,-2.3101,-2.3101,-2.3101,-2.3101,-2.3101,-2.3237,-2.3516,-2.3848,-2.4209,-2.4746,-2.5146,-2.5283,-2.5528,-2.5684,-2.5684,-2.5742,-2.6014,-2.6476,-2.7146,-2.7615,-2.8528,-2.9478,-3.0411,-3.0857,-3.0954,-3.0856,-3.0642,-2.9914,-2.9779,-2.9779,-2.9779,-2.9779,-2.9779,-2.9779,-2.9779,-2.9779,-2.9779,-2.9779,-2.9779,-2.9779,-2.9779,-2.9779,-2.9779,-2.9779,-2.9779,-2.9779,-2.9779,-2.9779,-2.9779,-2.9779,-2.9779,-2.9779,-2.9779,-2.9779,-2.9779,-2.9779,-2.9779,-2.9779,-2.9779,-2.9779,-2.9779,-2.9779,-2.9779,-2.9779,-2.9779,-2.9779,-2.965,-2.965,-2.9495,-2.9611,-2.9624,-2.9585,-2.9521,-2.9471,-2.9524,-2.955,-2.9577,-2.9527,-2.95,-2.9538,-2.9549,-2.965,-2.9624,-2.9546,-2.9351,-2.9468,-2.9675,-2.9507,-2.9365,-2.9365,-2.9275,-2.9079,-2.8922,-2.8934,-2.8934,-2.8895,-2.8961,-2.9079,-2.9091,-2.3101,-2.3101,-2.3101,-2.3101,-2.3101,-2.3101,-2.3101,-2.3101,-2.3101,-2.3101,-2.3101,-2.3101,-2.3101,-2.3101,-2.3101,-2.3101,-2.3101,-2.3101,-2.3101,-2.3101,-2.3101,-2.3198,-2.3432,-2.3975,-2.4365,-2.4717,-2.5127,-2.5586,-2.5645,-2.5684,-2.5684,-2.5732,-2.5955,-2.6294,-2.6587,-2.6915,-2.7427,-2.8224,-2.8566,-2.9511,-3.0008,-3.0127,-2.9967,-2.9681,-2.9599,-2.9702,-2.974,-2.9792,-2.9792,-2.9779,-2.9779,-2.9779,-2.9779,-2.9779,-2.9779,-2.9779,-2.9779,-2.9779,-2.9779,-2.9779,-2.9779,-2.9779,-2.9779,-2.9779,-2.9779,-2.9779,-2.9779,-2.9779,-2.9779,-2.9779,-2.9779,-2.9779,-2.9779,-2.9779,-2.9779,-2.9779,-2.9779,-2.9779,-2.9779,-2.9779,-2.9779,-2.965,-2.9534,-2.9404,-2.9275,-2.9197,-2.9052,-2.8973,-2.8855,-2.8791,-2.9133,-2.925,-2.9625,-2.9651,-2.9573,-2.9365,-2.9248,-2.9131,-2.904,-2.8934,-2.8867,-2.8907,-2.8973,-2.9013,-2.8961,-2.8882,-2.8764,-2.8685,-2.8566,-2.8419,-2.8207,-2.8115,-2.8115,-2.8223,-2.8315,-2.2861,-2.2847,-2.3013,-2.3101,-2.3101,-2.3101,-2.3101,-2.3101,-2.3101,-2.3101,-2.3101,-2.3101,-2.3101,-2.3101,-2.3101,-2.3101,-2.3101,-2.3101,-2.3101,-2.3101,-2.312,-2.3257,-2.3588,-2.4062,-2.4492,-2.4844,-2.5304,-2.5664,-2.5684,-2.5684,-2.5684,-2.5732,-2.5917,-2.5953,-2.6092,-2.6111,-2.6285,-2.676,-2.6775,-2.7433,-2.863,-2.8952,-2.9298,-2.9211,-2.9275,-2.9404,-2.9611,-2.9663,-2.9702,-2.974,-2.9779,-2.9779,-2.9779,-2.9779,-2.9779,-2.9779,-2.9779,-2.9779,-2.9779,-2.9779,-2.9779,-2.9792,-2.9779,-2.9779,-2.9779,-2.9779,-2.9779,-2.9779,-2.9779,-2.9779,-2.9779,-2.9779,-2.9779,-2.9779,-2.9779,-2.9779,-2.974,-2.965,-2.9611,-2.956,-2.9443,-2.9209,-2.904,-2.8843,-2.8724,-2.8633,-2.8526,-2.8275,-2.8155,-2.7926,-2.8355,-2.8633,-2.8803,-2.9104,-2.9025,-2.8816,-2.8685,-2.8566,-2.8355,-2.8315,-2.8195,-2.8195,-2.8235,-2.8235,-2.8235,-2.8207,-2.8127,-2.7955,-2.7805,-2.7574,-2.74,-2.7267,-2.7296,-2.7244,-2.7174,-2.2471,-2.2568,-2.2857,-2.3052,-2.3101,-2.3101,-2.3101,-2.3101,-2.3101,-2.3101,-2.3101,-2.3101,-2.3101,-2.3101,-2.3101,-2.3101,-2.3101,-2.3101,-2.3101,-2.3101,-2.3101,-2.3208,-2.3549,-2.4072,-2.4492,-2.498,-2.5498,-2.5615,-2.5684,-2.5684,-2.5684,-2.5684,-2.5605,-2.5555,-2.5451,-2.5315,-2.5354,-2.5456,-2.5576,-2.5795,-2.6699,-2.7672,-2.828,-2.8595,-2.8791,-2.8988,-2.9223,-2.9392,-2.9495,-2.9534,-2.9573,-2.9573,-2.9624,-2.9585,-2.9624,-2.9624,-2.9585,-2.9624,-2.9702,-2.9689,-2.974,-2.9792,-2.9792,-2.9779,-2.9779,-2.9779,-2.9779,-2.974,-2.974,-2.974,-2.974,-2.974,-2.974,-2.9663,-2.9663,-2.9611,-2.9534,-2.9404,-2.9314,-2.9236,-2.8988,-2.8712,-2.8435,-2.8195,-2.8035,-2.7955,-2.7782,-2.7609,-2.7366,-2.704,-2.704,-2.7244,-2.7377,-2.7672,-2.8127,-2.8167,-2.7995,-2.758,-2.7377,-2.7447,-2.7447,-2.7121,-2.7092,-2.7406,-2.7366,-2.7296,-2.7185,-2.701,-2.6828,-2.6674,-2.6498,-2.631,-2.6227,-2.6144,-2.5893,-2.2207,-2.2519,-2.2607,-2.2779,-2.3052,-2.3091,-2.3101,-2.3101,-2.3101,-2.3101,-2.3101,-2.3101,-2.3101,-2.3101,-2.3101,-2.3101,-2.3101,-2.3101,-2.3101,-2.3101,-2.3101,-2.3159,-2.3393,-2.3926,-2.4404,-2.4961,-2.5478,-2.5635,-2.5684,-2.5684,-2.5664,-2.5635,-2.5312,-2.5174,-2.5018,-2.4749,-2.4354,-2.4436,-2.4611,-2.4866,-2.5509,-2.6529,-2.7504,-2.7995,-2.8554,-2.8752,-2.8961,-2.9091,-2.9052,-2.9052,-2.904,-2.9131,-2.9209,-2.93,-2.93,-2.9339,-2.9339,-2.9378,-2.9404,-2.9482,-2.9534,-2.9675,-2.9663,-2.9714,-2.9714,-2.9702,-2.965,-2.9482,-2.9521,-2.9624,-2.9663,-2.9663,-2.9663,-2.9365,-2.9236,-2.9079,-2.891,-2.8724,-2.8578,-2.8447,-2.8275,-2.7914,-2.7499,-2.7255,-2.6928,-2.6764,-2.6464,-2.6299,-2.6091,-2.5935,-2.581,-2.5935,-2.606,-2.6599,-2.7174,-2.7226,-2.7051,-2.6682,-2.6351,-2.6299,-2.6133,-2.5726,-2.581,-2.6246,-2.634,-2.6268,-2.6144,-2.6019,-2.5863,-2.5706,-2.558,-2.5401,-2.5274,-2.5189,-2.502]},{"header":{"parameterUnit":"m.s-1","parameterCategory":1,"la1":31.0,"la2":29.5877,"lo1":-88.7671,"lo2":-86.6584,"dy":0.0162,"dx":0.0185,"nx":115,"ny":88,"refTime":"2023-11-06T18:00:00:Z","depth":0,"parameterNumber":3,"parameterNumberName":"V-component_of_WINDS"},"data":[0.0,0.0,0.0,0.0,0.0,0.0,0.0,0.0,0.0,0.0,0.0,0.0,0.0,0.0,0.0,0.0,0.0,0.0,0.0,0.0,0.0,0.0,0.0,0.0,0.0,0.0,0.0,0.0,0.0,0.0,0.0,0.0,0.0,0.0,0.0,0.0,0.0,0.0,0.0,0.0,0.0,0.0,0.0,0.0,0.0,0.0,0.0,0.0,0.0,0.0,0.0,0.0,0.0,0.0,0.0,0.0,0.0,0.0,0.0,0.0,0.0,0.0,0.0,0.0,0.0,0.0,0.0,0.0,0.0,0.0,0.0,0.0,0.0,0.0,0.0,0.0,0.0,0.0,0.0,0.0,0.0,0.0,0.0,0.0,0.0,0.0,0.0,0.0,0.0,0.0,0.0,0.0,0.0,0.0,0.0,0.0,0.0,0.0,0.0,0.0,0.0,0.0,0.0,0.0,0.0,0.0,0.0,0.0,0.0,0.0,0.0,0.0,0.0,0.0,0.0,0.0,0.0,0.0,0.0,0.0,0.0,0.0,0.0,0.0,0.0,0.0,0.0,0.0,0.0,0.0,0.0,0.0,0.0,0.0,0.0,0.0,0.0,0.0,0.0,0.0,0.0,0.0,0.0,0.0,0.0,0.0,0.0,0.0,0.0,0.0,0.0,0.0,0.0,0.0,0.0,0.0,0.0,0.0,0.0,0.0,0.0,0.0,0.0,0.0,0.0,0.0,0.0,0.0,0.0,0.0,0.0,0.0,0.0,0.0,0.0,0.0,0.0,0.0,0.0,0.0,0.0,0.0,0.0,0.0,0.0,0.0,0.0,0.0,0.0,0.0,0.0,0.0,0.0,0.0,0.0,0.0,0.0,0.0,0.0,0.0,0.0,0.0,0.0,0.0,0.0,0.0,0.0,0.0,0.0,0.0,0.0,0.0,0.0,0.0,0.0,0.0,0.0,0.0,0.0,0.0,0.0,0.0,0.0,0.0,0.0,0.0,0.0,0.0,0.0,0.0,0.0,0.0,0.0,0.0,0.0,0.0,0.0,0.0,0.0,0.0,0.0,0.0,0.0,0.0,0.0,0.0,0.0,0.0,0.0,0.0,0.0,0.0,0.0,0.0,0.0,0.0,0.0,0.0,0.0,0.0,0.0,0.0,0.0,0.0,0.0,0.0,0.0,0.0,0.0,0.0,0.0,0.0,0.0,0.0,0.0,0.0,0.0,0.0,0.0,0.0,0.0,0.0,0.0,0.0,0.0,0.0,0.0,0.0,0.0,0.0,0.0,0.0,0.0,0.0,0.0,0.0,0.0,0.0,0.0,0.0,0.0,0.0,0.0,0.0,0.0,0.0,0.0,0.0,0.0,0.0,0.0,0.0,0.0,0.0,0.0,0.0,0.0,0.0,0.0,0.0,0.0,0.0,0.0,0.0,0.0,0.0,0.0,0.0,0.0,0.0,0.0,0.0,0.0,0.0,0.0,0.0,0.0,0.0,0.0,0.0,0.0,0.0,0.0,0.0,0.0,0.0,0.0,0.0,0.0,0.0,0.0,0.0,0.0,0.0,0.0,0.0,0.0,0.0,0.0,0.0,0.0,0.0,0.0,0.0,0.0,0.0,0.0,0.0,0.0,0.0,0.0,0.0,0.0,0.0,0.0,0.0,0.0,0.0,0.0,0.0,0.0,0.0,0.0,0.0,0.0,0.0,0.0,0.0,0.0,0.0,0.0,0.0,0.0,0.0,0.0,0.0,0.0,0.0,0.0,0.0,0.0,0.0,0.0,0.0,0.0,0.0,0.0,0.0,0.0,0.0,0.0,0.0,0.0,0.0,0.0,0.0,0.0,0.0,0.0,0.0,0.0,0.0,0.0,0.0,0.0,0.0,0.0,0.0,0.0,0.0,0.0,0.0,0.0,0.0,0.0,0.0,0.0,0.0,0.0,0.0,0.0,0.0,0.0,0.0,0.0,0.0,0.0,0.0,0.0,0.0,0.0,0.0,0.0,0.0,0.0,0.0,0.0,0.0,0.0,0.0,0.0,0.0,0.0,0.0,0.0,0.0,0.0,0.0,0.0,0.0,0.0,0.0,0.0,0.0,0.0,0.0,0.0,0.0,0.0,0.0,0.0,0.0,0.0,0.0,0.0,0.0,0.0,0.0,0.0,0.0,0.0,0.0,0.0,0.0,0.0,0.0,0.0,0.0,0.0,0.0,0.0,0.0,0.0,0.0,0.0,0.0,0.0,0.0,0.0,0.0,0.0,0.0,0.0,0.0,0.0,0.0,0.0,0.0,0.0,0.0,0.0,0.0,0.0,0.0,0.0,0.0,0.0,0.0,0.0,0.0,0.0,0.0,0.0,0.0,0.0,0.0,0.0,0.0,0.0,0.0,0.0,0.0,0.0,0.0,0.0,0.0,0.0,0.0,0.0,0.0,0.0,0.0,0.0,0.0,0.0,0.0,0.0,0.0,0.0,0.0,0.0,0.0,0.0,0.0,0.0,0.0,0.0,0.0,0.0,0.0,0.0,0.0,0.0,0.0,0.0,0.0,0.0,0.0,0.0,0.0,0.0,0.0,0.0,0.0,0.0,0.0,0.0,0.0,0.0,0.0,0.0,0.0,0.0,0.0,0.0,0.0,0.0,0.0,0.0,0.0,0.0,0.0,0.0,0.0,0.0,0.0,0.0,0.0,0.0,0.0,0.0,0.0,0.0,0.0,0.0,0.0,0.0,0.0,0.0,0.0,0.0,0.0,0.0,0.0,0.0,0.0,0.0,0.0,0.0,0.0,0.0,0.0,0.0,0.0,0.0,0.0,0.0,0.0,0.0,0.0,0.0,0.0,0.0,0.0,0.0,0.0,0.0,0.0,0.0,0.0,0.0,0.0,0.0,0.0,0.0,0.0,0.0,0.0,0.0,0.0,0.0,0.0,0.0,0.0,0.0,0.0,0.0,0.0,0.0,0.0,0.0,0.0,0.0,0.0,0.0,0.0,0.0,0.0,0.0,0.0,0.0,0.0,0.0,0.0,0.0,0.0,0.0,0.0,0.0,0.0,0.0,0.0,0.0,0.0,0.0,0.0,0.0,0.0,0.0,0.0,0.0,0.0,0.0,0.0,0.0,0.0,0.0,0.0,0.0,0.0,0.0,0.0,0.0,0.0,0.0,0.0,0.0,0.0,0.0,0.0,0.0,0.0,0.0,0.0,0.0,0.0,0.0,0.0,0.0,0.0,0.0,0.0,0.0,0.0,0.0,0.0,0.0,0.0,0.0,0.0,0.0,0.0,0.0,0.0,0.0,0.0,0.0,0.0,0.0,0.0,0.0,0.0,0.0,0.0,0.0,0.0,0.0,0.0,0.0,0.0,0.0,0.0,0.0,0.0,0.0,0.0,0.0,0.0,0.0,0.0,0.0,0.0,0.0,0.0,0.0,0.0,0.0,0.0,0.0,0.0,0.0,0.0,0.0,0.0,0.0,0.0,0.0,0.0,0.0,0.0,0.0,0.0,0.0,0.0,0.0,0.0,0.0,0.0,0.0,0.0,0.0,0.0,0.0,0.0,0.0,0.0,0.0,0.0,0.0,0.0,0.0,0.0,0.0,0.0,0.0,0.0,0.0,0.0,0.0,0.0,0.0,0.0,0.0,0.0,0.0,0.0,0.0,0.0,0.0,0.0,0.0,0.0,0.0,0.0,0.0,0.0,0.0,0.0,0.0,0.0,0.0,0.0,0.0,0.0,0.0,0.0,0.0,0.0,0.0,0.0,0.0,0.0,0.0,0.0,0.0,0.0,0.0,0.0,0.0,0.0,0.0,0.0,0.0,0.0,0.0,0.0,0.0,0.0,0.0,0.0,0.0,0.0,0.0,0.0,0.0,0.0,0.0,0.0,0.0,0.0,0.0,0.0,0.0,0.0,0.0,0.0,0.0,0.0,0.0,0.0,0.0,0.0,0.0,0.0,0.0,0.0,0.0,0.0,0.0,0.0,0.0,0.0,0.0,0.0,0.0,0.0,0.0,0.0,0.0,0.0,0.0,0.0,0.0,0.0,0.0,0.0,0.0,0.0,0.0,0.0,0.0,0.0,0.0,0.0,0.0,0.0,0.0,0.0,0.0,0.0,0.0,0.0,0.0,0.0,0.0,0.0,0.0,0.0,0.0,0.0,0.0,0.0,0.0,0.0,0.0,0.0,0.0,0.0,0.0,0.0,0.0,0.0,0.0,0.0,0.0,0.0,0.0,0.0,0.0,0.0,0.0,0.0,0.0,0.0,0.0,0.0,0.0,0.0,0.0,0.0,0.0,0.0,0.0,0.0,0.0,0.0,0.0,0.0,0.0,0.0,0.0,0.0,0.0,0.0,0.0,0.0,0.0,0.0,0.0,0.0,0.0,0.0,0.0,0.0,0.0,0.0,0.0,0.0,0.0,0.0,0.0,0.0,0.0,0.0,0.0,0.0,0.0,0.0,0.0,0.0,0.0,0.0,0.0,0.0,0.0,0.0,0.0,0.0,0.0,0.0,0.0,0.0,0.0,0.0,0.0,0.0,0.0,0.0,0.0,0.0,0.0,0.0,0.0,0.0,0.0,0.0,0.0,0.0,0.0,0.0,0.0,0.0,0.0,0.0,0.0,0.0,0.0,0.0,0.0,0.0,0.0,0.0,0.0,0.0,0.0,0.0,0.0,0.0,0.0,0.0,0.0,0.0,0.0,0.0,0.0,0.0,0.0,0.0,0.0,0.0,0.0,0.0,0.0,0.0,0.0,0.0,0.0,0.0471,0.0471,0.0152,0.0037,0.0149,0.0,0.0,0.0,0.0,0.0,0.0,0.0,0.0,0.0,0.0,0.0,0.0,0.0,0.0,0.0,0.0,0.0,0.0,0.0,0.0,0.0,0.0,0.0,0.0,0.0,0.0,0.0,0.0,0.0,0.0,0.0,0.0,0.0,0.0,0.0,0.0,0.0,0.0,0.0,0.0,0.0,0.0,0.0,0.0,0.0,0.0,0.0,0.0,0.0,0.0,0.0,0.0,0.0,0.0,0.0,0.0,0.0,0.0,0.0,0.0,0.0,0.0,0.0,0.0,0.0,0.0,0.0,0.0,0.0,0.0,0.0,0.0,0.0,0.0,0.0,0.0,0.0,0.0,0.0,0.0,0.0,0.0,0.0,0.0,0.0,0.0,0.0,0.0,0.0,0.0,0.0,0.0,0.0,0.0,0.0,0.0,0.0,0.0,0.0,0.0,0.0,0.0,0.0,0.0,0.0,0.0,0.0,0.0,0.0,0.0,0.0,0.0,0.0268,0.015,0.0335,0.0,0.0,0.0,0.0,0.0,0.0,0.0,0.0,0.0,0.0,0.0,0.0,0.0,0.0,0.0,0.0,0.0,0.0,0.0,0.0,0.0,0.0,0.0,0.0,0.0,0.0,0.0,0.0,0.0,0.0,0.0,0.0,0.0,0.0,0.0,0.0,0.0,0.0,0.0,0.0,0.0,0.0,0.0,0.0,0.0,0.0,0.0,0.0,0.0,0.0,0.0,0.0,0.0,0.0,0.0,0.0,0.0,0.0,0.0,0.0,0.0,0.0,0.0,0.0,0.0,0.0,0.0,0.0,0.0,0.0,0.0,0.0,0.0,0.0,0.0,0.0,0.0,0.0,0.0,0.0,0.0,0.0,0.0,0.0,0.0,0.0,0.0,0.0,0.0,0.0,0.0,0.0,0.0,0.0,0.0,0.0,0.0,0.0,0.0,0.0,0.0,0.0,0.0,0.0,0.0,0.0,0.0,0.0,0.0,0.0,0.114,0.0864,0.0499,0.0,0.0496,0.0,0.0,0.0,0.0,0.0,0.0,0.0,0.0,0.0,0.0,0.0,0.0,0.0,0.0,0.0,0.0,0.0,0.0,0.0,0.0,0.0,0.0,0.0,0.0,0.0,0.0,0.0,0.0,0.0,0.0,0.0,0.0,0.0,0.0,0.0,0.0,0.0,0.0,0.0,0.0,0.0,0.0,0.0,0.0,0.0,0.0,0.0,0.0,0.0,0.0,0.0,0.0,0.0,0.0,0.0,0.0,0.0,0.0,0.0,0.0,0.0,0.0,0.0,0.0,0.0,0.0,0.0,0.0,0.0,0.0,0.0,0.0,0.0,0.0,0.0,0.0,0.0,0.0,0.0,0.0,0.0,0.0,0.0,0.0,0.0,0.0,0.0,0.0,0.0,0.0,0.0,0.0,0.0,0.0,0.0,0.0,0.0,0.0,0.0,0.0,0.0,0.0,0.0,0.0,0.0,0.0,0.0,0.0,0.0,0.0,0.1632,0.1492,0.1205,0.1135,0.0,0.0,0.0,0.0,0.0,0.0,0.0,0.0,0.0,0.0,0.0,0.0,0.0,0.0,0.0,0.0,0.0,0.0,0.0,0.0,0.0,0.0,0.0,0.0,0.0,0.0,0.0,0.0,0.0,0.0,0.0,0.0,0.0,0.0,0.0,0.0,0.0,0.0,0.0,0.0,0.0,0.0,0.0,0.0,0.0,0.0,0.0,0.0,0.0,0.0,0.0,0.0,0.0,0.0,0.0,0.0,0.0,0.0,0.0,0.0,0.0,0.0,0.0,0.0,0.0,0.0,0.0,0.0,0.0,0.0,0.0,0.0,0.0,0.0,0.0,0.0,0.0,0.0,0.0,0.0,0.0,0.0,0.0,0.0,0.0,0.0,0.0,0.0,0.0,0.0,0.0,0.0,0.0,0.0,0.0,0.0,0.0,0.0,0.0,0.0,0.0,0.0,0.0,0.0,0.0,0.0,0.0,0.0,0.0,0.0,0.2817,0.2298,0.208,0.1845,0.1804,0.1935,0.0,0.0,0.0,0.0,0.0,0.0,0.0,0.0,0.0,0.0,0.0,0.0,0.0,0.0,0.0,0.0,0.0,0.0,0.0,0.0,0.0,0.0,0.0,0.0,0.0,0.0,0.0,0.0,0.0,0.0,0.0,0.0,0.0,0.0,0.0,0.0,0.0,0.0,0.0,0.0,0.0,0.0,0.0,0.0,0.0,0.0,0.0,0.0,0.0,0.0,0.0,0.0,0.0,0.0,0.0,0.0,0.0,0.0,0.0,0.0,0.0,0.0,0.0,0.0,0.0,0.0,0.0,0.0,0.0,0.0,0.0,0.0,0.0,0.0,0.0,0.0,0.0,0.0,0.0,0.0,0.0,0.0,0.0,0.0,0.0,0.0,0.0,0.0,0.0,0.0,0.0,0.0,0.0,0.0,0.0,0.0,0.0,0.0,0.0,0.0,0.0,0.0,0.0,0.0,0.0,0.0,0.0,0.0,0.4148,0.3672,0.3142,0.2508,0.2273,0.2301,0.0,0.0,0.0,0.0,0.0,0.0,0.0,0.0,0.0,0.0,0.0,0.0,0.0,0.0,0.0,0.0,0.0,0.0,0.0,0.0,0.0,0.0,0.0,0.0,0.0,0.0,0.0,0.0,0.0,0.0,0.0,0.0,0.0,0.0,0.0,0.0,0.0,0.0,0.0,0.0,0.0,0.0,0.0,0.0,0.0,0.0,0.0,0.0,0.0,0.0,0.0,0.0,0.0,0.0,0.0,0.0,0.0,0.0,0.0,0.0,0.0,0.0,0.0,0.0,0.0,0.0,0.0,0.0,0.0,0.0,0.0,0.0,0.0,0.0,0.0,0.0,0.0,0.0,0.0,0.0,0.0,0.0,0.0,0.0,0.0,0.0,0.0,0.0,0.0,0.0,0.0,0.0,0.0,0.0,0.0,0.0,0.0,0.0,0.0,0.0,0.0,0.0,0.0,0.0,0.0,0.0,0.0,0.0,0.0,0.4654,0.4374,0.4105,0.3798,0.3579,0.3539,0.0,0.0,0.0,0.0,0.0,0.0,0.0,0.0,0.0,0.0,0.0,0.0,0.0,0.0,0.0,0.0,0.0,0.0,0.0,0.0,0.0,0.0,0.0,0.0,0.0,0.0,0.0,0.0,0.0,0.0,0.0,0.0,0.0,0.0,0.0,0.0,0.0,0.0,0.0,0.0,0.0,0.0,0.0,0.0,0.0,0.0,0.0,0.0,0.0,0.0,0.0,0.0,0.0,0.0,0.0,0.0,0.0,0.0,0.0,0.0,0.0,0.0,0.0,0.0,0.0,0.0,0.0,0.0,0.0,0.0,0.0,0.0,0.0,0.0,0.0,0.0,0.0,0.0,0.0,0.0,0.0,0.0,0.0,0.0,0.0,0.0,0.0,0.0,0.0,0.0,0.0,0.0,0.0,0.0,0.0,0.0,0.0,0.0,0.0,0.0,0.0,0.0,0.0,0.0,0.0,0.0,0.0,0.0,0.0,0.5158,0.0,0.4854,0.4763,0.4544,0.4472,0.0,0.0,0.0,0.0,0.0,0.0,0.0,0.0,0.0,0.0,0.0,0.0,0.0,0.0,0.0,0.0,0.0,0.0,0.0,0.0,0.0,0.0,0.0,0.0,0.0,0.0,0.0,0.0,0.0,0.0,0.0,0.0,0.0,0.0,0.0,0.0,0.0,0.0,0.0,0.0,0.0,0.0,0.0,0.0,0.0,0.0,0.0,0.0,0.0,0.0,0.0,0.0,0.0,0.0,0.0,0.0,0.0,0.0,0.0,0.0,0.0,0.0,0.0,0.0,0.0,0.0,0.0,0.0,0.0,0.0,0.0,0.0,0.0,0.0,0.0,0.0,0.0,0.0,0.0,0.0,0.0,0.0,0.0,0.0,0.0,0.0,0.0,0.0,0.0,0.0,0.0,0.0,0.0,0.0,0.0,0.0,0.0,0.0,0.0,0.0,0.0,0.0,0.0,0.0,0.0,0.0,0.0,0.0,0.5772,0.5688,0.5455,0.5338,0.5285,0.5121,0.5007,0.0,0.0,0.0,0.0,0.0,0.0,0.0,0.0,0.0,0.0,0.0,0.0,0.0,0.0,0.0,0.0,0.0,0.0,0.0,0.0,0.0,0.0,0.0,0.0,0.0,0.0,0.0,0.0,0.0,0.0,0.0,0.0,0.0,0.0,0.0,0.0,0.0,0.0,0.0,0.0,0.0,0.0,0.0,0.0,0.0,0.0,0.0,0.0,0.0,0.0,0.0,0.0,0.0,0.0,0.0,0.0,0.0,0.0,0.0,0.0,0.0,0.0,0.0,0.0,0.0,0.0,0.0,0.0,0.0,0.0,0.0,0.0,0.0,0.0,0.0,0.0,0.0,0.0,0.0,0.0,0.0,0.0,0.0,0.0,0.0,0.0,0.0,0.0,0.0,0.0,0.0,0.0,0.0,0.0,0.0,0.0,0.0,0.0,0.0,0.0,0.0,0.0,0.0,0.0,0.0,0.0,0.0,0.0,0.0,0.625,0.6241,0.623,0.6129,0.5993,0.5774,0.0,0.0,0.0,0.0,0.0,0.0,0.0,0.0,0.0,0.0,0.0,0.0,0.0,0.0,0.0,0.0,0.0,0.0,0.0,0.0,0.0,0.0,0.0,0.0,0.0,0.0,0.0,0.0,0.0,0.0,0.0,0.0,0.0,0.0,0.0,0.0,0.0,0.0,0.0,0.0,0.0,0.0,0.0,0.0,0.0,0.0,0.0,0.0,0.0,0.0,0.0,0.0,0.0,0.0,0.0,0.0,0.0,0.0,0.0,0.0,0.0,0.0,0.0,0.0,0.0,0.0,0.0,0.0,0.0,0.0,0.0,0.0,0.0,0.0,0.0,0.0,0.0,0.0,0.0,0.0,0.0,0.0,0.0,0.0,0.0,0.0,0.0,0.0,0.0,0.0,0.0,0.0,0.0,0.0,0.0,0.0,0.0,0.0,0.0,0.0,0.0,0.0,0.0,0.0,0.0,0.0,0.0,0.0,0.0,0.7285,0.7052,0.6864,0.6805,0.6582,0.6254,0.5901,0.0,0.0,0.0,0.0,0.0,0.0,0.0,0.0,0.0,0.0,0.0,0.0,0.0,0.0,0.0,0.0,0.0,0.0,0.0,0.0,0.0,0.0,0.0,0.0,0.0,0.0,0.0,0.0,0.0,0.0,0.0,0.0,0.0,0.0,0.0,0.0,0.0,0.0,0.0,0.0,0.0,0.0,0.0,0.0,0.0,0.0,0.0,0.0,0.0,0.0,0.0,0.0,0.0,0.0,0.0,0.0,0.0,0.0,0.0,0.0,0.0,0.0,0.0,0.0,0.0,0.0,0.0,0.0,0.0,0.0,0.0,0.0,0.0,0.0,0.0,0.0,0.0,0.0,0.0,0.0,0.0,0.0,0.0,0.0,0.0,0.0,0.0,0.0,0.0,0.0,0.0,0.0,0.0,0.0,0.0,0.0,0.0,0.0,0.0,0.0,0.0,0.0,0.0,0.0,0.0,0.0,0.0,0.0,0.8727,0.7954,0.7494,0.7418,0.7003,0.6538,0.0,0.0,0.0,0.0,0.0,0.0,0.0,0.0,0.0,0.0,0.0,0.0,0.0,0.0,0.0,0.0,0.0,0.0,0.0,0.0,0.0,0.0,0.0,0.0,0.0,0.0,0.0,0.0,0.0,0.0,0.0,0.0,0.0,0.0,0.0,0.0,0.0,0.0,0.0,0.0,0.0,0.0,0.0,0.0,0.0,0.0,0.0,0.0,0.0,0.0,0.0,0.0,0.0,0.0,0.0,0.0,0.0,0.0,0.0,0.0,0.0,0.0,0.0,0.0,0.0,0.0,0.0,0.0,0.0,0.0,0.0,0.0,0.0,0.0,0.0,0.0,0.0,0.0,0.0,0.0,0.0,0.0,0.0,0.0,0.0,0.0,0.0,0.0,0.0,0.0,0.0,0.0,0.0,0.0,0.0,0.0,0.0,0.0,0.0,0.0,0.0,0.0,0.0,0.0,0.0,0.0,0.0,0.0,0.0,1.0317,1.0283,0.9727,0.8609,0.799,0.7367,0.0,0.0,0.0,0.0,0.0,0.0,0.0,0.0,0.0,0.0,0.0,0.0,0.0,0.0,0.0,0.0,0.0,0.0,0.0,0.0,0.0,0.0,0.0,0.0,0.0,0.0,0.0,0.0,0.0,0.0,0.0,0.0,0.0,0.0,0.0,0.0,0.0,0.0,0.0,0.0,0.0,0.0,0.0,0.0,0.0,0.0,0.0,0.0,0.0,0.0,0.0,0.0,0.0,0.0,0.0,0.0,0.0,0.0,0.0,0.0,0.0,0.0,0.0,0.0,0.0,0.0,0.0,0.0,0.0,0.0,0.0,0.0,0.0,0.0,0.0,0.0,0.0,0.0,0.0,0.0,0.0,0.0,0.0,0.0,0.0,0.0,0.0,0.0,0.0,0.0,0.0,0.0,0.0,0.0,0.0,0.0,0.0,0.0,0.0,0.0,0.0,0.0,0.0,0.0,0.0,0.0,0.0,0.0,1.0858,1.178,1.2278,1.2104,1.1117,0.9535,0.8292,0.0,0.0,0.0,0.0,0.0,0.0,0.0,0.0,0.0,0.0,0.0,0.0,0.0,0.0,0.0,0.0,0.0,0.0,0.0,0.0,0.0,0.0,0.0,0.0,0.0,0.0,0.0,0.0,0.0,0.0,0.0,0.0,0.0,0.0,0.0,0.0,0.0,0.0,0.0,0.0,0.0,0.0,0.0,0.0,0.0,0.0,0.0,0.0,0.0,0.0,0.0,0.0,0.0,0.0,0.0,0.0,0.0,0.0,0.0,0.0,0.0,0.0,0.0,0.0,0.0,0.0,0.0,0.0,0.0,0.0,0.0,0.0,0.0,0.0,0.0,0.0,0.0,0.0,0.0,0.0,0.0,0.0,0.0,0.0,0.0,0.0,0.0,0.0,0.0,0.0,0.0,0.0,0.0,0.0,0.0,0.0,0.0,0.0,0.0,0.0,0.0,0.0,0.0,0.0,0.0,0.0,0.0,0.0,1.2264,1.3047,1.3916,1.4272,1.3978,1.1326,0.9386,0.0,0.0,0.0,0.0,0.0,0.0,0.0,0.0,0.0,0.0,0.0,0.0,0.0,0.0,0.0,0.0,0.0,0.0,0.0,0.0,0.0,0.0,0.0,0.0,0.0,0.0,0.0,0.0,0.0,0.0,0.0,0.0,0.0,0.0,0.0,0.0,0.0,0.0,0.0,0.0,0.0,0.0,0.0,0.0,0.0,0.0,0.0,0.0,0.0,0.0,0.0,0.0,0.0,0.0,0.0,0.0,0.0,0.0,0.0,0.0,0.0,0.0,0.0,0.0,0.0,0.0,0.0,0.0,0.0,0.0,0.0,0.0,0.0,0.0,0.0,0.0,0.0,0.0,0.0,0.0,0.0,0.0,0.0,0.0,0.0,0.0,0.0,0.0,0.0,0.0,0.0,0.0,0.0,0.0,0.0,0.0,0.0,0.0,0.0,0.0,0.0,0.0,0.0,0.0,0.0,0.0,0.0,0.0,1.2985,1.3886,1.4544,1.4735,1.4479,1.2494,1.0931,0.0,0.0,0.0,0.0,0.0,0.0,0.0,0.0,0.0,0.0,0.0,0.0,0.0,0.0,0.0,0.0,0.0,0.0,0.0,0.0,0.0,0.0,0.0,0.0,0.0,0.0,0.0,0.0,0.0,0.0,0.0,0.0,0.0,0.0,0.0,0.0,0.0,0.0,0.0,0.0,0.0,0.0,0.0,0.0,0.0,0.0,0.0,0.0,1.0778,0.0,0.0,0.0,0.0,0.0,0.0,0.0,0.0,0.0,0.0,0.0,0.0,0.0,0.0,0.0,0.0,0.0,0.0,0.0,0.0,0.0,0.0,0.0,0.0,0.0,0.0,0.0,0.0,0.0,0.0,0.0,0.0,0.0,0.0,0.0,0.0,0.0,0.0,0.0,0.0,0.0,0.0,0.0,0.0,0.0,0.0,0.0,0.0,0.0,0.0,0.0,0.0,0.0,0.0,0.0,0.0,0.0,0.0,0.0,1.3675,1.4591,1.5258,1.5496,1.514,1.3746,1.2263,0.0,0.0,0.0,0.0,0.0,0.0,0.0,0.0,0.0,0.0,0.0,0.0,0.0,0.0,0.0,0.0,0.0,0.0,0.0,0.0,0.0,0.0,0.0,0.0,0.0,0.0,0.0,0.0,0.0,0.0,0.0,0.0,0.0,0.0,0.0,0.0,0.0,0.0,0.0,0.0,0.0,0.0,0.0,0.0,0.0,0.0,0.0,0.0,0.0,0.0,0.0,0.0,0.0,0.0,0.0,0.0,0.0,0.0,0.0,0.0,0.0,0.0,0.0,0.0,0.0,0.0,0.0,0.0,0.0,0.0,0.0,0.0,0.0,0.0,0.0,0.0,0.0,0.0,0.0,0.0,0.0,0.0,0.0,0.0,0.0,0.0,0.0,0.0,0.0,0.0,0.0,0.0,0.0,0.0,0.0,0.0,0.0,0.0,0.0,0.0,0.0,0.0,0.0,0.0,0.0,0.0,0.0,1.315,1.4265,1.5081,1.5858,1.6039,1.5698,1.4705,1.3304,1.1441,0.0,0.0,0.0,0.0,0.0,0.0,0.0,0.0,0.0,0.0,0.0,0.0,0.0,0.0,0.0,0.0,0.0,0.0,0.0,0.0,0.0,0.0,0.0,0.0,0.0,0.0,0.0,0.0,0.0,0.0,0.0,0.0,0.0,0.0,0.0,0.0,0.0,0.0,1.2395,1.2956,0.0,0.0,0.0,0.0,0.0,0.0,0.0,0.0,1.1584,0.0,0.0,0.0,0.0,0.0,0.0,0.0,0.0,0.0,0.0,0.0,0.0,0.0,0.0,0.0,0.0,0.0,0.0,0.0,0.0,0.0,0.0,0.0,0.0,0.0,0.0,0.0,0.0,0.0,0.0,0.0,0.0,0.0,0.0,0.0,0.0,0.0,0.0,0.0,0.0,0.0,0.0,0.0,0.0,0.0,0.0,0.0,0.0,0.0,0.0,0.0,0.0,0.0,0.0,0.0,0.0,1.2224,1.34,1.4346,1.4978,1.5605,1.5651,1.5117,1.4489,1.3472,1.217,0.0,0.0,0.0,0.0,0.0,0.0,0.0,0.0,0.0,0.0,0.0,0.0,0.0,0.0,0.0,0.0,0.0,0.0,0.0,0.0,0.0,0.0,0.0,0.0,0.0,0.0,0.0,0.0,0.0,0.0,0.0,0.0,0.0,0.0,0.0,0.0,0.0,0.0,0.0,1.3774,1.4029,0.0,0.0,0.0,0.0,0.0,0.0,0.0,0.0,1.2464,0.0,0.0,0.0,0.0,0.0,0.0,0.0,0.0,0.0,0.0,0.0,0.0,0.0,0.0,0.0,0.0,0.0,0.0,0.0,0.0,0.0,0.0,0.0,0.0,0.0,0.0,0.0,0.0,0.0,0.0,0.0,0.0,0.0,0.0,0.0,0.0,0.0,0.0,0.0,0.0,0.0,0.0,0.0,0.0,0.0,0.0,0.0,0.0,0.0,0.0,0.0,0.0,0.0,0.0,0.0,1.2331,1.348,1.4376,1.4995,1.5378,1.537,1.4882,1.4338,1.3453,0.0,0.0,0.0,0.0,0.0,0.0,0.0,0.0,0.0,0.0,0.0,0.0,0.0,0.0,0.0,0.0,0.0,0.0,0.0,0.0,0.0,0.0,0.0,0.0,0.0,0.0,0.0,0.0,0.0,0.0,0.0,0.0,0.0,0.0,0.0,0.0,0.0,0.0,0.0,0.0,1.4374,1.4589,1.4784,0.0,0.0,0.0,0.0,0.0,0.0,1.3248,1.3188,0.0,0.0,0.0,0.0,0.0,0.0,0.0,0.0,0.0,0.0,0.0,0.0,0.0,0.0,0.0,0.0,0.0,0.0,0.0,0.0,0.0,0.0,0.0,0.0,0.0,0.0,0.0,0.0,0.0,0.0,0.0,0.0,0.0,0.0,0.0,0.0,0.0,0.0,0.0,0.0,0.0,0.0,0.0,0.0,0.0,0.0,0.0,0.0,0.0,0.0,0.0,0.0,0.0,0.0,0.0,1.2502,1.3621,1.4538,1.5154,1.5368,1.5277,1.4917,1.4255,1.3424,0.0,0.0,0.0,0.0,0.0,0.0,0.0,0.0,0.0,0.0,0.0,0.0,0.0,0.0,0.0,0.0,0.0,0.0,0.0,0.0,0.0,0.0,0.0,0.0,0.0,0.0,0.0,0.0,0.0,0.0,0.0,0.0,0.0,0.0,0.0,0.0,0.0,0.0,0.0,0.0,0.0,1.5196,1.5374,1.507,0.0,0.0,0.0,0.0,1.3972,1.408,0.0,0.0,0.0,0.0,0.0,0.0,0.0,0.0,0.0,0.0,0.0,0.0,0.0,0.0,0.0,0.0,0.0,0.0,0.0,0.0,0.0,0.0,0.0,0.0,0.0,0.0,0.0,0.0,0.0,0.0,0.0,0.0,0.0,0.0,0.0,0.0,0.0,0.0,0.0,0.0,0.0,0.0,0.0,0.0,0.0,0.0,0.0,0.0,0.0,0.0,0.0,0.0,0.0,0.0,0.0,0.0,1.309,1.4048,1.4919,1.5677,1.572,1.5576,1.5223,1.4324,1.3473,0.0,0.0,0.0,0.0,0.0,0.0,0.0,0.0,0.0,0.0,0.0,0.0,0.0,0.0,0.0,0.0,0.0,0.0,0.0,0.0,0.0,0.0,0.0,0.0,0.0,0.0,0.0,0.0,0.0,0.0,0.0,0.0,0.0,0.0,0.0,0.0,0.0,0.0,0.0,0.0,0.0,1.5991,1.5991,1.5806,1.5524,0.0,0.0,1.5081,1.5032,1.5032,0.0,0.0,0.0,0.0,0.0,0.0,0.0,0.0,0.0,0.0,0.0,0.0,0.0,0.0,0.0,0.0,0.0,0.0,0.0,0.0,0.0,0.0,0.0,0.0,0.0,0.0,0.0,0.0,0.0,0.0,0.0,0.0,0.0,0.0,0.0,0.0,0.0,0.0,0.0,0.0,0.0,0.0,0.0,0.0,0.0,0.0,0.0,0.0,0.0,0.0,0.0,0.0,0.0,0.0,0.0,1.2684,1.3228,1.4234,1.5028,1.5554,1.5584,1.5509,1.5387,1.4502,1.3843,0.0,0.0,0.0,0.0,0.0,0.0,0.0,0.0,0.0,0.0,0.0,0.0,0.0,0.0,0.0,0.0,0.0,0.0,0.0,0.0,0.0,0.0,0.0,0.0,0.0,0.0,0.0,0.0,0.0,0.0,0.0,0.0,0.0,0.0,0.0,0.0,0.0,0.0,0.0,0.0,0.0,0.0,1.6368,1.6298,0.0,0.0,0.0,1.585,1.5842,0.0,0.0,0.0,0.0,0.0,0.0,0.0,0.0,0.0,0.0,0.0,0.0,0.0,0.0,0.0,0.0,0.0,0.0,0.0,0.0,0.0,0.0,0.0,0.0,0.0,0.0,0.0,0.0,0.0,0.0,0.0,0.0,0.0,0.0,0.0,0.0,0.0,0.0,0.0,0.0,0.0,0.0,0.0,0.0,0.0,0.0,0.0,0.0,0.0,0.0,0.0,0.0,0.0,0.0,0.0,0.0,0.0,1.3693,1.4628,1.538,1.5866,1.5811,1.5722,1.5683,1.4836,0.0,0.0,0.0,0.0,0.0,0.0,0.0,0.0,0.0,0.0,0.0,0.0,0.0,0.0,0.0,0.0,0.0,0.0,0.0,0.0,0.0,0.0,0.0,0.0,0.0,0.0,0.0,1.3587,0.0,0.0,0.0,0.0,0.0,0.0,0.0,0.0,0.0,0.0,0.0,0.0,0.0,0.0,1.6821,1.6821,1.6821,1.6726,0.0,0.0,1.6517,1.6508,1.6517,1.6438,0.0,0.0,0.0,0.0,0.0,0.0,0.0,0.0,0.0,0.0,0.0,0.0,0.0,0.0,0.0,0.0,0.0,0.0,0.0,0.0,0.0,0.0,0.0,0.0,0.0,0.0,0.0,0.0,0.0,0.0,0.0,0.0,0.0,0.0,0.0,0.0,0.0,0.0,0.0,0.0,0.0,0.0,0.0,0.0,0.0,0.0,0.0,0.0,0.0,0.0,0.0,0.0,0.0,0.0,0.0,1.5027,1.5424,1.6171,1.7194,1.69,1.6533,1.6149,1.5314,1.4562,0.0,0.0,0.0,0.0,0.0,0.0,0.0,0.0,0.0,0.0,0.0,0.0,0.0,0.0,0.0,0.0,0.0,0.0,0.0,0.0,0.0,0.0,0.0,0.0,0.0,0.0,0.0,0.0,0.0,0.0,0.0,0.0,0.0,0.0,0.0,0.0,0.0,0.0,0.0,0.0,0.0,1.7426,1.7426,1.7436,1.7358,0.0,0.0,1.7132,1.7132,1.7132,1.7072,1.6874,0.0,0.0,0.0,0.0,0.0,0.0,0.0,0.0,0.0,0.0,0.0,0.0,0.0,0.0,0.0,0.0,0.0,0.0,0.0,0.0,0.0,0.0,0.0,0.0,0.0,0.0,0.0,0.0,0.0,0.0,0.0,0.0,0.0,0.0,0.0,0.0,0.0,0.0,0.0,0.0,0.0,0.0,0.0,0.0,0.0,0.0,0.0,0.0,0.0,0.0,0.0,0.0,0.0,1.453,1.4933,1.5701,1.6276,1.6711,1.6801,1.6683,1.6378,1.5743,1.5209,0.0,0.0,0.0,0.0,0.0,0.0,0.0,0.0,0.0,0.0,0.0,0.0,0.0,0.0,0.0,0.0,0.0,0.0,0.0,0.0,0.0,0.0,0.0,0.0,0.0,0.0,0.0,0.0,1.597,1.6264,1.664,0.0,0.0,0.0,0.0,0.0,0.0,0.0,0.0,0.0,0.0,1.7588,1.7505,1.7564,0.0,0.0,1.7442,1.751,1.7501,1.7501,1.7476,1.7407,1.6474,0.0,0.0,0.0,0.0,0.0,0.0,0.0,0.0,0.0,0.0,0.0,0.0,0.0,0.0,0.0,0.0,0.0,0.0,0.0,0.0,0.0,0.0,0.0,0.0,0.0,0.0,0.0,0.0,0.0,0.0,0.0,0.0,0.0,0.0,0.0,0.0,0.0,0.0,0.0,0.0,0.0,0.0,0.0,0.0,0.0,0.0,0.0,0.0,0.0,0.0,0.0,0.0,1.5017,1.526,1.6039,1.6524,1.667,1.6927,1.6904,1.6548,1.6006,1.5613,0.0,0.0,0.0,0.0,0.0,0.0,0.0,0.0,0.0,0.0,0.0,0.0,0.0,0.0,0.0,0.0,0.0,0.0,0.0,0.0,0.0,0.0,0.0,0.0,0.0,0.0,0.0,0.0,1.668,1.6881,1.7311,0.0,0.0,0.0,0.0,0.0,0.0,0.0,0.0,0.0,0.0,1.7759,1.7666,1.7735,1.7759,1.7666,1.7725,1.7784,1.7784,1.7784,1.7784,1.7774,0.0,0.0,0.0,0.0,0.0,0.0,0.0,0.0,0.0,0.0,0.0,0.0,0.0,0.0,0.0,0.0,0.0,0.0,0.0,0.0,0.0,0.0,0.0,0.0,0.0,0.0,0.0,0.0,0.0,0.0,1.657,0.0,0.0,0.0,0.0,0.0,0.0,0.0,0.0,0.0,0.0,0.0,0.0,0.0,0.0,0.0,0.0,0.0,0.0,0.0,0.0,0.0,0.0,1.5536,1.6246,1.6535,1.6966,1.751,1.7448,1.7155,1.6716,1.6133,1.5618,1.5224,0.0,0.0,0.0,0.0,0.0,0.0,0.0,0.0,0.0,0.0,0.0,0.0,0.0,0.0,0.0,0.0,0.0,0.0,0.0,0.0,0.0,0.0,0.0,0.0,0.0,0.0,1.7585,1.7805,1.7906,0.0,0.0,0.0,0.0,0.0,0.0,0.0,0.0,0.0,0.0,1.7964,1.7974,1.7974,1.7983,1.7974,1.7974,1.7974,1.8008,1.7974,1.7974,1.8008,0.0,0.0,0.0,0.0,0.0,0.0,0.0,0.0,0.0,0.0,0.0,0.0,0.0,0.0,0.0,0.0,0.0,0.0,0.0,0.0,0.0,0.0,0.0,0.0,0.0,0.0,0.0,1.8204,1.7678,0.0,0.0,0.0,0.0,0.0,0.0,0.0,0.0,0.0,0.0,0.0,1.9611,1.9512,0.0,0.0,0.0,0.0,0.0,0.0,0.0,0.0,0.0,0.0,0.0,0.0,1.5974,1.63,1.6618,1.6849,1.7062,1.7282,1.72,1.6759,1.6668,1.6386,1.5943,0.0,0.0,0.0,0.0,0.0,0.0,0.0,0.0,0.0,0.0,0.0,0.0,0.0,0.0,0.0,0.0,0.0,0.0,0.0,0.0,0.0,0.0,0.0,0.0,0.0,1.8451,0.0,0.0,0.0,0.0,0.0,0.0,0.0,0.0,0.0,0.0,0.0,1.8245,1.8313,1.8313,1.8303,1.8202,1.8212,1.8144,0.0,0.0,0.0,0.0,0.0,0.0,0.0,0.0,0.0,0.0,0.0,0.0,0.0,0.0,1.5905,1.4767,1.4483,1.4281,1.3722,0.0,0.0,0.0,0.0,0.0,0.0,0.0,0.0,0.0,0.0,0.0,0.0,0.0,0.0,1.9384,0.0,1.8631,0.0,0.0,0.0,0.0,0.0,0.0,0.0,0.0,1.946,1.9996,2.078,2.0722,2.0543,0.0,1.9517,1.8678,0.0,0.0,0.0,0.0,0.0,0.0,0.0,0.0,1.657,1.6733,1.7032,1.7174,1.7115,1.7305,1.7296,1.7006,1.6969,1.6827,1.6609,1.6599,1.6627,0.0,0.0,0.0,0.0,0.0,0.0,0.0,0.0,0.0,0.0,0.0,0.0,0.0,0.0,0.0,0.0,0.0,0.0,0.0,0.0,0.0,0.0,0.0,1.9053,0.0,0.0,0.0,0.0,0.0,0.0,0.0,0.0,0.0,1.864,1.8573,1.8607,1.8707,1.865,1.8573,1.8472,0.0,0.0,0.0,0.0,0.0,0.0,0.0,1.8281,1.8428,1.8447,1.8447,1.8457,1.8457,1.8369,1.8096,0.0,0.0,1.5867,1.5523,1.5355,1.4925,1.4947,1.5065,1.5034,1.5282,1.5463,0.0,0.0,0.0,0.0,0.0,0.0,0.0,0.0,2.068,2.0378,0.0,1.9698,0.0,0.0,0.0,0.0,0.0,1.8768,0.0,0.0,2.0556,2.1223,2.1908,2.179,2.1719,2.1633,2.0451,1.9765,1.9527,1.8013,0.0,0.0,0.0,0.0,0.0,0.0,1.7329,1.7507,1.7761,1.7817,1.7701,1.7525,1.7437,1.7427,1.707,1.7015,1.7217,1.7245,1.7329,1.7496,1.7329,0.0,0.0,0.0,0.0,0.0,0.0,0.0,0.0,0.0,0.0,0.0,0.0,0.0,0.0,0.0,0.0,0.0,0.0,0.0,0.0,1.9306,0.0,0.0,0.0,0.0,0.0,0.0,0.0,0.0,0.0,0.0,1.9264,1.9175,1.9131,1.9131,0.0,0.0,0.0,0.0,1.8347,1.8303,1.8154,1.8174,1.8564,1.8607,1.8789,1.9209,0.0,0.0,1.9363,1.9372,1.9316,1.9333,1.8926,1.8193,1.6838,1.6523,1.6402,1.6068,1.6014,1.5987,1.5886,1.5942,1.5938,2.5339,0.0,0.0,0.0,0.0,2.2829,2.2573,2.1836,2.2233,2.1815,2.0865,2.0837,0.0,0.0,0.0,0.0,0.0,0.0,2.0324,2.1432,2.1621,2.208,2.275,2.272,2.2508,2.2081,2.1283,2.0668,2.0219,1.9147,1.8375,1.7859,0.0,0.0,0.0,0.0,1.7913,1.8084,1.8061,1.7963,1.7835,1.7879,1.8007,1.8251,1.8141,1.8116,1.8197,1.8209,1.8143,1.8088,1.7941,0.0,0.0,0.0,0.0,0.0,0.0,0.0,0.0,0.0,0.0,0.0,0.0,0.0,0.0,0.0,0.0,0.0,0.0,0.0,1.9738,2.0127,2.0042,0.0,0.0,0.0,0.0,0.0,0.0,0.0,0.0,0.0,2.0858,2.0247,1.9911,0.0,0.0,1.9846,1.9551,1.9363,1.9098,1.8707,1.8879,0.0,1.8824,1.91,1.9357,1.9476,1.9919,2.0285,2.0394,2.0415,2.0269,1.9822,1.9394,1.8841,1.8163,1.7521,1.7012,1.6635,1.677,1.6983,1.6979,1.7158,1.7369,2.8166,2.6233,2.5069,2.4413,2.4259,2.4498,2.4226,2.3603,2.3793,2.3218,2.213,2.2043,2.1492,2.0609,2.0582,0.0,0.0,0.0,2.1175,2.2189,2.2176,2.248,2.3083,2.3095,2.2932,2.2594,2.1997,2.1431,2.0894,2.0118,1.9366,1.8709,0.0,0.0,1.8536,1.8536,1.859,1.8643,1.8563,1.8471,1.8333,1.8414,1.8548,1.8747,1.8747,1.8762,1.8842,1.8842,1.8789,1.8643,1.859,1.8483,0.0,0.0,0.0,0.0,0.0,0.0,0.0,0.0,0.0,0.0,0.0,1.7523,1.7523,0.0,0.0,0.0,1.8629,1.9604,2.0696,2.1014,0.0,0.0,0.0,0.0,0.0,0.0,0.0,2.1155,2.14,2.1651,2.1889,2.1388,2.0976,2.0924,2.0732,2.0495,2.0269,0.0,1.9693,1.9363,1.937,1.9404,1.9347,1.9485,1.9707,1.9899,2.0151,2.0397,2.0434,2.0456,2.0319,1.9856,1.9518,1.9134,1.8787,1.8178,1.7668,1.7305,1.7451,1.7617,1.7627,1.7842,1.8008,3.064,2.9981,2.8073,2.6897,2.6225,2.6028,2.5881,2.5758,2.5454,2.4664,2.3603,2.3346,2.2657,2.1612,2.1534,0.0,2.1571,2.1584,2.1845,2.2372,2.2385,2.2606,2.3095,2.3095,2.3095,2.3095,2.2556,2.202,2.1468,2.0832,2.0229,1.9629,1.9287,1.9206,1.93,1.93,1.93,1.93,1.9312,1.9208,1.904,1.904,1.904,1.9066,1.9066,1.9107,1.9253,1.9253,1.9265,1.9239,1.9239,1.9186,1.904,0.0,0.0,0.0,0.0,0.0,0.0,0.0,0.0,0.0,0.0,0.0,0.0,0.0,0.0,0.0,1.9925,0.0,2.1409,2.1952,0.0,0.0,0.0,2.0983,2.0411,2.1016,2.1557,2.1745,0.0,0.0,2.2451,2.2451,2.2223,2.1608,2.1242,2.1019,2.0999,2.0592,2.0226,2.0161,1.9802,1.9663,2.0004,1.9993,2.0066,2.0394,2.0313,2.0247,2.0016,1.998,1.9851,1.9736,1.9419,1.9178,1.8984,1.8616,1.8236,1.8037,1.7978,1.7998,1.7978,1.7998,1.8008,3.2706,3.2162,3.1645,3.0482,2.8958,2.8898,2.8305,2.738,2.7269,2.6497,2.527,2.4767,2.3848,2.2609,2.1949,2.1916,2.2334,2.2178,2.241,2.2895,2.2907,2.2982,2.3095,2.3095,2.3095,2.307,2.2556,2.2033,2.1481,2.0941,2.0362,1.9809,2.0118,2.025,2.0182,2.0182,2.0182,2.0209,2.0182,1.9945,1.9473,1.946,1.95,1.9592,1.9604,1.9618,1.9656,1.9643,1.9604,1.9512,1.95,1.9448,1.9316,1.9408,0.0,0.0,0.0,0.0,0.0,0.0,0.0,0.0,0.0,1.8919,1.8907,0.0,1.9102,0.0,2.0933,2.1748,2.1795,2.2346,0.0,0.0,2.2058,2.2002,2.1758,2.1966,2.2235,2.2432,2.2647,2.2787,2.2927,2.2836,2.2726,2.2561,2.2254,2.2006,2.1894,2.1651,2.1313,2.0967,2.1045,2.1041,2.0649,2.079,2.0981,2.1012,2.1188,2.1153,2.0705,2.0644,2.0538,2.0267,1.9848,1.9537,1.9402,1.8885,1.8434,1.8279,1.811,1.8008,1.8008,1.8008,1.8008,3.3849,3.3581,3.3581,3.2914,3.1847,3.0986,3.0199,2.9452,2.8851,2.8036,2.7077,2.6078,2.5024,2.3981,2.3469,2.3235,2.318,2.3051,2.3098,2.3228,2.3241,2.3168,2.3095,2.3095,2.3095,2.3095,2.2794,2.2368,2.1857,2.1543,2.1131,2.0577,2.0905,2.1127,2.1281,2.1056,2.0932,2.0932,2.0709,2.0282,1.9707,1.9708,1.9734,1.9798,1.9798,1.9798,1.9798,1.9798,1.9747,1.9682,1.9682,1.9656,1.9591,1.963,1.9708,0.0,0.0,0.0,0.0,0.0,0.0,0.0,0.0,0.0,0.0,0.0,2.0355,2.0967,2.1728,2.2247,2.2407,2.2752,2.2909,2.2635,2.2635,2.2574,2.2432,2.2543,2.2665,2.2769,2.2909,2.3017,2.309,2.303,2.2987,2.3,2.2836,2.2635,2.2445,2.2254,2.2025,2.1757,2.1791,2.1677,2.1168,2.1328,2.1464,2.133,2.1364,2.1263,2.0769,2.0712,2.0644,2.0339,2.0113,1.9933,1.9664,1.9228,1.8798,1.8539,1.8313,1.811,1.8008,1.8008,1.8008,3.4563,3.4563,3.4549,3.4563,3.4428,3.2706,3.1881,3.1636,3.0408,2.9443,2.8688,2.7308,2.625,2.5538,2.5435,2.4965,2.4171,2.4099,2.3854,2.3522,2.348,2.339,2.3198,2.321,2.3168,2.3138,2.3138,2.2849,2.2322,2.2322,2.2033,2.1546,2.1584,2.1832,2.2272,2.1895,2.1669,2.1581,2.1081,2.0526,2.0037,1.9949,1.9911,1.9911,1.9836,1.9798,1.9798,1.9798,1.9798,1.9798,1.9798,1.9798,1.9798,1.9798,1.9798,0.0,1.9798,0.0,0.0,0.0,0.0,0.0,0.0,0.0,0.0,2.1584,2.1794,2.2272,2.2343,2.2581,2.3058,2.3095,2.3047,2.2939,2.2939,2.2891,2.2769,2.2848,2.2939,2.2939,2.3017,2.3095,2.3095,2.3095,2.3095,2.3095,2.3078,2.2987,2.2787,2.2604,2.2482,2.2482,2.2192,2.1929,2.1737,2.1726,2.1686,2.1517,2.1469,2.1092,2.0744,2.0733,2.069,2.0421,2.0464,2.041,2.0042,1.9671,1.9353,1.9031,1.8697,1.8405,1.811,1.8008,1.8008,3.5294,3.5294,3.5309,3.5294,3.5246,3.4702,3.3882,3.2805,3.2025,3.0745,2.9102,2.8517,2.7905,2.7303,2.6802,2.6194,2.5509,2.511,2.4652,2.4131,2.4015,2.3881,2.3772,2.3743,2.3611,2.336,2.333,2.2993,2.2322,2.2322,2.2033,2.1534,2.1933,2.2209,2.2322,0.0,0.0,0.0,2.1606,2.1267,2.1167,2.0767,2.0528,2.0528,2.0049,0.0,1.9798,1.9798,1.9798,1.9798,1.9798,0.0,0.0,0.0,0.0,0.0,0.0,0.0,0.0,0.0,0.0,0.0,2.2008,2.187,2.1531,2.1895,2.2196,2.228,2.2681,2.2995,2.3095,2.3095,2.3108,2.3078,2.3047,2.306,2.3017,2.3047,2.3047,2.3078,2.3078,2.3095,2.3095,2.3095,2.3095,2.3095,2.3095,2.3078,2.3017,2.2987,2.2939,2.2818,2.25,2.2297,2.2254,2.2254,2.2192,2.208,2.2142,2.1994,2.1659,2.1596,2.1565,2.1333,2.125,2.1123,2.0901,2.0484,2.0063,1.9671,1.9342,1.8944,1.8371,1.8144,1.8008,3.5489,0.0,3.5489,3.5489,0.0,3.5392,3.4777,3.3759,3.2873,3.1507,2.9881,2.9717,2.924,2.8567,2.8272,2.7656,2.6823,2.6287,2.5697,2.5068,2.4713,2.4421,2.4173,2.4115,2.3982,2.3747,2.3671,2.3399,2.2972,2.306,2.2949,2.2681,2.3023,2.3167,2.3222,2.3462,2.3174,2.2322,2.2033,2.1769,2.1521,2.1245,2.0968,2.0704,2.0415,0.0,0.0,0.0,0.0,0.0,0.0,0.0,0.0,1.9798,0.0,1.9811,2.0075,2.039,2.0679,2.1194,2.1719,2.2259,2.2531,2.2569,2.2322,2.256,2.2694,2.2706,2.2945,2.3095,2.3095,2.3095,2.3095,2.3095,2.3095,2.3095,2.3095,2.3095,2.3095,2.3095,2.3095,2.3095,2.3095,2.3095,2.3095,2.3095,2.3095,2.3095,2.3095,2.3095,2.3078,2.2987,2.2866,2.2732,2.2744,2.2744,2.2684,2.2604,2.2616,2.2512,2.2211,2.2223,2.2254,2.2025,2.1932,2.1851,2.1651,2.123,2.0816,2.0484,2.0031,1.9639,1.922,1.8764,1.8371,3.5489,3.5489,3.5489,3.5489,3.5489,3.5489,3.504,3.4262,0.0,0.0,0.0,3.0732,3.0366,2.974,2.9681,2.9115,2.8166,2.7598,2.6904,2.6167,2.5656,2.5171,2.478,2.4624,2.4478,2.4276,2.4128,2.3995,2.3763,2.3923,2.3995,2.4024,2.4115,2.416,2.4189,2.4176,2.3693,2.2734,2.2651,2.2407,2.1992,2.185,2.1597,2.1129,2.09,2.0545,2.0026,1.9887,1.9837,1.9798,1.9798,1.9874,2.0001,2.0001,2.0077,2.0191,2.0658,2.0961,2.1075,2.1879,2.2446,2.2564,2.2963,2.3168,2.3108,2.3095,2.3095,2.3095,2.3095,2.3095,2.3095,2.3095,2.3095,2.3095,2.3095,2.3095,2.3095,2.3095,2.3095,2.3095,2.3095,2.3095,2.3095,2.3095,2.3095,2.3095,2.3095,2.3095,2.3095,2.3095,2.3095,2.3078,2.3035,2.3065,2.3095,2.3078,2.3047,2.2927,2.2909,2.2805,2.2635,2.2647,2.2678,2.2531,2.25,2.242,2.2309,2.1913,2.1514,2.1325,2.0837,2.042,2.0291,1.9737,1.9187,3.5489,3.5489,3.5489,3.5489,3.5489,3.5489,3.4786,3.3589,3.2885,3.2109,3.1395,3.1263,3.1146,3.1013,3.0734,3.025,2.9595,2.9218,2.8398,2.7295,2.7086,2.6538,2.5743,2.5688,2.5397,2.4907,2.4863,2.4679,2.4408,2.4408,2.4408,2.4436,2.4436,2.4478,2.4436,2.4465,2.4355,2.4202,2.3984,2.3829,2.3738,2.3282,2.2911,2.2654,2.174,2.108,2.0739,2.0282,1.9926,1.9798,1.9926,2.0193,2.0701,2.0871,2.1142,2.1655,2.1783,2.2039,2.2472,2.2649,2.3,2.3592,2.359,2.3407,2.3138,2.3095,2.3095,2.3095,2.3095,2.3095,2.3095,2.3095,2.3095,2.3095,2.3095,2.3095,2.3095,2.3095,2.3095,2.3095,2.3095,2.3095,2.3095,2.3095,2.3095,2.3095,2.3095,2.3095,2.3095,2.3095,2.3095,2.3095,2.3095,2.3095,2.3095,2.3095,2.3078,2.3078,2.3078,2.3047,2.2957,2.2957,2.2987,2.2987,2.2866,2.2818,2.2757,2.2512,2.2223,2.2018,2.1745,2.1522,2.1365,2.0965,2.042,3.5489,3.5489,3.5489,3.5489,3.5474,3.51,3.4592,3.3979,3.2961,3.2123,3.154,3.1438,3.1409,3.1409,3.1263,3.0984,3.063,3.0132,2.9491,2.8795,2.8348,2.7717,2.695,2.6798,2.6353,2.5633,2.5536,2.5328,2.5021,2.5161,2.5423,2.574,2.6297,2.655,2.6536,2.6188,2.6035,2.5993,2.4912,2.4321,2.4308,2.407,2.3764,2.3379,2.2798,2.2296,2.1888,2.1509,2.1288,2.1209,2.1288,2.1417,2.1702,2.1769,2.1925,2.2225,2.2594,2.2908,2.3169,2.3454,2.377,2.4089,2.3894,2.37,2.3539,2.336,2.3271,2.3271,2.318,2.3095,2.3095,2.3095,2.3095,2.3095,2.3095,2.3095,2.3095,2.3095,2.3095,2.3095,2.3095,2.3095,2.3095,2.3095,2.3095,2.3095,2.3095,2.3095,2.3095,2.3095,2.3095,2.3095,2.3095,2.3095,2.3095,2.3095,2.3095,2.3095,2.3095,2.3095,2.3095,2.3095,2.3095,2.3095,2.306,2.3017,2.3017,2.2836,2.2665,2.2574,2.2359,2.2149,2.2025,2.1765,2.1123,3.5489,3.5489,3.5489,3.5489,3.5459,3.4936,3.4653,3.4399,3.3395,3.2482,3.178,3.1585,3.1496,3.1496,3.1496,3.1438,3.1276,3.0801,3.0404,3.0012,2.9484,2.8855,2.809,2.7821,2.727,2.6554,2.6277,2.6059,2.5965,2.6186,2.6621,2.7244,2.8011,2.8397,2.8383,2.7894,2.7608,2.7524,2.6174,2.5279,2.4908,2.4908,2.4691,2.4244,2.3973,2.358,2.3058,2.2764,2.2577,2.2523,2.2564,2.2657,2.2789,2.2883,2.295,2.3109,2.3618,2.3927,2.394,2.4313,2.4567,2.4609,2.4361,2.42,2.4171,2.3848,2.3539,2.339,2.321,2.3095,2.3095,2.3095,2.3095,2.3095,2.3095,2.3095,2.3095,2.3095,2.3095,2.3095,2.3095,2.3095,2.3095,2.3095,2.3095,2.3095,2.3095,2.3095,2.3095,2.3095,2.3095,2.3095,2.3095,2.3095,2.3095,2.3095,2.3095,2.3095,2.3095,2.3095,2.3095,2.3095,2.3095,2.3095,2.3095,2.3095,2.3078,2.3017,2.2939,2.2909,2.2714,2.2561,2.2469,2.2304,2.1827,3.5489,3.5489,3.5489,3.5489,3.5489,3.5415,3.504,3.4548,3.4322,3.3574,3.2407,3.1765,3.1511,3.1496,3.1496,3.1511,3.1482,3.1407,3.1049,3.0498,3.0391,2.9963,2.9201,2.8625,2.8125,2.771,2.7205,2.7142,2.7427,2.754,2.7871,2.8435,2.8636,2.8709,2.868,2.8622,2.8578,2.8578,2.8393,2.7593,2.6234,2.6122,2.6,2.57,2.5153,2.4579,2.4042,2.3472,2.3108,2.2911,2.3149,2.3485,2.3987,2.4244,2.4599,2.5053,2.5149,2.5232,2.5232,2.5245,2.5356,2.5522,2.5216,2.5033,2.5005,2.4523,2.3998,2.3539,2.3241,2.3138,2.3095,2.3095,2.3095,2.3095,2.3095,2.3095,2.3095,2.3095,2.3095,2.3095,2.3095,2.3095,2.3095,2.3095,2.3095,2.3095,2.3095,2.3095,2.3095,2.3095,2.3095,2.3095,2.3095,2.3095,2.3095,2.3095,2.3095,2.3095,2.3095,2.3095,2.3095,2.3095,2.3095,2.3095,2.3095,2.3095,2.3095,2.3078,2.3078,2.3047,2.2987,2.2969,2.2878,2.2787,2.2427,3.5489,3.5489,3.5489,3.5489,3.5489,3.5489,3.5355,3.507,3.4668,3.3979,3.3066,3.2392,3.1869,3.1511,3.1496,3.1496,3.1496,3.1496,3.1361,3.1077,3.1077,3.0733,3.0078,2.9782,2.9372,2.8796,2.8545,2.8478,2.862,2.9,2.9422,2.9785,3.0155,3.0362,3.0332,2.9962,2.9755,2.9755,2.94,2.8887,2.8309,2.7908,2.7474,2.6992,2.6651,2.6174,2.558,2.5205,2.5013,2.4933,2.5013,2.5178,2.5418,2.554,2.5706,2.5905,2.6,2.6068,2.6176,2.6014,2.596,2.6055,2.5577,2.5314,2.5314,2.4766,2.4292,2.4044,2.3586,2.3271,2.3271,2.3168,2.3095,2.3095,2.3095,2.3095,2.3095,2.3095,2.3095,2.3095,2.3095,2.3095,2.3095,2.3095,2.3095,2.3095,2.3095,2.3095,2.3095,2.3095,2.3095,2.3095,2.3095,2.3095,2.3095,2.3095,2.3095,2.3095,2.3095,2.3095,2.3095,2.3095,2.3095,2.3095,2.3095,2.3095,2.3095,2.3095,2.3095,2.3095,2.3095,2.3078,2.3017,2.303,2.2866,3.5489,3.5489,3.5489,3.5489,3.5489,3.5489,3.5489,3.5444,3.4966,3.4397,3.3739,3.326,3.2691,3.2049,3.169,3.1496,3.1496,3.1496,3.1496,3.1496,3.1496,3.1227,3.0791,3.0582,3.0212,2.9754,2.9516,2.9448,2.9546,3.0253,3.0693,3.0838,3.1256,3.1496,3.1451,3.0972,3.0791,3.0718,3.0328,3.0118,3.0048,2.9699,2.9049,2.8261,2.8077,2.775,2.7192,2.6883,2.6701,2.6675,2.6558,2.6498,2.6498,2.651,2.6537,2.6578,2.6657,2.6721,2.68,2.6642,2.6537,2.651,2.6095,2.5824,2.5673,2.5231,2.4908,2.478,2.4218,2.3835,2.3599,2.3378,2.3258,2.3288,2.3258,2.3168,2.3168,2.3138,2.3095,2.3095,2.3095,2.3095,2.3095,2.3095,2.3095,2.3095,2.3095,2.3095,2.3095,2.3095,2.3095,2.3095,2.3095,2.3095,2.3095,2.3095,2.3095,2.3095,2.3095,2.3095,2.3095,2.3095,2.3095,2.3095,2.3095,2.3095,2.3095,2.3095,2.3095,2.3095,2.3095,2.3095,2.3078,2.3108,2.3108,3.5489,3.5489,3.5489,3.5489,3.5489,3.5489,3.5489,3.5489,3.5444,3.5055,3.4474,3.4337,3.3993,3.3275,3.2123,3.1555,3.154,3.16,3.163,3.1615,3.157,3.1496,3.1406,3.0793,3.0507,3.0404,2.9998,2.9956,3.0449,3.1093,3.1422,3.1466,3.1585,3.1555,3.16,3.157,3.1481,3.1511,3.1466,3.1421,3.1406,3.1377,3.0665,2.9555,2.9302,2.9106,2.8726,2.8159,2.7771,2.7648,2.7234,2.7006,2.7003,2.7078,2.713,2.7141,2.7155,2.7181,2.7167,2.713,2.7115,2.7115,2.6922,2.6817,2.6551,2.615,2.5825,2.5633,2.5132,2.4664,2.4218,2.3852,2.3645,2.3789,2.3552,2.3403,2.3373,2.3198,2.3108,2.3095,2.3108,2.3138,2.3138,2.3095,2.3138,2.3138,2.3108,2.3095,2.3095,2.3095,2.3095,2.3095,2.3095,2.3095,2.3095,2.3095,2.3095,2.3095,2.3095,2.3095,2.3095,2.3095,2.3095,2.3095,2.3095,2.3095,2.3095,2.3095,2.3095,2.3095,2.3095,2.3095,2.3095,2.3095,2.3095,3.5489,3.5489,3.5489,3.5489,3.5489,3.5489,3.5489,3.5489,3.5489,3.5115,3.4578,3.4503,3.4144,3.3455,3.3006,3.2796,3.2781,3.2796,3.2781,3.2751,3.2362,3.2138,3.2064,3.1451,3.1137,3.1092,3.0928,3.0913,3.1167,3.1809,3.2123,3.2228,3.2602,3.2781,3.2781,3.2781,3.2796,3.2796,3.2781,3.2781,3.2706,3.2348,3.1884,3.1392,3.0541,2.9873,2.9362,2.9109,2.8785,2.8302,2.8118,2.7806,2.7431,2.7423,2.7448,2.7448,2.7448,2.7448,2.7463,2.7361,2.735,2.7325,2.7119,2.7003,2.6843,2.6513,2.6204,2.6028,2.5688,2.5384,2.5258,2.458,2.4044,2.3998,2.3747,2.3509,2.339,2.3241,2.3095,2.3125,2.3198,2.3271,2.33,2.336,2.339,2.33,2.33,2.3228,2.3138,2.3095,2.3095,2.3095,2.3095,2.3095,2.3095,2.3095,2.3095,2.3095,2.3095,2.3095,2.3095,2.3095,2.3095,2.3095,2.3095,2.3095,2.3095,2.3095,2.3095,2.3095,2.3095,2.3095,2.3095,2.3095,2.3095,3.5489,3.5489,3.5489,3.5489,3.5489,3.5489,3.5489,3.5489,3.5489,3.5235,3.4893,3.4816,3.4547,3.4188,3.4158,3.4143,3.4068,3.3724,3.3499,3.3469,3.3036,3.2691,3.2437,3.2034,3.1824,3.1869,3.2049,3.2138,3.2183,3.2602,3.2826,3.2856,3.329,3.3499,3.3499,3.3499,3.3499,3.3499,3.3499,3.3499,3.344,3.3066,3.2721,3.2392,3.1629,3.0851,3.0238,3.0041,2.9726,2.9235,2.8831,2.8278,2.769,2.7585,2.7585,2.7585,2.7585,2.7585,2.76,2.7514,2.7478,2.7478,2.7299,2.7196,2.717,2.6855,2.6683,2.6551,2.6326,2.6206,2.6096,2.5467,2.4879,2.4609,2.4247,2.394,2.3763,2.3543,2.3437,2.3407,2.3539,2.3569,2.3522,2.3611,2.3582,2.3433,2.3403,2.333,2.3168,2.3095,2.3095,2.3095,2.3095,2.3095,2.3108,2.3108,2.3138,2.3138,2.3095,2.3095,2.3095,2.3095,2.3095,2.3095,2.3095,2.3095,2.3095,2.3095,2.3095,2.3095,2.3095,2.3095,2.3095,2.3095,2.3095,3.5489,3.5489,3.5489,3.5489,3.5489,3.5489,3.5489,3.5489,3.5489,3.5444,3.537,3.5444,3.534,3.5385,3.5265,3.5385,3.5115,3.4203,3.3724,3.3679,3.3559,3.32,3.2706,3.2587,3.2482,3.2527,3.314,3.341,3.3335,3.3425,3.3499,3.3499,3.3619,3.3769,3.3589,3.3709,3.3634,3.3679,3.3724,3.3649,3.3529,3.3544,3.326,3.2721,3.2467,3.2034,3.1481,3.0866,3.0462,3.0283,2.9325,2.8364,2.7809,2.763,2.7585,2.7585,2.7585,2.7585,2.7585,2.7585,2.7575,2.7575,2.756,2.7524,2.7499,2.7386,2.7258,2.713,2.6974,2.6884,2.6683,2.639,2.6028,2.5688,2.5061,2.4622,2.4478,2.4276,2.4057,2.3923,2.3998,2.3969,2.3763,2.3878,2.3907,2.3628,2.3539,2.3467,2.3305,2.3275,2.3155,2.3168,2.3275,2.3365,2.3245,2.3138,2.3138,2.3168,2.3138,2.3095,2.3095,2.3095,2.3095,2.3095,2.3095,2.3095,2.3095,2.3095,2.3095,2.3095,2.3095,2.3095,2.3095,2.3095,2.3095,3.5489,3.5489,3.5489,3.5489,3.5489,3.5489,3.5489,3.5489,3.5489,3.5489,3.5489,3.5489,3.5489,3.5489,3.5489,3.5489,3.5459,3.5055,3.4876,3.4771,3.4414,3.4099,3.3815,3.3395,3.3185,3.3215,3.338,3.3499,3.3619,3.3994,3.4158,3.4247,3.4637,3.4861,3.4816,3.4861,3.4876,3.4876,3.4891,3.4876,3.4831,3.4412,3.4084,3.3799,3.3006,3.2407,3.2153,3.154,3.0972,3.0552,3.0133,2.943,2.8457,2.7854,2.76,2.7585,2.7585,2.7585,2.7585,2.7585,2.7585,2.7585,2.7585,2.7585,2.756,2.7488,2.7401,2.731,2.7222,2.713,2.7141,2.7037,2.6657,2.6015,2.5453,2.5061,2.4907,2.4609,2.4366,2.4334,2.4463,2.452,2.4492,2.4563,2.4492,2.4189,2.4131,2.4044,2.3826,2.3738,2.3809,2.3767,2.3767,2.3738,2.3679,2.3649,2.3679,2.3543,2.3395,2.3288,2.3228,2.3138,2.3138,2.3138,2.3138,2.3125,2.3125,2.3138,2.3138,2.3108,2.3108,2.3108,2.3108,2.3095,2.3095,3.5876,3.5876,3.5876,3.5844,3.578,3.5765,3.5748,3.5683,3.5683,3.5651,3.5572,3.5572,3.5569,3.5489,3.5489,3.5489,3.5489,3.5489,3.5489,3.5444,3.51,3.4773,3.4518,3.4114,3.3858,3.3918,3.4113,3.4233,3.4262,3.4651,3.4893,3.4998,3.5295,3.5474,3.5489,3.5489,3.5489,3.5489,3.5474,3.5489,3.5415,3.5085,3.4773,3.4429,3.3664,3.3021,3.2572,3.2079,3.1555,3.0943,3.0657,2.9998,2.9041,2.8588,2.8244,2.8019,2.7959,2.7884,2.7645,2.7585,2.7585,2.7585,2.7585,2.7585,2.756,2.7499,2.7463,2.7463,2.7397,2.7386,2.7423,2.7361,2.7052,2.6659,2.6123,2.5715,2.5522,2.53,2.5133,2.5147,2.5188,2.5188,2.5104,2.5174,2.5076,2.478,2.4679,2.458,2.435,2.4221,2.4263,2.4263,2.4192,2.4163,2.4221,2.4221,2.4221,2.4002,2.378,2.3616,2.3539,2.3348,2.3258,2.3271,2.3271,2.3318,2.3318,2.3271,2.3271,2.321,2.3198,2.3108,2.3095,2.3095,2.3158,3.6523,3.6507,3.6507,3.6367,3.6227,3.6227,3.6164,3.6068,3.6037,3.5973,3.5784,3.5752,3.5686,3.5587,3.5587,3.5587,3.5554,3.5554,3.5587,3.5587,3.5449,3.5162,3.4713,3.4577,3.4578,3.4622,3.51,3.537,3.528,3.5355,3.5489,3.5429,3.5444,3.5489,3.5489,3.5489,3.5489,3.5489,3.5489,3.5489,3.5489,3.5474,3.5205,3.4607,3.4444,3.3844,3.2991,3.2542,3.2123,3.1511,3.0823,3.0238,2.9744,2.9621,2.9202,2.8667,2.8637,2.8248,2.7824,2.763,2.7585,2.7585,2.7585,2.7585,2.7585,2.756,2.7575,2.7575,2.756,2.756,2.7549,2.7488,2.7386,2.7335,2.6855,2.6525,2.6336,2.6256,2.6068,2.5961,2.6015,2.5961,2.5591,2.5674,2.555,2.53,2.5188,2.5062,2.4879,2.4838,2.4681,2.4709,2.4866,2.4894,2.5035,2.5035,2.5035,2.4922,2.4567,2.4247,2.3923,2.3645,2.3497,2.3509,2.3509,2.3569,2.3556,2.3569,2.3539,2.3526,2.3424,2.3215,2.3206,2.3334,2.35,3.6799,3.6799,3.6799,3.6769,3.6738,3.6723,3.6662,3.6538,3.6523,3.643,3.6274,3.6133,3.6085,3.599,3.591,3.591,3.6005,3.5925,3.5941,3.5973,3.5735,3.5529,3.5297,3.522,3.5205,3.5235,3.5385,3.5489,3.5489,3.5489,3.5489,3.5489,3.5489,3.5489,3.5489,3.5489,3.5489,3.5489,3.5489,3.5489,3.5489,3.5489,3.5429,3.5235,3.4756,3.4369,3.3858,3.3021,3.2183,3.154,3.0881,3.0447,3.0253,2.9894,2.9606,2.934,2.8891,2.8562,2.8308,2.7884,2.763,2.7585,2.7615,2.7585,2.7585,2.7585,2.7585,2.7585,2.7585,2.7585,2.7585,2.7575,2.7549,2.7499,2.7181,2.687,2.6683,2.659,2.6537,2.6498,2.6525,2.6431,2.6377,2.6351,2.6312,2.6109,2.6014,2.596,2.5701,2.5646,2.5605,2.5755,2.5892,2.5878,2.5878,2.5878,2.5878,2.5851,2.5522,2.5006,2.4551,2.4031,2.3956,2.394,2.3969,2.4015,2.3985,2.3956,2.3927,2.3992,2.3896,2.3829,2.3786,2.3863,2.4042,3.7709,3.7693,3.7693,3.7605,3.7504,3.7504,3.7356,3.7208,3.7208,3.7074,3.6892,3.6769,3.6631,3.6507,3.6414,3.6399,3.6507,3.6414,3.6399,3.6321,3.607,3.5767,3.5539,3.5489,3.5489,3.5489,3.5489,3.5489,3.5489,3.5489,3.5489,3.5489,3.5489,3.5489,3.5489,3.5489,3.5489,3.5489,3.5489,3.5489,3.5489,3.5489,3.5489,3.5444,3.507,3.4816,3.4367,3.3215,3.2183,3.1585,3.1122,3.0898,3.0883,3.0627,3.0283,3.0013,2.9594,2.9325,2.8951,2.8382,2.8049,2.7959,2.7809,2.7615,2.7585,2.7585,2.7585,2.7585,2.7585,2.7585,2.7585,2.7585,2.7585,2.7575,2.7386,2.7222,2.7089,2.7086,2.7049,2.7011,2.6985,2.6959,2.6919,2.6907,2.6855,2.6736,2.6645,2.6551,2.6431,2.6484,2.6484,2.6496,2.6553,2.6502,2.6492,2.6506,2.6607,2.6619,2.6527,2.6021,2.5409,2.4771,2.4605,2.4589,2.4534,2.4547,2.4727,2.4767,2.4693,2.4702,2.458,2.4685,2.4766,2.4832,2.4947,3.886,3.886,3.886,3.8662,3.8411,3.8367,3.8214,3.8059,3.8001,3.7857,3.7608,3.7535,3.7342,3.7025,3.7057,3.7027,3.7087,3.7027,3.6906,3.6754,3.6476,3.6179,3.578,3.5619,3.5554,3.5522,3.5522,3.5489,3.5489,3.5489,3.5489,3.5489,3.5489,3.5489,3.5489,3.5489,3.5489,3.5489,3.5489,3.5489,3.5489,3.5489,3.5489,3.5474,3.5459,3.5055,3.4397,3.3425,3.2497,3.1765,3.1585,3.1451,3.1451,3.1466,3.1197,3.0687,3.0417,3.0118,2.9684,2.9071,2.8697,2.8607,2.8109,2.7705,2.775,2.7705,2.7585,2.7585,2.7585,2.7585,2.7585,2.7585,2.7585,2.76,2.7575,2.7615,2.7675,2.7645,2.7549,2.7437,2.7412,2.7361,2.7284,2.7233,2.7207,2.7115,2.7063,2.7037,2.6945,2.693,2.6904,2.6878,2.6925,2.7015,2.7033,2.7091,2.7237,2.7353,2.7387,2.7062,2.6441,2.5909,2.5519,2.5393,2.5808,2.5962,2.5978,2.5907,2.5791,2.5855,2.6058,2.6121,2.6149,2.6117,2.6202,3.9115,3.9098,3.9115,3.9071,3.9017,3.9017,3.8909,3.8761,3.8761,3.8623,3.8455,3.823,3.8071,3.7969,3.7812,3.7783,3.794,3.7783,3.7519,3.7268,3.7208,3.6892,3.6414,3.6022,3.5718,3.5653,3.5539,3.5489,3.5504,3.5522,3.5504,3.5504,3.5489,3.5489,3.5489,3.5489,3.5489,3.5489,3.5489,3.5489,3.5489,3.5489,3.5489,3.5489,3.5489,3.5145,3.4638,3.4203,3.3739,3.3021,3.2138,3.166,3.1645,3.1585,3.1466,3.1241,3.0791,3.0462,3.0223,2.9759,2.9412,2.9295,2.8771,2.8382,2.8338,2.7899,2.7675,2.76,2.7585,2.7585,2.7585,2.7585,2.7645,2.766,2.769,2.7869,2.8184,2.7944,2.7664,2.7639,2.7624,2.7564,2.7514,2.7488,2.7463,2.7463,2.7467,2.7452,2.7457,2.745,2.7562,2.7632,2.782,2.796,2.8004,2.8078,2.8154,2.8213,2.8204,2.8179,2.7576,2.7313,2.7031,2.7088,2.7371,2.7385,2.7201,2.7414,2.7371,2.7454,2.7508,2.7484,2.7467,2.7458,2.7474,3.9618,3.9601,3.9627,3.9592,3.9513,3.9513,3.9451,3.9345,3.9319,3.9239,3.9121,3.8914,3.8816,3.8701,3.8579,3.859,3.8662,3.8511,3.8343,3.8128,3.7956,3.7711,3.7417,3.6799,3.6368,3.6148,3.591,3.5814,3.5782,3.5701,3.5589,3.5587,3.5522,3.5489,3.5489,3.5489,3.5489,3.5489,3.5489,3.5489,3.5489,3.5489,3.5489,3.5489,3.5489,3.5295,3.5011,3.4638,3.4307,3.3799,3.3021,3.2422,3.2333,3.2138,3.1974,3.1854,3.1346,3.1002,3.0851,3.0417,3.0028,2.9998,2.943,2.9187,2.8921,2.8468,2.8139,2.8004,2.7824,2.7585,2.7585,2.7585,2.769,2.8034,2.8053,2.8378,2.8813,2.8472,2.8244,2.8349,2.8308,2.8158,2.8038,2.7944,2.7705,2.7658,2.8081,2.811,2.8286,2.8323,2.8599,2.8737,2.8898,2.9002,2.9047,2.9095,2.9173,2.9161,2.9089,2.905,2.8788,2.8699,2.8675,2.8621,2.8451,2.8449,2.8362,2.8623,2.8842,2.8829,2.8828,2.8826,2.8849,2.8919,2.8935,4.0113,4.0113,4.0113,4.0054,3.9935,3.9926,3.9833,3.9755,3.9755,3.9677,3.959,3.9563,3.9415,3.9302,3.9259,3.9259,3.9249,3.9195,3.9034,3.8914,3.865,3.8455,3.8214,3.7841,3.7401,3.6831,3.643,3.6274,3.6148,3.5926,3.5735,3.5703,3.5587,3.5489,3.5489,3.5489,3.5489,3.5489,3.5489,3.5489,3.5489,3.5489,3.5489,3.5489,3.5489,3.5489,3.531,3.4996,3.4683,3.4623,3.4098,3.3858,3.3619,3.308,3.2572,3.2512,3.1914,3.1585,3.1331,3.0957,3.0672,3.0642,3.0073,2.9759,2.9579,2.9187,2.8816,2.8592,2.8393,2.8094,2.7914,2.8079,2.8319,2.8592,2.8757,2.9056,2.943,2.9205,2.922,2.9277,2.9037,2.8771,2.8607,2.8472,2.8154,2.7974,2.8427,2.8786,2.8951,2.9086,2.9277,2.9457,2.9547,2.9968,3.0088,3.0088,3.0178,3.0088,2.9971,2.9956,2.9928,2.9999,2.9891,2.9481,2.9309,2.9395,2.9541,2.9719,2.9926,3.0059,3.006,2.9973,3.0117,3.0359,3.0238,4.0113,4.0113,4.0113,4.0087,4.0087,4.0062,4.002,4.0037,3.9995,4.0037,3.9986,3.9884,3.9798,3.9755,3.9635,3.9625,3.9609,3.9625,3.9599,3.9458,3.9255,3.9131,3.8887,3.8706,3.8511,3.8128,3.7371,3.6708,3.6461,3.6132,3.5975,3.5767,3.5604,3.5522,3.5522,3.5489,3.5489,3.5489,3.5489,3.5489,3.5489,3.5489,3.5489,3.5489,3.5489,3.5489,3.5489,3.54,3.534,3.5325,3.5235,3.5145,3.4831,3.3963,3.3245,3.2751,3.2407,3.2034,3.1645,3.1421,3.1316,3.1197,3.0746,3.0387,3.0208,2.9804,2.9415,2.9295,2.9277,2.9202,2.9277,2.9067,2.9247,2.9427,2.9487,2.9684,3.0148,3.0208,2.9968,2.9879,2.9624,2.94,2.9265,2.9116,2.8903,2.8828,2.9131,2.9385,2.949,2.9579,2.9696,2.9876,3.0056,3.0612,3.1107,3.1092,3.1092,3.0987,3.0913,3.0898,3.0972,3.1182,3.1036,3.0416,3.0416,3.0697,3.083,3.08,3.0816,3.0819,3.0923,3.0998,3.094,3.0836,3.0791,4.0113,4.0113,4.0113,4.0113,4.0113,4.0113,4.0113,4.0113,4.0113,4.0113,4.0087,4.0037,4.0011,3.9986,3.9944,3.991,3.9935,3.9961,3.9926,3.9824,3.9746,3.9642,3.9441,3.9335,3.9228,3.8914,3.8214,3.7578,3.7282,3.6846,3.6476,3.6211,3.5973,3.5797,3.5636,3.5621,3.5572,3.5522,3.5489,3.5504,3.5489,3.5489,3.5489,3.5489,3.5489,3.5489,3.5489,3.5489,3.5489,3.5474,3.5489,3.5489,3.5295,3.4921,3.4218,3.3559,3.2931,3.2422,3.1974,3.175,3.1481,3.1466,3.1152,3.1032,3.0866,3.0477,2.9996,2.9726,2.9621,2.9621,2.9562,2.9639,2.9756,3.0026,3.0101,3.0372,3.0806,3.0957,3.0776,3.0462,3.0253,3.0088,2.9968,2.9804,2.9651,2.9699,2.9909,2.9998,3.0073,3.0208,3.0313,3.0477,3.0672,3.0926,3.1406,3.1451,3.1496,3.1496,3.1496,3.1496,3.1496,3.1481,3.1421,3.108,3.1361,3.1496,3.1407,3.114,3.1362,3.1496,3.1364,3.1247,3.1321,3.1292,3.1146,4.0113,4.0113,4.0113,4.0113,4.0113,4.0113,4.0113,4.0113,4.0113,4.0113,4.0113,4.0113,4.0087,4.0096,4.007,4.0087,4.0113,4.0113,4.0087,4.0062,3.9961,3.9926,3.9875,3.9746,3.9616,3.9547,3.9185,3.8733,3.8071,3.749,3.7118,3.68,3.6492,3.6164,3.5943,3.5847,3.5703,3.5604,3.5554,3.5537,3.5504,3.5489,3.5489,3.5489,3.5489,3.5489,3.5489,3.5489,3.5489,3.5489,3.5489,3.5489,3.5489,3.5489,3.5235,3.4607,3.3544,3.2946,3.2363,3.2079,3.1735,3.1525,3.1496,3.1481,3.1376,3.0943,3.0537,3.0088,3.0043,3.0103,3.0193,3.0043,3.0253,3.0552,3.0746,3.0881,3.1212,3.1391,3.1361,3.1107,3.0898,3.0761,3.0627,3.0627,3.0462,3.0447,3.0642,3.0658,3.0748,3.0972,3.1107,3.1227,3.1316,3.1316,3.1481,3.1466,3.1496,3.1496,3.1496,3.1496,3.1496,3.1496,3.1421,3.1376,3.1421,3.1496,3.1496,3.1496,3.1496,3.1496,3.1496,3.1467,3.1438,3.1438,3.1351,4.0113,4.0113,4.0113,4.0113,4.0113,4.0113,4.0113,4.0113,4.0113,4.0113,4.0113,4.0113,4.0113,4.0113,4.0113,4.0113,4.0113,4.0113,4.0113,4.007,4.0062,4.0062,4.0087,4.0062,3.9961,3.991,3.9781,3.9292,3.865,3.7985,3.7535,3.7328,3.6983,3.6569,3.643,3.629,3.5975,3.5752,3.5703,3.5636,3.5537,3.5489,3.5489,3.5489,3.5489,3.5489,3.5489,3.5489,3.5489,3.5489,3.5489,3.5489,3.5489,3.5489,3.5489,3.522,3.4622,3.3739,3.2871,3.2378,3.2064,3.172,3.154,3.1511,3.1436,3.1421,3.1212,3.1316,3.1197,3.1092,3.1032,3.1167,3.1301,3.1256,3.1241,3.1286,3.1496,3.1496,3.1496,3.1481,3.1182,3.1241,3.1227,3.1271,3.1301,3.1316,3.1316,3.1301,3.1331,3.1436,3.1496,3.1496,3.1496,3.1496,3.1496,3.1496,3.1496,3.1496,3.1496,3.1496,3.1496,3.1496,3.1496,3.1466,3.1496,3.1496,3.1496,3.1496,3.1496,3.1496,3.1496,3.1496,3.1496,3.1496,3.1496,4.0113,4.0113,4.0113,4.0113,4.0113,4.0113,4.0113,4.0113,4.0113,4.0113,4.0113,4.0113,4.0113,4.0113,4.0113,4.0113,4.0113,4.0113,4.0113,4.0113,4.0113,4.0113,4.0113,4.0113,4.0113,4.0062,3.9961,3.9772,3.9212,3.8799,3.8395,3.8059,3.777,3.7387,3.7043,3.6846,3.6538,3.6211,3.5894,3.5638,3.5507,3.5489,3.5489,3.5489,3.5489,3.5489,3.5489,3.5489,3.5489,3.5489,3.5489,3.5489,3.5489,3.5489,3.5489,3.5474,3.5235,3.4592,3.3769,3.2991,3.2422,3.2034,3.175,3.1496,3.1496,3.1496,3.1496,3.1481,3.1496,3.1496,3.1496,3.1496,3.1496,3.1496,3.1496,3.1496,3.1496,3.1496,3.1496,3.1496,3.1496,3.1496,3.1496,3.1466,3.1421,3.1421,3.1406,3.1406,3.1406,3.1466,3.1496,3.1496,3.1496,3.1496,3.1496,3.1496,3.1496,3.1496,3.1496,3.1496,3.1496,3.1496,3.1496,3.1496,3.1496,3.1496,3.1496,3.1496,3.1496,3.1496,3.1496,3.1496,3.1496,3.1496,3.1496,4.0113,4.0113,4.0113,4.0113,4.0113,4.0113,4.0113,4.0113,4.0113,4.0113,4.0113,4.0113,4.0113,4.0113,4.0113,4.0113,4.0113,4.0113,4.0113,4.0113,4.0113,4.0113,4.0113,4.0113,4.0113,4.013,4.0332,4.0128,3.9933,3.9723,3.946,3.8849,3.8511,3.8157,3.7754,3.7401,3.7058,3.6352,3.5911,3.5638,3.5522,3.5489,3.5489,3.5489,3.5489,3.5489,3.5489,3.5489,3.5489,3.5489,3.5489,3.5489,3.5489,3.5489,3.5489,3.5489,3.54,3.5235,3.4517,3.3799,3.2976,3.2422,3.1929,3.1496,3.1496,3.1496,3.1496,3.1496,3.1496,3.1496,3.1496,3.1496,3.1496,3.1496,3.1496,3.1496,3.1511,3.157,3.154,3.1496,3.1496,3.1496,3.1496,3.1496,3.1496,3.1496,3.1496,3.1496,3.1496,3.1496,3.1496,3.1496,3.1496,3.1496,3.1496,3.1496,3.1496,3.1525,3.1525,3.1525,3.1555,3.1525,3.1496,3.1496,3.1555,3.1496,3.1496,3.1496,3.1496,3.1496,3.1496,3.1496,3.1496,3.1511,3.1496,4.0113,4.0113,4.0113,4.0113,4.0113,4.0113,4.0113,4.0113,4.0113,4.0113,4.0113,4.0113,4.0113,4.0113,4.0113,4.0113,4.0113,4.0113,4.0113,4.0113,4.0113,4.0113,4.0113,4.0113,4.013,4.0248,4.0586,4.0569,4.0417,4.0813,4.0282,3.9558,3.923,3.8865,3.8399,3.7915,3.7208,3.6461,3.5911,3.5653,3.5539,3.5489,3.5489,3.5489,3.5489,3.5489,3.5489,3.5489,3.5489,3.5489,3.5489,3.5489,3.5489,3.5489,3.5489,3.5489,3.5489,3.54,3.5055,3.4487,3.3679,3.2751,3.1989,3.1585,3.1511,3.1496,3.1496,3.1496,3.1496,3.1496,3.1496,3.1496,3.1496,3.1555,3.1615,3.175,3.175,3.1705,3.1675,3.154,3.1496,3.1496,3.1496,3.1496,3.1496,3.1496,3.1496,3.1496,3.1496,3.1496,3.1496,3.1496,3.1496,3.1496,3.1511,3.1555,3.169,3.169,3.166,3.1645,3.1645,3.1615,3.172,3.169,3.1765,3.163,3.1555,3.1705,3.175,3.157,3.157,3.1869,3.175,3.16,3.1555,4.0113,4.0113,4.0113,4.0113,4.0113,4.0113,4.0113,4.0113,4.0113,4.0113,4.0113,4.0113,4.0113,4.0113,4.0113,4.0113,4.0113,4.0113,4.0113,4.0113,4.0113,4.0113,4.0113,4.0113,4.0113,4.0282,4.0798,4.1136,4.0916,4.1373,4.1608,4.1059,4.0077,3.9428,3.8942,3.8289,3.7333,3.6585,3.6068,3.5765,3.5522,3.5489,3.5489,3.5489,3.5489,3.5489,3.5489,3.5489,3.5489,3.5489,3.5489,3.5489,3.5489,3.5489,3.5489,3.5489,3.5489,3.5489,3.5385,3.4831,3.3888,3.2841,3.2228,3.1974,3.1705,3.1555,3.1511,3.1496,3.1585,3.1675,3.154,3.1525,3.1511,3.16,3.1795,3.2034,3.2108,3.2108,3.2123,3.2138,3.1765,3.1496,3.1496,3.1496,3.1496,3.1496,3.1496,3.1496,3.1496,3.1496,3.1496,3.1496,3.1496,3.16,3.163,3.1765,3.1929,3.1929,3.1914,3.2004,3.2108,3.2123,3.2198,3.2108,3.2108,3.2138,3.2153,3.2123,3.2108,3.2123,3.2318,3.2647,3.2303,3.1854,3.1809,4.0113,4.0113,4.0113,4.0113,4.0113,4.0113,4.0113,4.0113,4.0113,4.0113,4.0113,4.0113,4.0113,4.0113,4.0113,4.0113,4.0113,4.0113,4.0113,4.0113,4.0113,4.0113,4.0113,4.0113,4.0113,4.0257,4.0747,4.1119,4.0747,4.1593,4.1702,4.1405,4.0948,4.0273,3.9858,3.8801,3.7758,3.694,3.6405,3.5933,3.5612,3.5489,3.5489,3.5489,3.5489,3.5489,3.5489,3.5489,3.5489,3.5489,3.5489,3.5489,3.5489,3.5489,3.5489,3.5489,3.5489,3.5489,3.5325,3.4816,3.4083,3.3395,3.2931,3.2602,3.2228,3.2079,3.2273,3.2213,3.2168,3.2093,3.2049,3.2243,3.2288,3.2482,3.2617,3.2811,3.2796,3.2811,3.2781,3.2766,3.2422,3.2228,3.2258,3.2288,3.1899,3.178,3.1511,3.1496,3.1496,3.1496,3.1496,3.1496,3.1496,3.1645,3.1795,3.2064,3.2377,3.2706,3.2691,3.2736,3.2811,3.2796,3.2796,3.2796,3.2796,3.2811,3.2901,3.3021,3.2946,3.2841,3.3021,3.3185,3.3036,3.2632,3.2437,4.0113,4.0113,4.0113,4.0113,4.0113,4.0113,4.0113,4.0113,4.0113,4.0113,4.0113,4.0113,4.0113,4.0113,4.0113,4.0113,4.0113,4.0113,4.0113,4.0113,4.0113,4.0113,4.0113,4.0113,4.0113,4.0299,4.0764,4.0916,4.0468,4.1441,4.1593,4.1692,4.162,4.1221,4.1344,4.0128,3.8795,3.7587,3.6977,3.6273,3.5776,3.5579,3.5489,3.5489,3.5489,3.5489,3.5489,3.5489,3.5489,3.5489,3.5489,3.5489,3.5489,3.5489,3.5489,3.5489,3.5489,3.5489,3.5444,3.4846,3.4503,3.4204,3.3664,3.335,3.3365,3.3335,3.3185,3.2961,3.314,3.3245,3.335,3.3335,3.323,3.323,3.3305,3.3469,3.3469,3.3469,3.3469,3.3395,3.3425,3.341,3.3395,3.323,3.2602,3.2153,3.1675,3.157,3.1735,3.169,3.1765,3.1765,3.1795,3.1899,3.2138,3.2482,3.2811,3.3185,3.344,3.3455,3.3469,3.3484,3.3469,3.3469,3.3469,3.3484,3.3724,3.4009,3.3918,3.3844,3.3544,3.3559,3.3469,3.332,3.3066,4.0113,4.0113,4.0113,4.0113,4.0113,4.0113,4.0113,4.0113,4.0113,4.0113,4.0113,4.0113,4.0113,4.0113,4.0113,4.0113,4.0113,4.0113,4.0113,4.0113,4.0113,4.0113,4.0113,4.0113,4.013,4.0316,4.0781,4.1424,4.167,4.2066,4.2895,4.323,4.2624,4.2119,4.1156,4.0027,3.8999,3.8125,3.7281,3.6493,3.6151,3.5759,3.5519,3.5519,3.5489,3.5489,3.5489,3.5489,3.5489,3.5489,3.5489,3.5489,3.5489,3.5489,3.5489,3.5489,3.5489,3.5489,3.5474,3.5205,3.4936,3.4607,3.4322,3.3963,3.3619,3.3514,3.3499,3.3574,3.3679,3.3664,3.3469,3.3469,3.344,3.3529,3.3679,3.4069,3.4174,3.4174,3.4159,3.3963,3.3918,3.3754,3.3679,3.3903,3.3469,3.326,3.2886,3.2662,3.2766,3.2422,3.2287,3.2273,3.2287,3.2332,3.2527,3.3051,3.335,3.3664,3.3963,3.4143,3.4143,3.4158,3.4189,3.4158,3.4158,3.4173,3.4352,3.4577,3.4891,3.4876,3.4442,3.4173,3.4143,3.3844,3.3395,4.0113,4.0113,4.0113,4.0113,4.0113,4.0113,4.0113,4.0113,4.0113,4.0113,4.0113,4.0113,4.0113,4.0113,4.0113,4.0113,4.0113,4.0113,4.0113,4.0113,4.0113,4.0113,4.0113,4.0146,4.0333,4.0519,4.0933,4.1525,4.2117,4.2726,4.325,4.3636,4.3826,4.292,4.1754,4.0782,3.9685,3.8844,3.7946,3.7072,3.6585,3.6103,3.5759,3.5579,3.5489,3.5489,3.5489,3.5489,3.5489,3.5489,3.5489,3.5489,3.5489,3.5489,3.5489,3.5489,3.5489,3.5489,3.5489,3.5474,3.5205,3.4951,3.4846,3.4622,3.4292,3.4352,3.4307,3.4277,3.4128,3.4143,3.4143,3.4098,3.4113,3.4233,3.4367,3.4758,3.4803,3.4803,3.4756,3.4592,3.4502,3.4247,3.4098,3.4262,3.4337,3.4262,3.4188,3.3948,3.3649,3.3215,3.2856,3.2856,3.2916,3.3051,3.3335,3.3845,3.4099,3.4173,3.4427,3.4696,3.4831,3.4846,3.4846,3.4863,3.4801,3.4816,3.4921,3.5115,3.525,3.528,3.5085,3.4891,3.4878,3.4487,3.4023,4.0113,4.0113,4.0113,4.0113,4.0113,4.0113,4.0113,4.0113,4.0113,4.0113,4.0113,4.0113,4.0113,4.0113,4.0113,4.0113,4.0113,4.0113,4.0113,4.0113,4.0113,4.0113,4.0146,4.0231,4.0561,4.0967,4.1407,4.1847,4.232,4.2895,4.3284,4.3512,4.3788,4.3313,4.2555,4.155,4.0466,3.9554,3.8591,3.7661,3.69,3.6462,3.6013,3.5714,3.5489,3.5489,3.5489,3.5489,3.5489,3.5489,3.5489,3.5489,3.5489,3.5489,3.5489,3.5489,3.5489,3.5489,3.5489,3.5489,3.5489,3.531,3.537,3.5429,3.534,3.5115,3.504,3.507,3.504,3.5205,3.531,3.525,3.5205,3.5235,3.525,3.5355,3.537,3.537,3.5355,3.5295,3.528,3.5145,3.5055,3.5145,3.4906,3.4951,3.4831,3.4607,3.4277,3.3814,3.3544,3.3529,3.3619,3.3799,3.4159,3.4474,3.4728,3.4786,3.4981,3.5235,3.537,3.537,3.525,3.522,3.5385,3.5415,3.5295,3.531,3.5415,3.54,3.5325,3.531,3.5145,3.5235,3.4996,4.0113,4.0113,4.0113,4.0113,4.0113,4.0113,4.0113,4.0113,4.0113,4.0113,4.0113,4.0113,4.0113,4.0113,4.0113,4.0113,4.0113,4.0113,4.0113,4.0113,4.0113,4.0113,4.0282,4.0578,4.0967,4.1356,4.1779,4.2354,4.3098,4.3504,4.387,4.426,4.3975,4.3621,4.3003,4.2142,4.117,4.0211,3.9256,3.817,3.7278,3.678,3.6241,3.5714,3.5504,3.5489,3.5489,3.5489,3.5489,3.5489,3.5489,3.5489,3.5489,3.5489,3.5489,3.5489,3.5489,3.5489,3.5489,3.5489,3.5489,3.5489,3.5489,3.5489,3.5489,3.5489,3.5489,3.5489,3.5489,3.5489,3.5489,3.5489,3.5489,3.5489,3.5489,3.5489,3.5489,3.5489,3.5489,3.5489,3.5489,3.5489,3.5489,3.5444,3.525,3.5415,3.5385,3.5145,3.4891,3.4442,3.4233,3.4203,3.4233,3.4397,3.4562,3.4878,3.5145,3.5415,3.5489,3.5489,3.5459,3.5444,3.5489,3.5489,3.5522,3.5522,3.5474,3.5522,3.5636,3.5522,3.5477,3.5474,3.5489,3.5522,3.5572,4.0113,4.0113,4.0113,4.0113,4.0113,4.0113,4.0113,4.0113,4.0113,4.0113,4.0113,4.0113,4.0113,4.0113,4.0113,4.0113,4.0113,4.0113,4.0113,4.0113,4.0113,4.0341,4.0629,4.1001,4.1559,4.1982,4.2523,4.3115,4.3792,4.4215,4.4564,4.4519,4.4167,4.3814,4.3323,4.2694,4.1933,4.0953,3.9914,3.8743,3.7839,3.7121,3.6469,3.5669,3.5504,3.5489,3.5489,3.5489,3.5489,3.5489,3.5489,3.5489,3.5489,3.5489,3.5489,3.5489,3.5489,3.5489,3.5489,3.5489,3.5489,3.5489,3.5489,3.5489,3.5489,3.5489,3.5489,3.5489,3.5489,3.5489,3.5489,3.5489,3.5489,3.5489,3.5489,3.5489,3.5489,3.5489,3.5489,3.5489,3.5489,3.5489,3.5489,3.5489,3.5489,3.5489,3.5489,3.5415,3.5265,3.507,3.4921,3.4891,3.4891,3.4936,3.5117,3.5177,3.5374,3.5507,3.5489,3.5489,3.5489,3.5537,3.5537,3.5554,3.5539,3.5572,3.5636,3.575,3.5846,3.5733,3.5748,3.5797,3.5765,3.5636,3.5718,4.0113,4.0113,4.0113,4.0113,4.0113,4.0113,4.0113,4.0113,4.0113,4.0113,4.0113,4.0113,4.0113,4.0113,4.0113,4.0113,4.0113,4.0113,4.0113,4.0113,4.0113,4.035,4.073,4.1305,4.1931,4.2861,4.3555,4.3792,4.4327,4.4598,4.4598,4.4587,4.4384,4.4064,4.3654,4.3035,4.2294,4.1517,4.0448,3.9318,3.814,3.7515,3.7007,3.5809,3.5489,3.5489,3.5489,3.5489,3.5489,3.5489,3.5489,3.5489,3.5489,3.5489,3.5489,3.5489,3.5489,3.5489,3.5489,3.5489,3.5489,3.5489,3.5489,3.5489,3.5489,3.5489,3.5489,3.5489,3.5489,3.5489,3.5489,3.5489,3.5489,3.5489,3.5489,3.5489,3.5489,3.5489,3.5489,3.5489,3.5489,3.5489,3.5572,3.5572,3.5701,3.5604,3.5619,3.5651,3.5653,3.5593,3.5499,3.5452,3.5327,3.5267,3.5392,3.5437,3.5529,3.5572,3.5619,3.5683,3.5844,3.5748,3.5602,3.5716,3.5782,3.5782,3.5831,3.599,3.6116,3.6132,3.6132,3.6163,3.6085,3.599,3.6005,4.0113,4.0113,4.0113,4.0113,4.0113,4.0113,4.0113,4.0113,4.0113,4.0113,4.0113,4.0113,4.0113,4.0113,4.0113,4.0113,4.0113,4.0113,4.0113,4.0113,4.0113,4.0282,4.0688,4.1525,4.2202,4.2811,4.3521,4.4316,4.453,4.4598,4.4598,4.457,4.4395,4.4196,4.3814,4.3177,4.2436,4.1745,4.0702,3.961,3.8494,3.7453,3.6678,3.5926,3.5589,3.5554,3.5522,3.5504,3.5504,3.5489,3.5489,3.5489,3.5489,3.5489,3.5489,3.5489,3.5489,3.5489,3.5489,3.5489,3.5489,3.5489,3.5489,3.5489,3.5489,3.5489,3.5489,3.5489,3.5489,3.5489,3.5489,3.5489,3.5489,3.5489,3.5489,3.5489,3.5489,3.5489,3.5489,3.5489,3.5489,3.5572,3.5668,3.575,3.5831,3.5894,3.6037,3.61,3.6195,3.6196,3.5896,3.58,3.5542,3.5494,3.5636,3.5782,3.5878,3.5973,3.6022,3.6132,3.621,3.6178,3.61,3.6068,3.6085,3.6148,3.6242,3.6305,3.6399,3.6538,3.6677,3.6723,3.6723,3.6616,3.6569,3.9597,3.9673,3.996,4.0113,4.0113,4.0113,4.0113,4.0113,4.0113,4.0113,4.0113,4.0113,4.0113,4.0113,4.0113,4.0113,4.0113,4.0113,4.0113,4.0113,4.0146,4.0383,4.0959,4.1677,4.2422,4.3031,4.3938,4.4564,4.4598,4.4598,4.4598,4.457,4.444,4.417,4.3747,4.3029,4.2373,4.1703,4.0645,3.973,3.878,3.7902,3.6915,3.6234,3.5831,3.575,3.5604,3.5587,3.5554,3.5522,3.5489,3.5489,3.5489,3.5489,3.5489,3.5489,3.5489,3.5489,3.5489,3.5489,3.5489,3.5504,3.5489,3.5489,3.5489,3.5489,3.5489,3.5489,3.5489,3.5489,3.5489,3.5489,3.5489,3.5489,3.5489,3.5489,3.5522,3.5572,3.5604,3.5621,3.5718,3.591,3.6022,3.6179,3.6274,3.6321,3.643,3.66,3.6693,3.6892,3.6538,3.6321,3.6211,3.602,3.6084,3.6226,3.6305,3.6399,3.6538,3.6569,3.6662,3.6662,3.6631,3.6631,3.6631,3.6677,3.6739,3.6846,3.6983,3.718,3.7284,3.7358,3.7312,3.7326,3.7401,3.892,3.9089,3.969,4.0028,4.0113,4.0113,4.0113,4.0113,4.0113,4.0113,4.0113,4.0113,4.0113,4.0113,4.0113,4.0113,4.0113,4.0113,4.0113,4.0113,4.0113,4.0299,4.0891,4.1694,4.2422,4.3267,4.4164,4.4479,4.4598,4.4598,4.4598,4.4598,4.435,4.4041,4.3423,4.2869,4.23,4.1438,4.0535,3.9816,3.9121,3.8439,3.7359,3.6599,3.6196,3.6038,3.5847,3.5735,3.5701,3.5668,3.5636,3.5636,3.5619,3.5651,3.5619,3.5619,3.5651,3.5619,3.5554,3.5539,3.5522,3.5504,3.5504,3.5489,3.5489,3.5489,3.5489,3.5522,3.5522,3.5522,3.5522,3.5522,3.5522,3.5587,3.5587,3.5604,3.5668,3.575,3.5799,3.5863,3.6038,3.6258,3.6476,3.6662,3.6784,3.6846,3.6952,3.7057,3.7237,3.7474,3.7474,3.7326,3.7252,3.7058,3.6739,3.6708,3.6815,3.7103,3.7252,3.7177,3.7177,3.7415,3.746,3.7207,3.7237,3.7312,3.7417,3.7519,3.7698,3.7831,3.7931,3.8014,3.8071,3.8128,3.8298,3.8464,3.9005,3.9157,3.9554,4.0028,4.0096,4.0113,4.0113,4.0113,4.0113,4.0113,4.0113,4.0113,4.0113,4.0113,4.0113,4.0113,4.0113,4.0113,4.0113,4.0113,4.0214,4.062,4.1441,4.2269,4.3234,4.413,4.4513,4.4598,4.4598,4.4564,4.4513,4.3842,4.3494,4.3223,4.2544,4.1553,4.0869,4.0261,3.9505,3.9,3.8242,3.7426,3.6815,3.6383,3.6227,3.6085,3.6005,3.6037,3.6037,3.6022,3.5973,3.591,3.5861,3.5861,3.5829,3.5829,3.5797,3.575,3.5686,3.5668,3.5602,3.5587,3.5569,3.5569,3.5554,3.5572,3.5686,3.5653,3.5619,3.5587,3.5587,3.5587,3.5782,3.5863,3.599,3.6101,3.6274,3.6414,3.6492,3.66,3.6876,3.7163,3.7342,3.7578,3.7695,3.7883,3.7998,3.8141,3.827,3.8355,3.827,3.8185,3.7812,3.7401,3.7387,3.749,3.7754,3.7985,3.7998,3.8112,3.8411,3.8355,3.801,3.7969,3.8042,3.8128,3.8214,3.8343,3.8472,3.8556,3.865,3.8733,3.8788,3.8898]}]]